[[{"header":{"parameterUnit":"m.s-1","parameterCategory":1,"la1":31.0,"la2":29.5877,"lo1":-88.7671,"lo2":-86.6584,"dy":0.0162,"dx":0.0185,"nx":115,"ny":88,"refTime":"2024-09-10T06:00:00:Z","depth":0,"parameterNumber":2,"parameterNumberName":"U-component_of_WINDS"},"data":[0.0,0.0,0.0,0.0,0.0,0.0,0.0,0.0,0.0,0.0,0.0,0.0,0.0,0.0,0.0,0.0,0.0,0.0,0.0,0.0,0.0,0.0,0.0,0.0,0.0,0.0,0.0,0.0,0.0,0.0,0.0,0.0,0.0,0.0,0.0,0.0,0.0,0.0,0.0,0.0,0.0,0.0,0.0,0.0,0.0,0.0,0.0,0.0,0.0,0.0,0.0,0.0,0.0,0.0,0.0,0.0,0.0,0.0,0.0,0.0,0.0,0.0,0.0,0.0,0.0,0.0,0.0,0.0,0.0,0.0,0.0,0.0,0.0,0.0,0.0,0.0,0.0,0.0,0.0,0.0,0.0,0.0,0.0,0.0,0.0,0.0,0.0,0.0,0.0,0.0,0.0,0.0,0.0,0.0,0.0,0.0,0.0,0.0,0.0,0.0,0.0,0.0,0.0,0.0,0.0,0.0,0.0,0.0,0.0,0.0,0.0,0.0,0.0,0.0,0.0,0.0,0.0,0.0,0.0,0.0,0.0,0.0,0.0,0.0,0.0,0.0,0.0,0.0,0.0,0.0,0.0,0.0,0.0,0.0,0.0,0.0,0.0,0.0,0.0,0.0,0.0,0.0,0.0,0.0,0.0,0.0,0.0,0.0,0.0,0.0,0.0,0.0,0.0,0.0,0.0,0.0,0.0,0.0,0.0,0.0,0.0,0.0,0.0,0.0,0.0,0.0,0.0,0.0,0.0,0.0,0.0,0.0,0.0,0.0,0.0,0.0,0.0,0.0,0.0,0.0,0.0,0.0,0.0,0.0,0.0,0.0,0.0,0.0,0.0,0.0,0.0,0.0,0.0,0.0,0.0,0.0,0.0,0.0,0.0,0.0,0.0,0.0,0.0,0.0,0.0,0.0,0.0,0.0,0.0,0.0,0.0,0.0,0.0,0.0,0.0,0.0,0.0,0.0,0.0,0.0,0.0,0.0,0.0,0.0,0.0,0.0,0.0,0.0,0.0,0.0,0.0,0.0,0.0,0.0,0.0,0.0,0.0,0.0,0.0,0.0,0.0,0.0,0.0,0.0,0.0,0.0,0.0,0.0,0.0,0.0,0.0,0.0,0.0,0.0,0.0,0.0,0.0,0.0,0.0,0.0,0.0,0.0,0.0,0.0,0.0,0.0,0.0,0.0,0.0,0.0,0.0,0.0,0.0,0.0,0.0,0.0,0.0,0.0,0.0,0.0,0.0,0.0,0.0,0.0,0.0,0.0,0.0,0.0,0.0,0.0,0.0,0.0,0.0,0.0,0.0,0.0,0.0,0.0,0.0,0.0,0.0,0.0,0.0,0.0,0.0,0.0,0.0,0.0,0.0,0.0,0.0,0.0,0.0,0.0,0.0,0.0,0.0,0.0,0.0,0.0,0.0,0.0,0.0,0.0,0.0,0.0,0.0,0.0,0.0,0.0,0.0,0.0,0.0,0.0,0.0,0.0,0.0,0.0,0.0,0.0,0.0,0.0,0.0,0.0,0.0,0.0,0.0,0.0,0.0,0.0,0.0,0.0,0.0,0.0,0.0,0.0,0.0,0.0,0.0,0.0,0.0,0.0,0.0,0.0,0.0,0.0,0.0,0.0,0.0,0.0,0.0,0.0,0.0,0.0,0.0,0.0,0.0,0.0,0.0,0.0,0.0,0.0,0.0,0.0,0.0,0.0,0.0,0.0,0.0,0.0,0.0,0.0,0.0,0.0,0.0,0.0,0.0,0.0,0.0,0.0,0.0,0.0,0.0,0.0,0.0,0.0,0.0,0.0,0.0,0.0,0.0,0.0,0.0,0.0,0.0,0.0,0.0,0.0,0.0,0.0,0.0,0.0,0.0,0.0,0.0,0.0,0.0,0.0,0.0,0.0,0.0,0.0,0.0,0.0,0.0,0.0,0.0,0.0,0.0,0.0,0.0,0.0,0.0,0.0,0.0,0.0,0.0,0.0,0.0,0.0,0.0,0.0,0.0,0.0,0.0,0.0,0.0,0.0,0.0,0.0,0.0,0.0,0.0,0.0,0.0,0.0,0.0,0.0,0.0,0.0,0.0,0.0,0.0,0.0,0.0,0.0,0.0,0.0,0.0,0.0,0.0,0.0,0.0,0.0,0.0,0.0,0.0,0.0,0.0,0.0,0.0,0.0,0.0,0.0,0.0,0.0,0.0,0.0,0.0,0.0,0.0,0.0,0.0,0.0,0.0,0.0,0.0,0.0,0.0,0.0,0.0,0.0,0.0,0.0,0.0,0.0,0.0,0.0,0.0,0.0,0.0,0.0,0.0,0.0,0.0,0.0,0.0,0.0,0.0,0.0,0.0,0.0,0.0,0.0,0.0,0.0,0.0,0.0,0.0,0.0,0.0,0.0,0.0,0.0,0.0,0.0,0.0,0.0,0.0,0.0,0.0,0.0,0.0,0.0,0.0,0.0,0.0,0.0,0.0,0.0,0.0,0.0,0.0,0.0,0.0,0.0,0.0,0.0,0.0,0.0,0.0,0.0,0.0,0.0,0.0,0.0,0.0,0.0,0.0,0.0,0.0,0.0,0.0,0.0,0.0,0.0,0.0,0.0,0.0,0.0,0.0,0.0,0.0,0.0,0.0,0.0,0.0,0.0,0.0,0.0,0.0,0.0,0.0,0.0,0.0,0.0,0.0,0.0,0.0,0.0,0.0,0.0,0.0,0.0,0.0,0.0,0.0,0.0,0.0,0.0,0.0,0.0,0.0,0.0,0.0,0.0,0.0,0.0,0.0,0.0,0.0,0.0,0.0,0.0,0.0,0.0,0.0,0.0,0.0,0.0,0.0,0.0,0.0,0.0,0.0,0.0,0.0,0.0,0.0,0.0,0.0,0.0,0.0,0.0,0.0,0.0,0.0,0.0,0.0,0.0,0.0,0.0,0.0,0.0,0.0,0.0,0.0,0.0,0.0,0.0,0.0,0.0,0.0,0.0,0.0,0.0,0.0,0.0,0.0,0.0,0.0,0.0,0.0,0.0,0.0,0.0,0.0,0.0,0.0,0.0,0.0,0.0,0.0,0.0,0.0,0.0,0.0,0.0,0.0,0.0,0.0,0.0,0.0,0.0,0.0,0.0,0.0,0.0,0.0,0.0,0.0,0.0,0.0,0.0,0.0,0.0,0.0,0.0,0.0,0.0,0.0,0.0,0.0,0.0,0.0,0.0,0.0,0.0,0.0,0.0,0.0,0.0,0.0,0.0,0.0,0.0,0.0,0.0,0.0,0.0,0.0,0.0,0.0,0.0,0.0,0.0,0.0,0.0,0.0,0.0,0.0,0.0,0.0,0.0,0.0,0.0,0.0,0.0,0.0,0.0,0.0,0.0,0.0,0.0,0.0,0.0,0.0,0.0,0.0,0.0,0.0,0.0,0.0,0.0,0.0,0.0,0.0,0.0,0.0,0.0,0.0,0.0,0.0,0.0,0.0,0.0,0.0,0.0,0.0,0.0,0.0,0.0,0.0,0.0,0.0,0.0,0.0,0.0,0.0,0.0,0.0,0.0,0.0,0.0,0.0,0.0,0.0,0.0,0.0,0.0,0.0,0.0,0.0,0.0,0.0,0.0,0.0,0.0,0.0,0.0,0.0,0.0,0.0,0.0,0.0,0.0,0.0,0.0,0.0,0.0,0.0,0.0,0.0,0.0,0.0,0.0,0.0,0.0,0.0,0.0,0.0,0.0,0.0,0.0,0.0,0.0,0.0,0.0,0.0,0.0,0.0,0.0,0.0,0.0,0.0,0.0,0.0,0.0,0.0,0.0,0.0,0.0,0.0,0.0,0.0,0.0,0.0,0.0,0.0,0.0,0.0,0.0,0.0,0.0,0.0,0.0,0.0,0.0,0.0,0.0,0.0,0.0,0.0,0.0,0.0,0.0,0.0,0.0,0.0,0.0,0.0,0.0,0.0,0.0,0.0,0.0,0.0,0.0,0.0,0.0,0.0,0.0,0.0,0.0,0.0,0.0,0.0,0.0,0.0,0.0,0.0,0.0,0.0,0.0,0.0,0.0,0.0,0.0,0.0,0.0,0.0,0.0,0.0,0.0,0.0,0.0,0.0,0.0,0.0,0.0,0.0,0.0,0.0,0.0,0.0,0.0,0.0,0.0,0.0,0.0,0.0,0.0,0.0,0.0,0.0,0.0,0.0,0.0,0.0,0.0,0.0,0.0,0.0,0.0,0.0,0.0,0.0,0.0,0.0,0.0,0.0,0.0,0.0,0.0,0.0,0.0,-2.487,0.0,0.0,0.0,0.0,0.0,0.0,0.0,0.0,0.0,0.0,0.0,0.0,0.0,0.0,0.0,0.0,0.0,0.0,0.0,0.0,0.0,0.0,0.0,0.0,0.0,0.0,0.0,0.0,0.0,0.0,0.0,0.0,0.0,0.0,0.0,0.0,0.0,0.0,0.0,0.0,0.0,0.0,0.0,0.0,0.0,0.0,0.0,0.0,0.0,0.0,0.0,0.0,0.0,0.0,0.0,0.0,0.0,0.0,0.0,0.0,0.0,0.0,0.0,0.0,0.0,0.0,0.0,0.0,0.0,0.0,0.0,0.0,0.0,0.0,0.0,0.0,0.0,0.0,0.0,0.0,0.0,0.0,0.0,0.0,0.0,0.0,0.0,0.0,0.0,0.0,0.0,0.0,0.0,0.0,0.0,0.0,0.0,0.0,0.0,0.0,0.0,0.0,0.0,0.0,0.0,0.0,0.0,0.0,0.0,0.0,-2.6305,-2.5816,-2.6532,-2.6264,-2.4883,0.0,0.0,0.0,0.0,0.0,0.0,0.0,0.0,0.0,0.0,0.0,0.0,0.0,0.0,0.0,0.0,0.0,0.0,0.0,0.0,0.0,0.0,0.0,0.0,0.0,0.0,0.0,0.0,0.0,0.0,0.0,0.0,0.0,0.0,0.0,0.0,0.0,0.0,0.0,0.0,0.0,0.0,0.0,0.0,0.0,0.0,0.0,0.0,0.0,0.0,0.0,0.0,0.0,0.0,0.0,0.0,0.0,0.0,0.0,0.0,0.0,0.0,0.0,0.0,0.0,0.0,0.0,0.0,0.0,0.0,0.0,0.0,0.0,0.0,0.0,0.0,0.0,0.0,0.0,0.0,0.0,0.0,0.0,0.0,0.0,0.0,0.0,0.0,0.0,0.0,0.0,0.0,0.0,0.0,0.0,0.0,0.0,0.0,0.0,0.0,0.0,0.0,0.0,0.0,0.0,0.0,0.0,0.0,0.0,0.0,0.0,0.0,-2.7256,-2.6753,-2.5247,0.0,0.0,0.0,0.0,0.0,0.0,0.0,0.0,0.0,0.0,0.0,0.0,0.0,0.0,0.0,0.0,0.0,0.0,0.0,0.0,0.0,0.0,0.0,0.0,0.0,0.0,0.0,0.0,0.0,0.0,0.0,0.0,0.0,0.0,0.0,0.0,0.0,0.0,0.0,0.0,0.0,0.0,0.0,0.0,0.0,0.0,0.0,0.0,0.0,0.0,0.0,0.0,0.0,0.0,0.0,0.0,0.0,0.0,0.0,0.0,0.0,0.0,0.0,0.0,0.0,0.0,0.0,0.0,0.0,0.0,0.0,0.0,0.0,0.0,0.0,0.0,0.0,0.0,0.0,0.0,0.0,0.0,0.0,0.0,0.0,0.0,0.0,0.0,0.0,0.0,0.0,0.0,0.0,0.0,0.0,0.0,0.0,0.0,0.0,0.0,0.0,0.0,0.0,0.0,0.0,0.0,0.0,0.0,0.0,0.0,-2.6239,-2.7908,-2.7996,0.0,-2.6377,0.0,0.0,0.0,0.0,0.0,0.0,0.0,0.0,0.0,0.0,0.0,0.0,0.0,0.0,0.0,0.0,0.0,0.0,0.0,0.0,0.0,0.0,0.0,0.0,0.0,0.0,0.0,0.0,0.0,0.0,0.0,0.0,0.0,0.0,0.0,0.0,0.0,0.0,0.0,0.0,0.0,0.0,0.0,0.0,0.0,0.0,0.0,0.0,0.0,0.0,0.0,0.0,0.0,0.0,0.0,0.0,0.0,0.0,0.0,0.0,0.0,0.0,0.0,0.0,0.0,0.0,0.0,0.0,0.0,0.0,0.0,0.0,0.0,0.0,0.0,0.0,0.0,0.0,0.0,0.0,0.0,0.0,0.0,0.0,0.0,0.0,0.0,0.0,0.0,0.0,0.0,0.0,0.0,0.0,0.0,0.0,0.0,0.0,0.0,0.0,0.0,0.0,0.0,0.0,0.0,0.0,0.0,0.0,0.0,0.0,-2.6771,-2.8084,-2.7469,-2.6766,0.0,0.0,0.0,0.0,0.0,0.0,0.0,0.0,0.0,0.0,0.0,0.0,0.0,0.0,0.0,0.0,0.0,0.0,0.0,0.0,0.0,0.0,0.0,0.0,0.0,0.0,0.0,0.0,0.0,0.0,0.0,0.0,0.0,0.0,0.0,0.0,0.0,0.0,0.0,0.0,0.0,0.0,0.0,0.0,0.0,0.0,0.0,0.0,0.0,0.0,0.0,0.0,0.0,0.0,0.0,0.0,0.0,0.0,0.0,0.0,0.0,0.0,0.0,0.0,0.0,0.0,0.0,0.0,0.0,0.0,0.0,0.0,0.0,0.0,0.0,0.0,0.0,0.0,0.0,0.0,0.0,0.0,0.0,0.0,0.0,0.0,0.0,0.0,0.0,0.0,0.0,0.0,0.0,0.0,0.0,0.0,0.0,0.0,0.0,0.0,0.0,0.0,0.0,0.0,0.0,0.0,0.0,0.0,0.0,0.0,-2.5888,-2.7385,-2.8437,-2.7808,-2.6816,-2.5636,0.0,0.0,0.0,0.0,0.0,0.0,0.0,0.0,0.0,0.0,0.0,0.0,0.0,0.0,0.0,0.0,0.0,0.0,0.0,0.0,0.0,0.0,0.0,0.0,0.0,0.0,0.0,0.0,0.0,0.0,0.0,0.0,0.0,0.0,0.0,0.0,0.0,0.0,0.0,0.0,0.0,0.0,0.0,0.0,0.0,0.0,0.0,0.0,0.0,0.0,0.0,0.0,0.0,0.0,0.0,0.0,0.0,0.0,0.0,0.0,0.0,0.0,0.0,0.0,0.0,0.0,0.0,0.0,0.0,0.0,0.0,0.0,0.0,0.0,0.0,0.0,0.0,0.0,0.0,0.0,0.0,0.0,0.0,0.0,0.0,0.0,0.0,0.0,0.0,0.0,0.0,0.0,0.0,0.0,0.0,0.0,0.0,0.0,0.0,0.0,0.0,0.0,0.0,0.0,0.0,0.0,0.0,0.0,0.0,-2.6615,-2.8097,-2.9641,-2.9666,-2.836,0.0,0.0,0.0,0.0,0.0,0.0,0.0,0.0,0.0,0.0,0.0,0.0,0.0,0.0,0.0,0.0,0.0,0.0,0.0,0.0,0.0,0.0,0.0,0.0,0.0,0.0,0.0,0.0,0.0,0.0,0.0,0.0,0.0,0.0,0.0,0.0,0.0,0.0,0.0,0.0,0.0,0.0,0.0,0.0,0.0,0.0,0.0,0.0,0.0,0.0,0.0,0.0,0.0,0.0,0.0,0.0,0.0,0.0,0.0,0.0,0.0,0.0,0.0,0.0,0.0,0.0,0.0,0.0,0.0,0.0,0.0,0.0,0.0,0.0,0.0,0.0,0.0,0.0,0.0,0.0,0.0,0.0,0.0,0.0,0.0,0.0,0.0,0.0,0.0,0.0,0.0,0.0,0.0,0.0,0.0,0.0,0.0,0.0,0.0,0.0,0.0,0.0,0.0,0.0,0.0,0.0,0.0,0.0,0.0,-2.4167,-2.6574,-2.8612,-3.0181,-2.8599,-2.7005,0.0,0.0,0.0,0.0,0.0,0.0,0.0,0.0,0.0,0.0,0.0,0.0,0.0,0.0,0.0,0.0,0.0,0.0,0.0,0.0,0.0,0.0,0.0,0.0,0.0,0.0,0.0,0.0,0.0,0.0,0.0,0.0,0.0,0.0,0.0,0.0,0.0,0.0,0.0,0.0,0.0,0.0,0.0,0.0,0.0,0.0,0.0,0.0,0.0,0.0,0.0,0.0,0.0,0.0,0.0,0.0,0.0,0.0,0.0,0.0,0.0,0.0,0.0,0.0,0.0,0.0,0.0,0.0,0.0,0.0,0.0,0.0,0.0,0.0,0.0,0.0,0.0,0.0,0.0,0.0,0.0,0.0,0.0,0.0,0.0,0.0,0.0,0.0,0.0,0.0,0.0,0.0,0.0,0.0,0.0,0.0,0.0,0.0,0.0,0.0,0.0,0.0,0.0,0.0,0.0,0.0,0.0,0.0,0.0,-2.4941,0.0,-2.9114,0.0,-2.8072,-2.6302,0.0,0.0,0.0,0.0,0.0,0.0,0.0,0.0,0.0,0.0,0.0,0.0,0.0,0.0,0.0,0.0,0.0,0.0,0.0,0.0,0.0,0.0,0.0,0.0,0.0,0.0,0.0,0.0,0.0,0.0,0.0,0.0,0.0,0.0,0.0,0.0,0.0,0.0,0.0,0.0,0.0,0.0,0.0,0.0,0.0,0.0,0.0,0.0,0.0,0.0,0.0,0.0,0.0,0.0,0.0,0.0,0.0,0.0,0.0,0.0,0.0,0.0,0.0,0.0,0.0,0.0,0.0,0.0,0.0,0.0,0.0,0.0,0.0,0.0,0.0,0.0,0.0,0.0,0.0,0.0,0.0,0.0,0.0,0.0,0.0,0.0,0.0,0.0,0.0,0.0,0.0,0.0,0.0,0.0,0.0,0.0,0.0,0.0,0.0,0.0,0.0,0.0,0.0,0.0,0.0,0.0,0.0,0.0,-2.3626,-2.7836,-2.9101,-2.9453,-2.895,-2.8348,-2.6527,0.0,0.0,0.0,0.0,0.0,0.0,0.0,0.0,0.0,0.0,0.0,0.0,0.0,0.0,0.0,0.0,0.0,0.0,0.0,0.0,0.0,0.0,0.0,0.0,0.0,0.0,0.0,0.0,0.0,0.0,0.0,0.0,0.0,0.0,0.0,0.0,0.0,0.0,0.0,0.0,0.0,0.0,0.0,0.0,0.0,0.0,0.0,0.0,0.0,0.0,0.0,0.0,0.0,0.0,0.0,0.0,0.0,0.0,0.0,0.0,0.0,0.0,0.0,0.0,0.0,0.0,0.0,0.0,0.0,0.0,0.0,0.0,0.0,0.0,0.0,0.0,0.0,0.0,0.0,0.0,0.0,0.0,0.0,0.0,0.0,0.0,0.0,0.0,0.0,0.0,0.0,0.0,0.0,0.0,0.0,0.0,0.0,0.0,0.0,0.0,0.0,0.0,0.0,0.0,0.0,0.0,0.0,0.0,0.0,-2.6377,-2.7846,-2.8913,-2.944,-2.7871,-2.649,0.0,0.0,0.0,0.0,0.0,0.0,0.0,0.0,0.0,0.0,0.0,0.0,0.0,0.0,0.0,0.0,0.0,0.0,0.0,0.0,0.0,0.0,0.0,0.0,0.0,0.0,0.0,0.0,0.0,0.0,0.0,0.0,0.0,0.0,0.0,0.0,0.0,0.0,0.0,0.0,0.0,0.0,0.0,0.0,0.0,0.0,0.0,0.0,0.0,0.0,0.0,0.0,0.0,0.0,0.0,0.0,0.0,0.0,0.0,0.0,0.0,0.0,0.0,0.0,0.0,0.0,0.0,0.0,0.0,0.0,0.0,0.0,0.0,0.0,0.0,0.0,0.0,0.0,0.0,0.0,0.0,0.0,0.0,0.0,0.0,0.0,0.0,0.0,0.0,0.0,0.0,0.0,0.0,0.0,0.0,0.0,0.0,0.0,0.0,0.0,0.0,0.0,0.0,0.0,0.0,0.0,0.0,0.0,0.0,-2.6578,-2.7971,-2.8963,-2.9453,-2.7708,-2.6477,-2.5837,0.0,0.0,0.0,0.0,0.0,0.0,0.0,0.0,0.0,0.0,0.0,0.0,0.0,0.0,0.0,0.0,0.0,0.0,0.0,0.0,0.0,0.0,0.0,0.0,0.0,0.0,0.0,0.0,0.0,0.0,0.0,0.0,0.0,0.0,0.0,0.0,0.0,0.0,0.0,0.0,0.0,0.0,0.0,0.0,0.0,0.0,0.0,0.0,0.0,0.0,0.0,0.0,0.0,0.0,0.0,0.0,0.0,0.0,0.0,0.0,0.0,0.0,0.0,0.0,0.0,0.0,0.0,0.0,0.0,0.0,0.0,0.0,0.0,0.0,0.0,0.0,0.0,0.0,0.0,0.0,0.0,0.0,0.0,0.0,0.0,0.0,0.0,0.0,0.0,0.0,0.0,0.0,0.0,0.0,0.0,0.0,0.0,0.0,0.0,0.0,0.0,0.0,0.0,0.0,0.0,0.0,0.0,0.0,-2.8047,-2.9189,-2.9553,-2.9051,-2.7934,-2.659,0.0,0.0,0.0,0.0,0.0,0.0,0.0,0.0,0.0,0.0,0.0,0.0,0.0,0.0,0.0,0.0,0.0,0.0,0.0,0.0,0.0,0.0,0.0,0.0,0.0,0.0,0.0,0.0,0.0,0.0,0.0,0.0,0.0,0.0,0.0,0.0,0.0,0.0,0.0,0.0,0.0,0.0,0.0,0.0,0.0,0.0,0.0,0.0,0.0,0.0,0.0,0.0,0.0,0.0,0.0,0.0,0.0,0.0,0.0,0.0,0.0,0.0,0.0,0.0,0.0,0.0,0.0,0.0,0.0,0.0,0.0,0.0,0.0,0.0,0.0,0.0,0.0,0.0,0.0,0.0,0.0,0.0,0.0,0.0,0.0,0.0,0.0,0.0,0.0,0.0,0.0,0.0,0.0,0.0,0.0,0.0,0.0,0.0,0.0,0.0,0.0,0.0,0.0,0.0,0.0,0.0,0.0,0.0,0.0,-2.7532,-2.9001,-2.9905,-3.0131,-2.8687,-2.7507,0.0,0.0,0.0,0.0,0.0,0.0,0.0,0.0,0.0,0.0,0.0,0.0,0.0,0.0,0.0,0.0,0.0,0.0,0.0,0.0,0.0,0.0,0.0,0.0,0.0,0.0,0.0,0.0,0.0,0.0,0.0,0.0,0.0,0.0,0.0,0.0,0.0,0.0,0.0,0.0,0.0,0.0,0.0,0.0,0.0,0.0,0.0,0.0,0.0,0.0,0.0,0.0,0.0,0.0,0.0,0.0,0.0,0.0,0.0,0.0,0.0,0.0,0.0,0.0,0.0,0.0,0.0,0.0,0.0,0.0,0.0,0.0,0.0,0.0,0.0,0.0,0.0,0.0,0.0,0.0,0.0,0.0,0.0,0.0,0.0,0.0,0.0,0.0,0.0,0.0,0.0,0.0,0.0,0.0,0.0,0.0,0.0,0.0,0.0,0.0,0.0,0.0,0.0,0.0,0.0,0.0,0.0,0.0,-2.762,-2.8335,-2.9277,-2.9942,-3.0269,-2.9089,-2.7971,0.0,0.0,0.0,0.0,0.0,0.0,0.0,0.0,0.0,0.0,0.0,0.0,0.0,0.0,0.0,0.0,0.0,0.0,0.0,0.0,0.0,0.0,0.0,0.0,0.0,0.0,0.0,0.0,0.0,0.0,0.0,0.0,0.0,0.0,0.0,0.0,0.0,0.0,0.0,0.0,0.0,0.0,0.0,0.0,0.0,0.0,0.0,0.0,0.0,0.0,0.0,0.0,0.0,0.0,0.0,0.0,0.0,0.0,0.0,0.0,0.0,0.0,0.0,0.0,0.0,0.0,0.0,0.0,0.0,0.0,0.0,0.0,0.0,0.0,0.0,0.0,0.0,0.0,0.0,0.0,0.0,0.0,0.0,0.0,0.0,0.0,0.0,0.0,0.0,0.0,0.0,0.0,0.0,0.0,0.0,0.0,0.0,0.0,0.0,0.0,0.0,0.0,0.0,0.0,0.0,0.0,0.0,0.0,-2.8147,-2.9553,-2.9729,-2.9779,-2.9767,-2.9227,-2.8185,0.0,0.0,0.0,0.0,0.0,0.0,0.0,0.0,0.0,0.0,0.0,0.0,0.0,0.0,0.0,0.0,0.0,0.0,0.0,0.0,0.0,0.0,0.0,0.0,0.0,0.0,0.0,0.0,0.0,0.0,0.0,0.0,0.0,0.0,0.0,0.0,0.0,0.0,0.0,0.0,0.0,0.0,0.0,0.0,0.0,0.0,0.0,0.0,0.0,0.0,0.0,0.0,0.0,0.0,0.0,0.0,0.0,0.0,0.0,0.0,0.0,0.0,0.0,0.0,0.0,0.0,0.0,0.0,0.0,0.0,0.0,0.0,0.0,0.0,0.0,0.0,0.0,0.0,0.0,0.0,0.0,0.0,0.0,0.0,0.0,0.0,0.0,0.0,0.0,0.0,0.0,0.0,0.0,0.0,0.0,0.0,0.0,0.0,0.0,0.0,0.0,0.0,0.0,0.0,0.0,0.0,0.0,0.0,-2.8412,-2.8089,-2.9201,-2.9779,-2.9779,-2.9227,-2.836,0.0,0.0,0.0,0.0,0.0,0.0,0.0,0.0,0.0,0.0,0.0,0.0,0.0,0.0,0.0,0.0,0.0,0.0,0.0,0.0,0.0,0.0,0.0,0.0,0.0,0.0,0.0,0.0,0.0,0.0,0.0,0.0,0.0,0.0,0.0,0.0,0.0,0.0,0.0,0.0,0.0,0.0,0.0,0.0,0.0,0.0,0.0,0.0,-2.7883,0.0,0.0,0.0,0.0,0.0,0.0,0.0,0.0,0.0,0.0,0.0,0.0,0.0,0.0,0.0,0.0,0.0,0.0,0.0,0.0,0.0,0.0,0.0,0.0,0.0,0.0,0.0,0.0,0.0,0.0,0.0,0.0,0.0,0.0,0.0,0.0,0.0,0.0,0.0,0.0,0.0,0.0,0.0,0.0,0.0,0.0,0.0,0.0,0.0,0.0,0.0,0.0,0.0,0.0,0.0,0.0,0.0,0.0,0.0,-2.88,-2.8662,-2.9376,-2.9779,-2.9779,-2.9503,-2.8561,0.0,0.0,0.0,0.0,0.0,0.0,0.0,0.0,0.0,0.0,0.0,0.0,0.0,0.0,0.0,0.0,0.0,0.0,0.0,0.0,0.0,0.0,0.0,0.0,0.0,0.0,0.0,0.0,0.0,0.0,0.0,0.0,0.0,0.0,0.0,0.0,0.0,0.0,0.0,0.0,0.0,0.0,0.0,0.0,0.0,0.0,0.0,0.0,0.0,0.0,0.0,0.0,0.0,0.0,0.0,0.0,0.0,0.0,0.0,0.0,0.0,0.0,0.0,0.0,0.0,0.0,0.0,0.0,0.0,0.0,0.0,0.0,0.0,0.0,0.0,0.0,0.0,0.0,0.0,0.0,0.0,0.0,0.0,0.0,0.0,0.0,0.0,0.0,0.0,0.0,0.0,0.0,0.0,0.0,0.0,0.0,0.0,0.0,0.0,0.0,0.0,0.0,0.0,0.0,0.0,0.0,0.0,-2.8208,-2.9126,-2.9754,-2.9779,-2.9779,-2.9779,-2.9779,-2.8737,-2.6622,0.0,0.0,0.0,0.0,0.0,0.0,0.0,0.0,0.0,0.0,0.0,0.0,0.0,0.0,0.0,0.0,0.0,0.0,0.0,0.0,0.0,0.0,0.0,0.0,0.0,0.0,0.0,0.0,0.0,0.0,0.0,0.0,0.0,0.0,0.0,0.0,0.0,0.0,-2.3844,-2.6542,0.0,0.0,0.0,0.0,0.0,0.0,0.0,0.0,-3.0201,0.0,0.0,0.0,0.0,0.0,0.0,0.0,0.0,0.0,0.0,0.0,0.0,0.0,0.0,0.0,0.0,0.0,0.0,0.0,0.0,0.0,0.0,0.0,0.0,0.0,0.0,0.0,0.0,0.0,0.0,0.0,0.0,0.0,0.0,0.0,0.0,0.0,0.0,0.0,0.0,0.0,0.0,0.0,0.0,0.0,0.0,0.0,0.0,0.0,0.0,0.0,0.0,0.0,0.0,0.0,0.0,-2.9176,-2.8604,-2.8737,-2.9754,-2.9779,-2.9779,-2.9779,-2.9779,-2.875,-2.6659,0.0,0.0,0.0,0.0,0.0,0.0,0.0,0.0,0.0,0.0,0.0,0.0,0.0,0.0,0.0,0.0,0.0,0.0,0.0,0.0,0.0,0.0,0.0,0.0,0.0,0.0,0.0,0.0,0.0,0.0,0.0,0.0,0.0,0.0,0.0,0.0,0.0,0.0,0.0,-2.8035,-2.9578,0.0,0.0,0.0,0.0,0.0,0.0,0.0,0.0,-3.094,0.0,0.0,0.0,0.0,0.0,0.0,0.0,0.0,0.0,0.0,0.0,0.0,0.0,0.0,0.0,0.0,0.0,0.0,0.0,0.0,0.0,0.0,0.0,0.0,0.0,0.0,0.0,0.0,0.0,0.0,0.0,0.0,0.0,0.0,0.0,0.0,0.0,0.0,0.0,0.0,0.0,0.0,0.0,0.0,0.0,0.0,0.0,0.0,0.0,0.0,0.0,0.0,0.0,0.0,0.0,-2.6337,-2.8113,-2.9239,-2.9767,-2.9779,-2.9779,-2.9767,-2.895,-2.7846,0.0,0.0,0.0,0.0,0.0,0.0,0.0,0.0,0.0,0.0,0.0,0.0,0.0,0.0,0.0,0.0,0.0,0.0,0.0,0.0,0.0,0.0,0.0,0.0,0.0,0.0,0.0,0.0,0.0,0.0,0.0,0.0,0.0,0.0,0.0,0.0,0.0,0.0,0.0,0.0,-2.8748,-2.9892,-3.0181,0.0,0.0,0.0,0.0,0.0,0.0,-3.1954,-3.2263,0.0,0.0,0.0,0.0,0.0,0.0,0.0,0.0,0.0,0.0,0.0,0.0,0.0,0.0,0.0,0.0,0.0,0.0,0.0,0.0,0.0,0.0,0.0,0.0,0.0,0.0,0.0,0.0,0.0,0.0,0.0,0.0,0.0,0.0,0.0,0.0,0.0,0.0,0.0,0.0,0.0,0.0,0.0,0.0,0.0,0.0,0.0,0.0,0.0,0.0,0.0,0.0,0.0,0.0,0.0,-2.3952,-2.7545,-2.9578,-2.9767,-2.9779,-2.9779,-2.9754,-2.8386,-2.7193,0.0,0.0,0.0,0.0,0.0,0.0,0.0,0.0,0.0,0.0,0.0,0.0,0.0,0.0,0.0,0.0,0.0,0.0,0.0,0.0,0.0,0.0,0.0,0.0,0.0,0.0,0.0,0.0,0.0,0.0,0.0,0.0,0.0,0.0,0.0,0.0,0.0,0.0,0.0,0.0,0.0,-3.0369,-3.0583,-3.116,0.0,0.0,0.0,0.0,-3.2301,-3.3422,0.0,0.0,0.0,0.0,0.0,0.0,0.0,0.0,0.0,0.0,0.0,0.0,0.0,0.0,0.0,0.0,0.0,0.0,0.0,0.0,0.0,0.0,0.0,0.0,0.0,0.0,0.0,0.0,0.0,0.0,0.0,0.0,0.0,0.0,0.0,0.0,0.0,0.0,0.0,0.0,0.0,0.0,0.0,0.0,0.0,0.0,0.0,0.0,0.0,0.0,0.0,0.0,0.0,0.0,0.0,0.0,-2.6115,-2.7548,-2.8787,-2.9729,-2.9779,-2.9779,-2.9779,-2.9114,-2.777,0.0,0.0,0.0,0.0,0.0,0.0,0.0,0.0,0.0,0.0,0.0,0.0,0.0,0.0,0.0,0.0,0.0,0.0,0.0,0.0,0.0,0.0,0.0,0.0,0.0,0.0,0.0,0.0,0.0,0.0,0.0,0.0,0.0,0.0,0.0,0.0,0.0,0.0,0.0,0.0,0.0,-3.1612,-3.0733,-3.1474,-3.1901,0.0,0.0,-3.2653,-3.3881,-3.5036,0.0,0.0,0.0,0.0,0.0,0.0,0.0,0.0,0.0,0.0,0.0,0.0,0.0,0.0,0.0,0.0,0.0,0.0,0.0,0.0,0.0,0.0,0.0,0.0,0.0,0.0,0.0,0.0,0.0,0.0,0.0,0.0,0.0,0.0,0.0,0.0,0.0,0.0,0.0,0.0,0.0,0.0,0.0,0.0,0.0,0.0,0.0,0.0,0.0,0.0,0.0,0.0,0.0,0.0,0.0,-2.4847,-2.646,-2.823,-2.9302,-2.9767,-2.9779,-2.9628,-2.9302,-2.8147,-2.6779,0.0,0.0,0.0,0.0,0.0,0.0,0.0,0.0,0.0,0.0,0.0,0.0,0.0,0.0,0.0,0.0,0.0,0.0,0.0,0.0,0.0,0.0,0.0,0.0,0.0,0.0,0.0,0.0,0.0,0.0,0.0,0.0,0.0,0.0,0.0,0.0,0.0,0.0,0.0,0.0,0.0,0.0,-3.1587,-3.2676,0.0,0.0,0.0,-3.4038,-3.5856,0.0,0.0,0.0,0.0,0.0,0.0,0.0,0.0,0.0,0.0,0.0,0.0,0.0,0.0,0.0,0.0,0.0,0.0,0.0,0.0,0.0,0.0,0.0,0.0,0.0,0.0,0.0,0.0,0.0,0.0,0.0,0.0,0.0,0.0,0.0,0.0,0.0,0.0,0.0,0.0,0.0,0.0,0.0,0.0,0.0,0.0,0.0,0.0,0.0,0.0,0.0,0.0,0.0,0.0,0.0,0.0,0.0,-2.6524,-2.8495,-2.9654,-2.9779,-2.9779,-2.9515,-2.8925,-2.7595,0.0,0.0,0.0,0.0,0.0,0.0,0.0,0.0,0.0,0.0,0.0,0.0,0.0,0.0,0.0,0.0,0.0,0.0,0.0,0.0,0.0,0.0,0.0,0.0,0.0,0.0,0.0,-1.6953,0.0,0.0,0.0,0.0,0.0,0.0,0.0,0.0,0.0,0.0,0.0,0.0,0.0,0.0,-3.2378,-3.2227,-3.3456,-3.4441,0.0,0.0,-3.4938,-3.637,-3.6456,-3.6219,0.0,0.0,0.0,0.0,0.0,0.0,0.0,0.0,0.0,0.0,0.0,0.0,0.0,0.0,0.0,0.0,0.0,0.0,0.0,0.0,0.0,0.0,0.0,0.0,0.0,0.0,0.0,0.0,0.0,0.0,0.0,0.0,0.0,0.0,0.0,0.0,0.0,0.0,0.0,0.0,0.0,0.0,0.0,0.0,0.0,0.0,0.0,0.0,0.0,0.0,0.0,0.0,0.0,0.0,0.0,-2.6458,-2.8104,-2.9239,-2.9754,-2.9779,-2.9515,-2.8938,-2.8323,-2.6741,0.0,0.0,0.0,0.0,0.0,0.0,0.0,0.0,0.0,0.0,0.0,0.0,0.0,0.0,0.0,0.0,0.0,0.0,0.0,0.0,0.0,0.0,0.0,0.0,0.0,0.0,0.0,0.0,0.0,0.0,0.0,0.0,0.0,0.0,0.0,0.0,0.0,0.0,0.0,0.0,0.0,-3.283,-3.229,-3.323,-3.382,0.0,0.0,-3.4416,-3.4519,-3.6086,-3.6709,-3.4921,0.0,0.0,0.0,0.0,0.0,0.0,0.0,0.0,0.0,0.0,0.0,0.0,0.0,0.0,0.0,0.0,0.0,0.0,0.0,0.0,0.0,0.0,0.0,0.0,0.0,0.0,0.0,0.0,0.0,0.0,0.0,0.0,0.0,0.0,0.0,0.0,0.0,0.0,0.0,0.0,0.0,0.0,0.0,0.0,0.0,0.0,0.0,0.0,0.0,0.0,0.0,0.0,0.0,-2.4141,-2.4468,-2.7064,-2.8562,-2.8723,-2.8787,-2.8486,-2.7934,-2.772,-2.6477,0.0,0.0,0.0,0.0,0.0,0.0,0.0,0.0,0.0,0.0,0.0,0.0,0.0,0.0,0.0,0.0,0.0,0.0,0.0,0.0,0.0,0.0,0.0,0.0,0.0,0.0,0.0,0.0,-1.9424,-1.9766,-2.0264,0.0,0.0,0.0,0.0,0.0,0.0,0.0,0.0,0.0,0.0,-3.2153,-3.2682,-3.3594,0.0,0.0,-3.4592,-3.5211,-3.5737,-3.6187,-3.63,-3.5827,-3.5235,0.0,0.0,0.0,0.0,0.0,0.0,0.0,0.0,0.0,0.0,0.0,0.0,0.0,0.0,0.0,0.0,0.0,0.0,0.0,0.0,0.0,0.0,0.0,0.0,0.0,0.0,0.0,0.0,0.0,0.0,0.0,0.0,0.0,0.0,0.0,0.0,0.0,0.0,0.0,0.0,0.0,0.0,0.0,0.0,0.0,0.0,0.0,0.0,0.0,0.0,0.0,0.0,-2.3567,-2.3123,-2.6243,-2.7765,-2.7668,-2.7939,-2.7846,-2.7306,-2.7293,-2.6327,0.0,0.0,0.0,0.0,0.0,0.0,0.0,0.0,0.0,0.0,0.0,0.0,0.0,0.0,0.0,0.0,0.0,0.0,0.0,0.0,0.0,0.0,0.0,0.0,0.0,0.0,0.0,0.0,-2.0381,-2.0576,-2.0576,0.0,0.0,0.0,0.0,0.0,0.0,0.0,0.0,0.0,0.0,-3.162,-3.2228,-3.3344,-3.3991,-3.3723,-3.4033,-3.4637,-3.56,-3.5712,-3.5664,-3.5769,0.0,0.0,0.0,0.0,0.0,0.0,0.0,0.0,0.0,0.0,0.0,0.0,0.0,0.0,0.0,0.0,0.0,0.0,0.0,0.0,0.0,0.0,0.0,0.0,0.0,0.0,0.0,0.0,0.0,0.0,-1.6503,0.0,0.0,0.0,0.0,0.0,0.0,0.0,0.0,0.0,0.0,0.0,0.0,0.0,0.0,0.0,0.0,0.0,0.0,0.0,0.0,0.0,0.0,-2.3109,-2.3123,-2.5884,-2.7083,-2.6627,-2.7592,-2.7821,-2.7293,-2.7281,-2.649,-2.4845,0.0,0.0,0.0,0.0,0.0,0.0,0.0,0.0,0.0,0.0,0.0,0.0,0.0,0.0,0.0,0.0,0.0,0.0,0.0,0.0,0.0,0.0,0.0,0.0,0.0,0.0,-2.0518,-2.0566,-2.0576,0.0,0.0,0.0,0.0,0.0,0.0,0.0,0.0,0.0,0.0,-3.0085,-3.1525,-3.0616,-3.1994,-3.2789,-3.1719,-3.1927,-3.2408,-3.3408,-3.4384,-3.4761,0.0,0.0,0.0,0.0,0.0,0.0,0.0,0.0,0.0,0.0,0.0,0.0,0.0,0.0,0.0,0.0,0.0,0.0,0.0,0.0,0.0,0.0,0.0,0.0,0.0,0.0,0.0,-2.2674,-2.1795,0.0,0.0,0.0,0.0,0.0,0.0,0.0,0.0,0.0,0.0,0.0,-2.0166,-2.0752,0.0,0.0,0.0,0.0,0.0,0.0,0.0,0.0,0.0,0.0,0.0,0.0,-2.3096,-2.3224,-2.5512,-2.6714,-2.6549,-2.6831,-2.6917,-2.6741,-2.6728,-2.6138,-2.4858,0.0,0.0,0.0,0.0,0.0,0.0,0.0,0.0,0.0,0.0,0.0,0.0,0.0,0.0,0.0,0.0,0.0,0.0,0.0,0.0,0.0,0.0,0.0,0.0,0.0,-2.0019,0.0,0.0,0.0,0.0,0.0,0.0,0.0,0.0,0.0,0.0,0.0,-2.6689,-2.7099,-2.9131,-3.0606,-3.0517,-3.1994,-3.2943,0.0,0.0,0.0,0.0,0.0,0.0,0.0,0.0,0.0,0.0,0.0,0.0,0.0,0.0,-3.3144,-3.2989,-3.2009,-3.1289,-3.1702,0.0,0.0,0.0,0.0,0.0,0.0,0.0,0.0,0.0,0.0,0.0,0.0,0.0,0.0,-2.3224,0.0,-2.0671,0.0,0.0,0.0,0.0,0.0,0.0,0.0,0.0,-2.1372,-2.1465,-2.1484,-2.2051,-2.2344,0.0,-2.2697,-2.2574,0.0,0.0,0.0,0.0,0.0,0.0,0.0,0.0,-2.3567,-2.3973,-2.5635,-2.6483,-2.6474,-2.6496,-2.6521,-2.6521,-2.6521,-2.6025,-2.5121,-2.4409,-2.3481,0.0,0.0,0.0,0.0,0.0,0.0,0.0,0.0,0.0,0.0,0.0,0.0,0.0,0.0,0.0,0.0,0.0,0.0,0.0,0.0,0.0,0.0,0.0,-1.9998,0.0,0.0,0.0,0.0,0.0,0.0,0.0,0.0,0.0,-2.4069,-2.5862,-2.6924,-2.6761,-2.8253,-2.9498,-2.988,0.0,0.0,0.0,0.0,0.0,0.0,0.0,-3.4068,-3.3788,-3.4396,-3.4691,-3.4199,-3.3794,-3.3498,-3.3697,0.0,0.0,-3.3199,-3.2267,-3.1539,-3.1913,-3.2044,-3.2147,-3.2523,-3.3304,-3.3793,0.0,0.0,0.0,0.0,0.0,0.0,0.0,0.0,-2.3644,-2.2485,0.0,-2.123,0.0,0.0,0.0,0.0,0.0,0.0,0.0,0.0,-2.2685,-2.3115,-2.3115,-2.3105,-2.3125,-2.3135,-2.4159,-2.4117,-2.313,-2.3077,0.0,0.0,0.0,0.0,0.0,0.0,-2.4442,-2.534,-2.6138,-2.6521,-2.6465,-2.6521,-2.6521,-2.6521,-2.6452,-2.6189,-2.5594,-2.4655,-2.3632,-2.2462,-2.1141,0.0,0.0,0.0,0.0,0.0,0.0,0.0,0.0,0.0,0.0,0.0,0.0,0.0,0.0,0.0,0.0,0.0,0.0,0.0,0.0,-1.7989,0.0,0.0,0.0,0.0,0.0,0.0,0.0,0.0,0.0,0.0,-2.485,-2.6274,-2.6861,-2.6447,0.0,0.0,0.0,0.0,-3.0651,-3.1385,-3.1449,-3.1787,-3.2685,-3.3423,-3.3568,-3.2909,0.0,0.0,-3.3776,-3.3341,-3.3221,-3.3639,-3.3367,-3.3081,-3.3129,-3.2626,-3.2202,-3.2202,-3.2286,-3.2227,-3.2265,-3.2786,-3.2988,-2.4269,0.0,0.0,0.0,0.0,-2.5565,-2.5101,-2.3608,-2.3679,-2.3549,-2.308,-2.1747,0.0,0.0,0.0,0.0,0.0,0.0,-2.2605,-2.2334,-2.2588,-2.2842,-2.3135,-2.3144,-2.3144,-2.3144,-2.3377,-2.3421,-2.3153,-2.3549,-2.3342,-2.2709,0.0,0.0,0.0,0.0,-2.4818,-2.5444,-2.6138,-2.6521,-2.6521,-2.6521,-2.6521,-2.6521,-2.5804,-2.5368,-2.5141,-2.4199,-2.3093,-2.1762,-2.1075,0.0,0.0,0.0,0.0,0.0,0.0,0.0,0.0,0.0,0.0,0.0,0.0,0.0,0.0,0.0,0.0,0.0,0.0,0.0,-1.5896,-1.7672,-1.8946,0.0,0.0,0.0,0.0,0.0,0.0,0.0,0.0,0.0,-2.5839,-2.6535,-2.6861,0.0,0.0,-2.8306,-2.8735,-3.0043,-3.1399,-3.2434,0.0,0.0,0.0,-3.3407,-3.3561,-3.3091,-3.3352,-3.3505,-3.3352,-3.3126,-3.3104,-3.3255,-3.3212,-3.3081,-3.3068,-3.2943,-3.283,-3.283,-3.283,-3.283,-3.2842,-3.298,-3.3031,-2.4458,-2.655,-2.7432,-2.7176,-2.6083,-2.5413,-2.4353,-2.3094,-2.3469,-2.3597,-2.3559,-2.2459,-2.1289,-2.0249,-2.0216,0.0,0.0,0.0,-2.3006,-2.2754,-2.2764,-2.29,-2.3125,-2.3144,-2.3144,-2.3135,-2.3541,-2.3541,-2.3135,-2.4377,-2.4277,-2.2977,0.0,0.0,-2.4657,-2.4971,-2.5385,-2.5807,-2.6264,-2.6521,-2.6452,-2.6094,-2.5734,-2.5358,-2.4696,-2.4409,-2.4409,-2.3441,-2.2498,-2.1628,-2.0844,-1.9858,0.0,0.0,0.0,0.0,0.0,0.0,0.0,0.0,0.0,0.0,0.0,-1.6119,-1.5861,0.0,0.0,0.0,-1.5982,-1.65,-1.6042,-1.7341,0.0,0.0,0.0,0.0,0.0,0.0,0.0,-2.3466,-2.4641,-2.5705,-2.6481,-2.6569,-2.642,-2.6416,-2.6891,-2.7513,-2.825,0.0,-3.0956,-3.2152,-3.2797,-3.3081,-3.3081,-3.3263,-3.3251,-3.2789,-3.2729,-3.2742,-3.2729,-3.2905,-3.3068,-3.3081,-3.3081,-3.3081,-3.3081,-3.3081,-3.3081,-3.3081,-3.3081,-3.3081,-3.3081,-3.3081,-3.3081,-2.4314,-2.64,-2.8387,-2.873,-2.7661,-2.4509,-2.3096,-2.3113,-2.3085,-2.3144,-2.3144,-2.3144,-2.2494,-2.1515,-2.1029,0.0,0.0,-2.2745,-2.312,-2.3135,-2.3105,-2.3105,-2.3144,-2.3105,-2.3086,-2.3086,-2.4074,-2.4053,-2.3114,-2.5103,-2.493,-2.2626,-2.3965,-2.4907,-2.5478,-2.5569,-2.5925,-2.6371,-2.6383,-2.6383,-2.6233,-2.537,-2.4409,-2.3514,-2.3441,-2.3379,-2.3368,-2.2403,-2.1876,-2.1876,-2.0687,-1.9785,-1.9419,0.0,0.0,0.0,0.0,0.0,0.0,0.0,0.0,0.0,0.0,0.0,0.0,0.0,0.0,0.0,-1.4555,0.0,-1.5825,-1.7053,0.0,0.0,0.0,-1.9852,-1.9941,-2.2021,-2.36,-2.391,0.0,0.0,0.0,0.0,-2.5843,-2.6318,-2.5996,-2.6197,-2.741,-2.8588,-2.967,-3.0784,-3.2066,-3.2809,-3.2671,-3.2805,-3.2726,-3.2227,-3.2152,-3.2152,-3.2177,-3.2528,-3.2893,-3.2968,-3.2968,-3.2943,-3.298,-3.293,-3.293,-3.2893,-3.2993,-3.3056,-3.298,-3.3031,-3.3031,-2.3411,-2.3983,-2.4488,-2.5561,-2.6663,-2.422,-2.3057,-2.3104,-2.3105,-2.3144,-2.3144,-2.3144,-2.2921,-2.2716,-2.2524,-2.2629,-2.2842,-2.3055,-2.3066,-2.3115,-2.2812,-2.2832,-2.3125,-2.2812,-2.2666,-2.2656,-2.2903,-2.2735,-2.2187,-2.2752,-2.2879,-2.2684,-2.3001,-2.3638,-2.4554,-2.5685,-2.5958,-2.537,-2.537,-2.4992,-2.4253,-2.3963,-2.3745,-2.3514,-2.2787,-2.2328,-2.2328,-2.1451,-2.0934,-2.0934,-2.0613,-2.0407,-2.0287,-1.9049,0.0,0.0,0.0,0.0,0.0,0.0,0.0,0.0,0.0,-1.6285,-1.5705,0.0,-1.6177,0.0,-1.593,-1.6441,-1.6236,-1.727,0.0,0.0,-1.9063,-1.9728,-1.8416,-2.0202,-2.1887,-2.2654,-2.5237,-2.6957,-2.6702,-2.6068,-2.5746,-2.583,-2.5801,-2.6207,-2.741,-2.7767,-2.8375,-2.9307,-3.0291,-3.0941,-3.0773,-3.1264,-3.175,-3.1612,-3.1587,-3.1587,-3.1587,-3.17,-3.1926,-3.229,-3.2064,-3.1989,-3.234,-3.2102,-3.1825,-3.1851,-3.2466,-3.2943,-3.2528,-3.2754,-3.283,-2.3144,-2.3144,-2.3144,-2.3824,-2.4888,-2.3584,-2.3132,-2.3135,-2.3144,-2.3144,-2.3144,-2.3144,-2.3144,-2.3144,-2.3144,-2.3144,-2.3144,-2.3144,-2.3037,-2.2852,-2.2627,-2.2539,-2.2578,-2.2344,-2.2227,-2.2236,-2.2236,-2.2109,-2.1894,-2.1894,-2.1967,-2.2066,-2.2507,-2.2896,-2.3228,-2.4543,-2.4921,-2.4348,-2.4337,-2.3818,-2.285,-2.285,-2.253,-2.1882,-2.1566,-2.1273,-2.108,-2.0748,-2.0478,-2.0283,-2.0273,-2.037,-2.0589,-1.9046,-1.8283,0.0,0.0,0.0,0.0,0.0,0.0,0.0,0.0,0.0,0.0,0.0,-1.6091,-1.6664,-1.6982,-1.7002,-1.6746,-1.7369,-1.7785,-1.7405,-1.8491,-1.8782,-1.7842,-1.948,-2.1099,-2.2386,-2.5124,-2.6908,-2.6575,-2.6092,-2.5741,-2.5655,-2.5566,-2.5796,-2.6607,-2.7065,-2.7458,-2.7924,-2.8754,-2.9484,-2.9713,-3.0507,-3.1047,-3.1047,-3.1047,-3.106,-3.106,-3.1248,-3.1499,-3.175,-3.1587,-3.1474,-3.1763,-3.1625,-3.1399,-3.1461,-3.1876,-3.2152,-3.1913,-3.2102,-3.2089,-2.3144,-2.3144,-2.3144,-2.3144,-2.3144,-2.3144,-2.3144,-2.3144,-2.3144,-2.3144,-2.3144,-2.3144,-2.3144,-2.3144,-2.3144,-2.3105,-2.3057,-2.3066,-2.2842,-2.2441,-2.2373,-2.2178,-2.1894,-2.1826,-2.1807,-2.1807,-2.1807,-2.1768,-2.1719,-2.1719,-2.1523,-2.1162,-2.1964,-2.2216,-2.1897,-2.2702,-2.3147,-2.3294,-2.3231,-2.2702,-2.1886,-2.1811,-2.1257,-2.0105,-2.0361,-2.0391,-2.0029,-2.0361,-2.042,-2.0107,-2.0078,-2.0293,-2.0635,-1.881,-1.7991,0.0,-1.6818,0.0,0.0,0.0,0.0,0.0,0.0,0.0,0.0,-1.5611,-1.6429,-1.7485,-1.7561,-1.7502,-1.7291,-1.7435,-1.7589,-1.7589,-1.7589,-1.7689,-1.7949,-1.9128,-2.0582,-2.2144,-2.4675,-2.6338,-2.6416,-2.6016,-2.5732,-2.5499,-2.5322,-2.53,-2.5526,-2.6131,-2.6495,-2.6556,-2.7203,-2.7929,-2.8925,-2.9658,-2.9911,-2.9992,-2.9911,-3.0084,-2.9992,-3.0499,-3.0916,-3.1004,-3.1104,-3.1173,-3.1273,-3.1235,-3.1148,-3.111,-3.1148,-3.121,-3.1286,-3.1411,-3.1348,-2.3144,-2.3144,-2.3144,-2.3144,-2.3144,-2.3144,-2.3144,-2.3144,-2.3144,-2.3144,-2.3144,-2.3144,-2.3144,-2.3144,-2.3144,-2.2949,-2.2637,-2.2627,-2.2402,-2.1992,-2.1641,-2.1631,-2.1855,-2.1523,-2.1357,-2.1357,-2.1348,-2.1172,-2.082,-2.082,-2.0771,-2.0693,-2.0918,-2.0946,-2.0867,0.0,0.0,0.0,-2.1527,-2.1088,-2.0857,-2.0867,-2.075,-2.0439,-2.0518,0.0,-2.0449,-2.0518,-2.0693,-2.0967,-2.0986,0.0,0.0,0.0,0.0,0.0,0.0,0.0,0.0,0.0,0.0,0.0,-1.7098,-1.6692,-1.5449,-1.6064,-1.6806,-1.7557,-1.7599,-1.7553,-1.7495,-1.7542,-1.7589,-1.7589,-1.7589,-1.7609,-1.7662,-1.7986,-1.8618,-2.0008,-2.1653,-2.3542,-2.5528,-2.5731,-2.546,-2.4861,-2.4869,-2.4951,-2.4697,-2.4785,-2.4772,-2.4526,-2.5165,-2.5849,-2.6918,-2.7286,-2.7498,-2.7277,-2.7277,-2.7382,-2.7487,-2.8172,-2.8919,-2.9244,-2.9788,-3.0202,-3.0591,-3.0407,-2.9999,-3.0105,-3.0118,-3.0231,-3.067,-3.1097,-3.1135,-2.3144,0.0,-2.3144,-2.3144,0.0,-2.3144,-2.3144,-2.3144,-2.3144,-2.3144,-2.3144,-2.3144,-2.3144,-2.3144,-2.3144,-2.3026,-2.2758,-2.2624,-2.2178,-2.1673,-2.1348,-2.124,-2.123,-2.1006,-2.0898,-2.0898,-2.0908,-2.0781,-2.0576,-2.0576,-2.0576,-2.0576,-2.0576,-2.0576,-2.0576,-2.0576,-2.0857,-2.1298,-2.0867,-2.0576,-2.0576,-2.0576,-2.0459,-2.0264,0.0,0.0,0.0,0.0,0.0,0.0,0.0,0.0,0.0,0.0,0.0,-1.7825,-1.6949,-1.6477,-1.6647,-1.6661,-1.6628,-1.6394,-1.6711,-1.667,-1.6122,-1.6465,-1.6968,-1.7583,-1.7613,-1.7589,-1.7589,-1.7589,-1.7589,-1.7589,-1.7589,-1.7589,-1.7589,-1.7589,-1.8094,-1.9413,-2.0468,-2.2206,-2.5252,-2.5499,-2.511,-2.4549,-2.4429,-2.4365,-2.416,-2.4111,-2.3955,-2.3545,-2.4222,-2.4967,-2.5546,-2.6224,-2.6483,-2.6483,-2.6483,-2.6483,-2.6483,-2.6964,-2.7383,-2.7684,-2.7963,-2.825,-2.8509,-2.8378,-2.8131,-2.8131,-2.8143,-2.8443,-2.9224,-2.9997,-3.047,-2.3144,-2.3144,-2.3144,-2.3144,-2.3144,-2.3144,-2.3008,-2.3027,0.0,0.0,0.0,-2.3144,-2.3144,-2.3144,-2.3066,-2.2928,-2.2869,-2.2448,-2.1885,-2.1252,-2.1133,-2.0918,-2.0576,-2.0576,-2.0576,-2.0576,-2.0576,-2.0576,-2.0576,-2.0576,-2.0576,-2.0576,-2.0576,-2.0576,-2.0576,-2.0576,-2.0576,-2.0576,-2.0576,-2.0576,-2.0576,-2.0576,-2.0391,-2.0029,-2.0459,-2.0596,-2.0361,-2.0774,-2.0953,-2.0775,-1.9842,-1.9844,-2.0829,-1.8257,-1.7041,-1.7699,-1.6595,-1.5825,-1.5825,-1.5825,-1.5852,-1.5905,-1.6139,-1.6388,-1.6682,-1.6773,-1.7034,-1.7555,-1.7589,-1.7589,-1.7589,-1.7589,-1.7589,-1.7589,-1.7589,-1.7589,-1.7589,-1.7589,-1.7969,-1.9037,-1.949,-2.1154,-2.4296,-2.4249,-2.406,-2.4108,-2.3698,-2.3561,-2.3691,-2.3672,-2.3564,-2.333,-2.382,-2.4457,-2.4628,-2.5136,-2.5891,-2.5735,-2.5819,-2.5891,-2.5891,-2.6058,-2.6224,-2.6257,-2.6318,-2.6577,-2.6565,-2.6659,-2.6483,-2.6483,-2.6483,-2.6719,-2.7614,-2.853,-2.9234,-2.3144,-2.3144,-2.3144,-2.3144,-2.3144,-2.3144,-2.293,-2.2637,-2.2892,-2.3135,-2.3144,-2.3144,-2.3144,-2.3038,-2.2764,-2.2383,-2.2056,-2.1592,-2.1143,0.0,-2.0664,-2.0625,-2.0576,-2.0576,-2.0576,-2.0576,-2.0576,-2.0576,-2.0576,-2.0576,-2.0576,-2.0576,-2.0576,-2.0576,-2.0576,-2.0576,-2.0576,-2.0576,-2.0576,-2.0576,-2.0576,-2.0576,-2.0615,-2.0498,-2.0898,-2.0633,-1.9625,-1.9924,-1.9853,-1.9129,-1.8971,-1.9148,-1.9712,-1.8364,-1.713,-1.6204,-1.5927,-1.5825,-1.5825,-1.5825,-1.5939,-1.6186,-1.6246,-1.6413,-1.6734,-1.7123,-1.7502,-1.766,-1.7575,-1.7589,-1.7589,-1.7589,-1.7589,-1.7589,-1.7589,-1.7589,-1.7589,-1.7569,-1.758,-1.7661,-1.7775,-1.9122,-2.145,-2.1227,-2.1277,-2.2557,-2.252,-2.2544,-2.3084,-2.3232,-2.3213,-2.3154,-2.3222,-2.3299,-2.3464,-2.3474,-2.381,-2.356,-2.3724,-2.3887,-2.3897,-2.4467,-2.4957,-2.5041,-2.5714,-2.6224,-2.6318,-2.6483,-2.6318,-2.6235,-2.6224,-2.6389,-2.6625,-2.6964,-2.7637,-2.3144,-2.3144,-2.3144,-2.3134,-2.3014,-2.136,-2.0683,-2.0762,-2.0657,-2.1388,-2.2451,-2.2461,-2.2461,-2.2441,-2.2266,-2.1953,-2.1634,-2.1328,-2.0986,-2.0586,-2.0576,-2.0576,-2.0576,-2.0576,-2.0576,-2.0576,-2.0576,-2.0576,-2.0576,-2.0576,-2.0576,-2.0576,-2.0576,-2.0576,-2.0566,-2.001,-1.9756,-1.9766,-2.0323,-2.0576,-2.0576,-2.0576,-2.0323,-1.9756,-2.008,-1.9816,-1.8929,-1.9196,-1.9309,-1.9142,-1.8526,-1.8617,-1.9431,-1.7695,-1.6386,-1.5825,-1.5825,-1.5825,-1.5825,-1.5825,-1.5885,-1.6019,-1.6032,-1.6049,-1.6223,-1.7082,-1.7606,-1.7653,-1.7576,-1.7644,-1.7562,-1.7589,-1.7589,-1.7589,-1.7589,-1.7589,-1.7569,-1.7435,-1.7295,-1.7257,-1.7837,-1.8405,-1.8888,-1.9503,-1.9389,-1.9528,-2.0235,-2.186,-2.2891,-2.3135,-2.3144,-2.3144,-2.3144,-2.3135,-2.3144,-2.3144,-2.3144,-2.3144,-2.3144,-2.3144,-2.3135,-2.3627,-2.379,-2.3877,-2.4382,-2.4638,-2.4734,-2.4648,-2.4638,-2.4638,-2.4638,-2.4808,-2.5389,-2.6058,-2.6894,-2.3144,-2.3144,-2.3037,-2.2985,-2.2611,-1.9658,-1.8456,-1.8733,-1.8473,-1.9283,-2.0752,-2.1097,-2.1191,-2.1182,-2.1097,-2.0879,-2.0604,-2.0401,-2.0155,-1.9863,-1.9835,-1.9844,-1.9835,-1.9844,-1.9835,-1.9844,-1.9835,-1.9835,-1.9835,-1.9844,-1.9835,-1.9835,-1.9835,-1.9835,-1.9835,-1.9027,-1.863,-1.863,-1.9432,-1.9835,-1.9844,-1.9835,-1.9432,-1.8745,-1.9009,-1.8802,-1.807,-1.8314,-1.8576,-1.8648,-1.777,-1.7751,-1.8535,-1.6834,-1.5825,-1.5825,-1.5825,-1.5825,-1.5825,-1.5825,-1.5825,-1.5825,-1.5825,-1.5817,-1.5835,-1.6596,-1.7227,-1.7211,-1.7463,-1.7599,-1.7546,-1.7555,-1.7589,-1.7589,-1.7589,-1.7589,-1.7562,-1.7328,-1.7114,-1.7143,-1.7768,-1.7707,-1.7088,-1.7968,-1.8388,-1.736,-1.9183,-2.1551,-2.2492,-2.2862,-2.3135,-2.3144,-2.3144,-2.3144,-2.3144,-2.3144,-2.3144,-2.3144,-2.3144,-2.3144,-2.3135,-2.3135,-2.3135,-2.3222,-2.3135,-2.3299,-2.3135,-2.3222,-2.3222,-2.3299,-2.3387,-2.3464,-2.4307,-2.4967,-2.5808,-2.3047,-2.3076,-2.2668,-2.2457,-2.1909,-1.8774,-1.7432,-1.7269,-1.7376,-1.7523,-1.7778,-1.8541,-1.8914,-1.888,-1.8583,-1.8404,-1.8354,-1.7868,-1.77,-1.7747,-1.7585,-1.7577,-1.7738,-1.7658,-1.7585,-1.7658,-1.7747,-1.7836,-1.7819,-1.7738,-1.7658,-1.7577,-1.7577,-1.7666,-1.7658,-1.7496,-1.7496,-1.7504,-1.7585,-1.7577,-1.7577,-1.7585,-1.7577,-1.7513,-1.8087,-1.7943,-1.6888,-1.7394,-1.7282,-1.6285,-1.6103,-1.6021,-1.613,-1.5927,-1.5825,-1.5825,-1.5825,-1.5825,-1.5825,-1.5825,-1.5825,-1.5825,-1.5825,-1.5838,-1.5783,-1.5912,-1.5939,-1.6175,-1.6974,-1.7353,-1.7311,-1.7415,-1.7549,-1.7542,-1.7575,-1.7589,-1.7549,-1.7328,-1.7048,-1.6767,-1.6803,-1.6393,-1.6123,-1.6353,-1.6683,-1.7323,-1.9232,-2.1025,-2.148,-2.2129,-2.2687,-2.2862,-2.3047,-2.3047,-2.3047,-2.3144,-2.3144,-2.3144,-2.3144,-2.3144,-2.3144,-2.3144,-2.3144,-2.3144,-2.3144,-2.3144,-2.3144,-2.3144,-2.3144,-2.3144,-2.3144,-2.3135,-2.3309,-2.356,-2.3973,-2.2489,-2.2957,-2.138,-2.0464,-1.9818,-1.8062,-1.6503,-1.5352,-1.5357,-1.5394,-1.5423,-1.5757,-1.6615,-1.7763,-1.7623,-1.7557,-1.7549,-1.74,-1.7342,-1.7342,-1.7342,-1.7342,-1.7342,-1.7342,-1.7342,-1.735,-1.7742,-1.7742,-1.735,-1.7342,-1.7342,-1.7342,-1.7342,-1.7342,-1.7261,-1.6683,-1.6445,-1.6648,-1.5816,-1.5394,-1.5553,-1.6683,-1.7114,-1.6674,-1.704,-1.6868,-1.6021,-1.6344,-1.6298,-1.5825,-1.5825,-1.5825,-1.5825,-1.5825,-1.5825,-1.5825,-1.5825,-1.5825,-1.5825,-1.5825,-1.5825,-1.5825,-1.5825,-1.5825,-1.5825,-1.5825,-1.5836,-1.5842,-1.6236,-1.658,-1.6874,-1.7154,-1.7328,-1.7348,-1.7475,-1.7582,-1.7582,-1.7161,-1.6827,-1.6693,-1.6299,-1.5979,-1.5858,-1.5825,-1.6386,-1.7404,-1.868,-1.9405,-2.0124,-2.0674,-2.0953,-2.1033,-2.1578,-2.2306,-2.2862,-2.3144,-2.3144,-2.3144,-2.3144,-2.3144,-2.3144,-2.3144,-2.3144,-2.3144,-2.3144,-2.3144,-2.3144,-2.3144,-2.3144,-2.3144,-2.3144,-2.3144,-2.3144,-2.3144,-2.3387,-2.1302,-2.1662,-1.9487,-1.8362,-1.8148,-1.692,-1.556,-1.42,-1.4099,-1.4088,-1.4088,-1.4088,-1.4908,-1.6281,-1.6445,-1.6445,-1.6453,-1.6445,-1.6445,-1.6445,-1.6445,-1.6445,-1.6445,-1.6445,-1.6445,-1.6542,-1.686,-1.6942,-1.6453,-1.6445,-1.6445,-1.6453,-1.6445,-1.6445,-1.6363,-1.5628,-1.5394,-1.5514,-1.4587,-1.4128,-1.445,-1.5769,-1.6286,-1.5784,-1.6082,-1.5965,-1.5483,-1.5678,-1.5825,-1.5825,-1.5825,-1.5825,-1.5825,-1.5825,-1.5825,-1.5825,-1.5825,-1.5825,-1.5825,-1.5825,-1.5825,-1.5825,-1.5825,-1.5825,-1.5825,-1.5825,-1.5825,-1.5852,-1.5807,-1.6058,-1.6553,-1.6854,-1.7021,-1.7048,-1.7228,-1.7341,-1.7295,-1.6874,-1.6587,-1.654,-1.6146,-1.5825,-1.5825,-1.5825,-1.6197,-1.6943,-1.7505,-1.7863,-1.8864,-1.9314,-1.9588,-1.9497,-2.0305,-2.1203,-2.2403,-2.295,-2.3047,-2.3144,-2.3144,-2.3144,-2.3144,-2.3144,-2.3144,-2.3144,-2.3144,-2.3144,-2.3144,-2.3144,-2.3144,-2.3144,-2.3144,-2.3144,-2.3144,-2.3144,-2.3144,-1.9588,-1.9298,-1.7062,-1.6552,-1.7227,-1.5218,-1.426,-1.411,-1.4099,-1.4088,-1.4088,-1.4088,-1.4173,-1.4328,-1.4412,-1.4334,-1.4334,-1.4412,-1.4412,-1.4412,-1.4412,-1.425,-1.4257,-1.425,-1.4334,-1.4496,-1.4671,-1.4594,-1.4419,-1.4334,-1.425,-1.4334,-1.4412,-1.4334,-1.4439,-1.4362,-1.4179,-1.4311,-1.424,-1.4327,-1.4576,-1.4683,-1.4783,-1.4784,-1.5161,-1.5463,-1.5444,-1.5678,-1.5825,-1.5825,-1.5825,-1.5825,-1.5825,-1.5825,-1.5825,-1.5825,-1.5825,-1.5825,-1.5825,-1.573,-1.573,-1.573,-1.5534,-1.5737,-1.577,-1.577,-1.5655,-1.5737,-1.5668,-1.5909,-1.6155,-1.6447,-1.672,-1.6734,-1.6747,-1.6787,-1.6774,-1.6547,-1.6326,-1.6273,-1.6032,-1.5845,-1.5825,-1.5825,-1.5825,-1.6204,-1.6943,-1.7684,-1.777,-1.868,-1.9131,-1.9222,-1.9488,-1.9943,-2.1203,-2.1845,-2.2589,-2.2862,-2.2677,-2.3047,-2.3047,-2.3144,-2.3047,-2.3144,-2.3144,-2.3144,-2.3144,-2.3144,-2.3144,-2.3144,-2.3144,-2.3144,-2.3144,-2.3144,-2.3144,-1.7855,-1.7073,-1.619,-1.5838,-1.5696,-1.4542,-1.4123,-1.4085,-1.4062,-1.4088,-1.4088,-1.4088,-1.4088,-1.4088,-1.4088,-1.4088,-1.4088,-1.4088,-1.4088,-1.4088,-1.4088,-1.4088,-1.4088,-1.4088,-1.4088,-1.4088,-1.4088,-1.4088,-1.4088,-1.4088,-1.4088,-1.4088,-1.4088,-1.4168,-1.4329,-1.4362,-1.4256,-1.4132,-1.4447,-1.4703,-1.4905,-1.499,-1.5077,-1.5084,-1.5284,-1.5484,-1.5671,-1.5778,-1.5825,-1.5825,-1.5825,-1.5825,-1.5825,-1.5825,-1.5825,-1.5825,-1.5825,-1.5825,-1.573,-1.5051,-1.4555,-1.4561,-1.3788,-1.4136,-1.5435,-1.5763,-1.512,-1.3925,-1.4923,-1.5486,-1.5126,-1.5752,-1.6426,-1.6446,-1.6587,-1.668,-1.6653,-1.6453,-1.6273,-1.6233,-1.6012,-1.5832,-1.5825,-1.5825,-1.5825,-1.5832,-1.6204,-1.648,-1.6574,-1.6936,-1.7296,-1.7304,-1.7855,-1.8503,-1.8864,-2.0034,-2.0944,-2.1578,-2.1943,-2.2403,-2.2677,-2.2862,-2.295,-2.3047,-2.3144,-2.3144,-2.3144,-2.3144,-2.3144,-2.3144,-2.3144,-2.3144,-2.3144,-2.3144,-2.3144,-1.6574,-1.5866,-1.5835,-1.5561,-1.5225,-1.4442,-1.4078,-1.4095,-1.4088,-1.4088,-1.4088,-1.4088,-1.4088,-1.4088,-1.4088,-1.4088,-1.4088,-1.4088,-1.4088,-1.4088,-1.4088,-1.4088,-1.4088,-1.4088,-1.4088,-1.4088,-1.4088,-1.4088,-1.4088,-1.4088,-1.4135,-1.4229,-1.4229,-1.4376,-1.4616,-1.4663,-1.4573,-1.4526,-1.4764,-1.5093,-1.5214,-1.5297,-1.5444,-1.5518,-1.5538,-1.5625,-1.5818,-1.5825,-1.5825,-1.5825,-1.5825,-1.5635,-1.5242,-1.4816,-1.4524,-1.4555,-1.4472,-1.4567,-1.4465,-1.3686,-1.3295,-1.3199,-1.2528,-1.2786,-1.4382,-1.4588,-1.3208,-1.1828,-1.2002,-1.2989,-1.3528,-1.4237,-1.5234,-1.5848,-1.6306,-1.642,-1.6413,-1.6253,-1.6139,-1.6092,-1.5952,-1.5845,-1.5825,-1.5825,-1.5825,-1.5825,-1.5825,-1.5825,-1.5825,-1.5825,-1.5825,-1.5825,-1.6574,-1.7037,-1.7311,-1.794,-1.9306,-2.0124,-2.0764,-2.14,-2.2031,-2.2394,-2.2677,-2.295,-2.3047,-2.3047,-2.3047,-2.3047,-2.3144,-2.3144,-2.3144,-2.3144,-2.3144,-2.3144,-2.3144,-1.5832,-1.5853,-1.5832,-1.5722,-1.5493,-1.4502,-1.4108,-1.4095,-1.4088,-1.4088,-1.4088,-1.4088,-1.4088,-1.4088,-1.4088,-1.4088,-1.4088,-1.4088,-1.4088,-1.4088,-1.4088,-1.4088,-1.4088,-1.4088,-1.4088,-1.4088,-1.4088,-1.4088,-1.4088,-1.4122,-1.4255,-1.4462,-1.4509,-1.4676,-1.4963,-1.4963,-1.4977,-1.494,-1.4967,-1.5164,-1.5681,-1.5438,-1.5358,-1.5576,-1.5602,-1.5514,-1.5629,-1.573,-1.5825,-1.5832,-1.573,-1.5146,-1.3861,-1.2624,-1.1935,-1.2216,-1.2042,-1.2042,-1.2047,-1.2042,-1.1848,-1.1848,-1.175,-1.1565,-1.1775,-1.1873,-1.0937,-0.9096,-0.868,-0.9275,-1.1327,-1.2155,-1.3147,-1.5159,-1.5434,-1.5441,-1.5701,-1.5852,-1.5832,-1.5852,-1.5832,-1.5825,-1.5825,-1.5825,-1.5825,-1.5825,-1.5825,-1.5825,-1.5825,-1.5825,-1.5825,-1.5825,-1.6015,-1.6292,-1.6015,-1.6008,-1.7483,-1.8672,-1.9222,-1.9861,-2.0755,-2.1302,-2.1578,-2.1863,-2.2403,-2.2492,-2.2589,-2.2677,-2.3047,-2.3144,-2.3144,-2.3047,-2.3144,-2.3144,-2.3144,-1.5825,-1.5792,-1.5841,-1.5554,-1.5136,-1.4449,-1.4091,-1.4095,-1.4088,-1.4088,-1.4088,-1.4088,-1.4088,-1.4088,-1.4088,-1.4088,-1.4088,-1.4088,-1.4088,-1.3997,-1.4088,-1.4088,-1.4088,-1.4088,-1.4088,-1.4088,-1.4088,-1.4088,-1.4044,-1.4203,-1.4442,-1.4536,-1.473,-1.4977,-1.5153,-1.5271,-1.5344,-1.5445,-1.4697,-1.4747,-1.5604,-1.4823,-1.4386,-1.4447,-1.4459,-1.407,-1.3301,-1.4854,-1.573,-1.573,-1.4949,-1.3878,-1.2404,-1.0457,-1.0162,-1.1628,-1.1945,-1.1945,-1.175,-1.1072,-1.0583,-1.0386,-0.9801,-0.9312,-0.9213,-0.9312,-0.9,-0.8079,-0.8052,-0.8528,-0.9241,-1.0942,-1.2134,-1.3017,-1.3108,-1.3596,-1.4465,-1.5248,-1.573,-1.5825,-1.5825,-1.5825,-1.5825,-1.5825,-1.5825,-1.5825,-1.5825,-1.5825,-1.5825,-1.5825,-1.5825,-1.5825,-1.5825,-1.5825,-1.5825,-1.5825,-1.656,-1.7483,-1.7948,-1.868,-1.9579,-2.0116,-2.0404,-2.0854,-2.1489,-2.1854,-2.1943,-2.2217,-2.2413,-2.2862,-2.2775,-2.2862,-2.3047,-2.296,-2.2775,-1.5772,-1.5631,-1.5755,-1.548,-1.4967,-1.4382,-1.4071,-1.4095,-1.4088,-1.4088,-1.4088,-1.4088,-1.3822,-1.347,-1.347,-1.3209,-1.2869,-1.2778,-1.2778,-1.3039,-1.3828,-1.4088,-1.3997,-1.3555,-1.3382,-1.3299,-1.3028,-1.2793,-1.261,-1.3045,-1.3284,-1.3399,-1.3641,-1.3761,-1.4096,-1.4133,-1.4539,-1.5332,-1.4106,-1.3069,-1.2929,-1.3069,-1.3102,-1.3199,-1.3102,-1.2716,-1.2042,-1.3499,-1.437,-1.4274,-1.3584,-1.2522,-1.1156,-0.9315,-0.8717,-0.9964,-1.0485,-1.0386,-1.0386,-0.9604,-0.9213,-0.9114,-0.8432,-0.8038,-0.8038,-0.8038,-0.8038,-0.8031,-0.8004,-0.7984,-0.8287,-0.9284,-1.0382,-1.0485,-1.1458,-1.2139,-1.3199,-1.4268,-1.4949,-1.5146,-1.5439,-1.573,-1.5825,-1.5825,-1.5825,-1.5825,-1.5825,-1.5825,-1.5825,-1.5825,-1.5825,-1.5825,-1.5825,-1.5825,-1.5825,-1.5825,-1.5825,-1.6197,-1.6662,-1.7584,-1.8488,-1.8764,-1.9047,-1.977,-2.0494,-2.0576,-2.0674,-2.1042,-2.132,-2.1774,-2.1952,-2.1587,-2.132,-2.2041,-2.2129,-1.5681,-1.5409,-1.5574,-1.5357,-1.4904,-1.4341,-1.4108,-1.4088,-1.4088,-1.4088,-1.4088,-1.4088,-1.347,-1.2504,-1.2504,-1.1986,-1.0783,-1.0869,-1.0956,-1.1477,-1.2607,-1.3561,-1.3385,-1.2637,-1.2175,-1.1833,-1.1326,-1.0765,-1.0591,-1.1237,-1.1296,-1.1718,-1.1869,-1.1713,-1.2261,-1.2037,-1.3163,-1.4655,-1.2991,-1.071,-0.8859,-1.0608,-1.175,-1.1853,-1.1848,-1.1653,-1.1361,-1.1556,-1.175,-1.1848,-1.1848,-1.1268,-0.9989,-0.8671,-0.8082,-0.8329,-0.8137,-0.8233,-0.8137,-0.8333,-0.8134,-0.8233,-0.8137,-0.8038,-0.8038,-0.8038,-0.8038,-0.8038,-0.8031,-0.8035,-0.8031,-0.823,-0.8333,-0.8432,-1.0293,-1.1556,-1.1853,-1.3006,-1.3686,-1.398,-1.4854,-1.5743,-1.5648,-1.5642,-1.5845,-1.5825,-1.5825,-1.5825,-1.5825,-1.5825,-1.5825,-1.5825,-1.5825,-1.5825,-1.5825,-1.5825,-1.5825,-1.592,-1.6109,-1.6662,-1.7304,-1.749,-1.7677,-1.8403,-1.9222,-1.9314,-1.9588,-1.9861,-2.0133,-2.0314,-2.0223,-1.9588,-1.9951,-2.0764,-2.1123,-1.5493,-1.5037,-1.4676,-1.4717,-1.4877,-1.4314,-1.4082,-1.4082,-1.4088,-1.3913,-1.4082,-1.4088,-1.33,-1.2334,-1.2242,-1.1638,-1.0697,-1.0524,-1.0611,-1.0697,-1.1133,-1.1483,-1.1521,-1.1308,-1.0873,-1.0508,-1.0663,-1.074,-1.0214,-1.0767,-1.1259,-1.1502,-1.148,-1.1676,-1.1945,-1.175,-1.216,-1.2591,-1.1394,-0.9739,-0.8582,-0.9539,-1.0485,-1.0489,-1.0485,-0.9998,-0.9217,-0.9019,-0.9505,-1.0489,-1.0797,-1.0207,-0.8726,-0.8219,-0.8021,-0.8035,-0.8038,-0.8038,-0.8038,-0.8038,-0.8038,-0.8038,-0.8038,-0.8038,-0.8038,-0.8038,-0.8038,-0.8038,-0.8038,-0.8038,-0.8038,-0.8038,-0.8038,-0.8134,-0.9509,-1.0485,-1.0681,-1.1556,-1.2431,-1.2635,-1.4401,-1.4986,-1.4808,-1.5,-1.551,-1.5553,-1.5635,-1.5635,-1.5534,-1.5825,-1.5825,-1.5825,-1.5825,-1.5825,-1.5825,-1.5825,-1.5825,-1.5825,-1.592,-1.592,-1.6285,-1.6379,-1.6386,-1.6662,-1.7762,-1.8126,-1.8495,-1.8956,-1.9047,-1.8948,-1.9039,-1.8848,-1.9306,-1.9943,-1.9951,-1.5178,-1.475,-1.4269,-1.4269,-1.4382,-1.3168,-1.265,-1.2601,-1.2607,-1.2607,-1.2607,-1.2607,-1.1997,-1.0956,-1.0869,-1.026,-0.9222,-0.9139,-0.9139,-0.9139,-0.9139,-0.9401,-0.9795,-1.0046,-0.9633,-0.9005,-0.9452,-0.9485,-0.9275,-0.9769,-1.0005,-0.9942,-1.0232,-1.0284,-1.0092,-1.0293,-1.0288,-1.0096,-0.9509,-0.8685,-0.8146,-0.8685,-0.9008,-0.9118,-0.9118,-0.8726,-0.8038,-0.8038,-0.8432,-0.9023,-0.9324,-0.9031,-0.8141,-0.8038,-0.8038,-0.8038,-0.8038,-0.8038,-0.8038,-0.8038,-0.8038,-0.8038,-0.8038,-0.8038,-0.8038,-0.8038,-0.8038,-0.8038,-0.8038,-0.8038,-0.8038,-0.8038,-0.8038,-0.8137,-0.8726,-0.9118,-0.9217,-1.0288,-1.097,-1.1585,-1.271,-1.394,-1.3119,-1.3744,-1.4027,-1.419,-1.4561,-1.4752,-1.4949,-1.5439,-1.573,-1.5629,-1.573,-1.573,-1.573,-1.5825,-1.5825,-1.5825,-1.5825,-1.5825,-1.5825,-1.5825,-1.5825,-1.6109,-1.6574,-1.7037,-1.7397,-1.7584,-1.739,-1.7475,-1.7933,-1.8025,-1.8118,-1.8672,-1.868,-1.4603,-1.4102,-1.413,-1.4077,-1.3677,-1.1412,-1.0253,-1.023,-1.0692,-1.0783,-1.0788,-1.0697,-1.0269,-0.889,-0.9323,-0.8364,-0.7228,-0.7489,-0.7312,-0.7401,-0.7489,-0.7841,-0.8648,-0.8857,-0.8555,-0.7955,-0.7746,-0.808,-0.8252,-0.8209,-0.8127,-0.8312,-0.8326,-0.8134,-0.8432,-0.8237,-0.8038,-0.8333,-0.8333,-0.823,-0.8018,-0.8131,-0.8233,-0.8233,-0.8233,-0.8237,-0.8038,-0.8038,-0.8038,-0.8038,-0.8038,-0.8137,-0.8038,-0.8038,-0.8038,-0.8038,-0.8038,-0.8038,-0.8038,-0.8038,-0.8038,-0.8038,-0.8038,-0.8038,-0.8038,-0.8038,-0.8038,-0.8038,-0.8038,-0.8038,-0.8038,-0.8038,-0.8038,-0.8038,-0.8038,-0.8038,-0.8233,-0.9118,-0.9801,-0.9801,-1.0877,-1.1365,-1.1653,-1.1648,-1.1643,-1.2926,-1.3301,-1.3494,-1.3788,-1.4076,-1.4663,-1.5242,-1.5343,-1.554,-1.5635,-1.5825,-1.5825,-1.5825,-1.5825,-1.5825,-1.5825,-1.5825,-1.5825,-1.6015,-1.6292,-1.6292,-1.6292,-1.6197,-1.6197,-1.619,-1.6835,-1.6466,-1.6103,-1.7023,-1.749,-1.3176,-1.1559,-1.3397,-1.4064,-1.3404,-0.9665,-0.7865,-0.806,-0.9789,-1.0351,-1.0524,-1.0524,-0.9836,-0.889,-0.8715,-0.8277,-0.7228,-0.7139,-0.7139,-0.7139,-0.7139,-0.7228,-0.7642,-0.7854,-0.783,-0.7655,-0.7868,-0.8001,-0.8035,-0.8038,-0.8038,-0.8038,-0.8038,-0.8038,-0.8038,-0.8038,-0.8038,-0.8038,-0.8038,-0.8038,-0.8038,-0.8038,-0.8038,-0.8038,-0.8038,-0.8038,-0.8038,-0.8038,-0.8038,-0.8038,-0.8038,-0.8038,-0.8038,-0.8038,-0.8038,-0.8038,-0.8038,-0.8038,-0.8038,-0.8038,-0.8038,-0.8038,-0.8038,-0.8038,-0.8038,-0.8038,-0.8038,-0.8038,-0.8038,-0.8038,-0.8038,-0.8038,-0.8038,-0.8038,-0.8038,-0.8038,-0.8038,-0.8237,-0.8528,-0.8627,-0.8821,-0.9213,-1.019,-0.9465,-1.0053,-1.1448,-1.2042,-1.2237,-1.2528,-1.2721,-1.3499,-1.4274,-1.4268,-1.437,-1.4854,-1.5146,-1.5534,-1.573,-1.5825,-1.5825,-1.5825,-1.5825,-1.5825,-1.5825,-1.5825,-1.5825,-1.5825,-1.5825,-1.6008,-1.5825,-1.5825,-1.5825,-1.592,-1.6292,-1.648,-1.2769,-1.0616,-1.0799,-1.1473,-1.1793,-0.8649,-0.7125,-0.7323,-0.8329,-0.8965,-0.8965,-0.8965,-0.8619,-0.8101,-0.8013,-0.7665,-0.7228,-0.7139,-0.7139,-0.7139,-0.7139,-0.7139,-0.7207,-0.7428,-0.7604,-0.7645,-0.7896,-0.8024,-0.8038,-0.8038,-0.8038,-0.8038,-0.8038,-0.8038,-0.8038,-0.8038,-0.8038,-0.8038,-0.8038,-0.8038,-0.8038,-0.8038,-0.8038,-0.8038,-0.8038,-0.8038,-0.8038,-0.8038,-0.8038,-0.8038,-0.8038,-0.8038,-0.8038,-0.8038,-0.8038,-0.8038,-0.8038,-0.8038,-0.8038,-0.8038,-0.8038,-0.8038,-0.8038,-0.8038,-0.8038,-0.8038,-0.8038,-0.8038,-0.8038,-0.8038,-0.8038,-0.8038,-0.8038,-0.8038,-0.8038,-0.8038,-0.8038,-0.8038,-0.8038,-0.8038,-0.8137,-0.8432,-0.8513,-0.8294,-0.8393,-0.9797,-1.0779,-1.1068,-1.1361,-1.1653,-1.2339,-1.2818,-1.2915,-1.3199,-1.3686,-1.4268,-1.5045,-1.5439,-1.5825,-1.5825,-1.5825,-1.5825,-1.5825,-1.5825,-1.5825,-1.5825,-1.5825,-1.5825,-1.5825,-1.5825,-1.5825,-1.5825,-1.5825,-1.6109,-1.6109,-1.1869,-0.9908,-0.7903,-0.8297,-0.9547,-0.7986,-0.7102,-0.7132,-0.7139,-0.7401,-0.7139,-0.7139,-0.7401,-0.7139,-0.7228,-0.7139,-0.7139,-0.7139,-0.7139,-0.7139,-0.7139,-0.7139,-0.7207,-0.7394,-0.757,-0.7631,-0.7899,-0.8028,-0.8038,-0.8038,-0.8038,-0.8038,-0.8038,-0.8038,-0.8038,-0.8038,-0.8038,-0.8038,-0.8038,-0.8038,-0.8038,-0.8038,-0.8038,-0.8038,-0.8038,-0.8038,-0.8038,-0.8038,-0.8038,-0.8038,-0.8038,-0.8038,-0.8038,-0.8038,-0.8038,-0.8038,-0.8038,-0.8038,-0.8038,-0.8038,-0.8038,-0.8038,-0.8038,-0.8038,-0.8038,-0.8038,-0.8038,-0.8038,-0.8038,-0.8038,-0.8038,-0.8038,-0.8038,-0.8038,-0.8038,-0.8038,-0.8038,-0.8038,-0.8038,-0.8038,-0.8038,-0.8233,-0.8233,-0.8024,-0.8035,-0.8134,-0.9118,-0.9801,-1.0096,-1.0391,-1.0974,-1.1458,-1.1648,-1.2139,-1.2721,-1.3108,-1.3884,-1.4752,-1.5337,-1.5534,-1.5629,-1.5825,-1.5825,-1.5825,-1.5825,-1.5825,-1.5825,-1.5825,-1.5825,-1.5825,-1.5825,-1.5825,-1.5825,-1.5825,-1.5825,-0.8028,-0.7661,-0.7298,-0.7394,-0.7584,-0.7221,-0.7132,-0.7139,-0.7139,-0.7139,-0.7139,-0.7139,-0.7139,-0.7139,-0.7139,-0.7139,-0.7139,-0.7139,-0.7139,-0.7139,-0.7139,-0.7139,-0.7183,-0.7363,-0.7492,-0.7651,-0.7889,-0.8035,-0.8038,-0.8038,-0.8038,-0.8038,-0.8038,-0.8038,-0.8038,-0.8038,-0.8038,-0.8038,-0.8038,-0.8038,-0.8038,-0.8038,-0.8038,-0.8038,-0.8038,-0.8038,-0.8038,-0.8038,-0.8038,-0.8038,-0.8038,-0.8038,-0.8038,-0.8038,-0.8038,-0.8038,-0.8038,-0.8038,-0.8038,-0.8038,-0.8038,-0.8038,-0.8038,-0.8038,-0.8038,-0.8038,-0.8038,-0.8038,-0.8038,-0.8038,-0.8038,-0.8038,-0.8038,-0.8038,-0.8038,-0.8038,-0.8038,-0.8038,-0.8038,-0.8038,-0.8038,-0.8038,-0.8038,-0.8038,-0.8038,-0.8038,-0.8432,-0.8821,-0.892,-0.9019,-0.9213,-0.9801,-1.0288,-1.1068,-1.1853,-1.2145,-1.2624,-1.359,-1.4268,-1.4854,-1.5051,-1.5635,-1.5825,-1.5825,-1.5825,-1.5825,-1.5825,-1.5825,-1.5825,-1.5825,-1.5825,-1.5825,-1.5825,-1.5825,-1.5825,-0.7139,-0.7139,-0.7139,-0.7139,-0.7139,-0.7139,-0.7139,-0.7139,-0.7139,-0.7139,-0.7139,-0.7139,-0.7139,-0.7139,-0.7139,-0.7139,-0.7139,-0.7139,-0.7139,-0.7139,-0.7139,-0.7139,-0.718,-0.7373,-0.7509,-0.7665,-0.7885,-0.8035,-0.8038,-0.8038,-0.8038,-0.8038,-0.8038,-0.8038,-0.8038,-0.8038,-0.8038,-0.8038,-0.8038,-0.8038,-0.8038,-0.8038,-0.8038,-0.8038,-0.8038,-0.8038,-0.8038,-0.8038,-0.8038,-0.8038,-0.8038,-0.8038,-0.8038,-0.8038,-0.8038,-0.8038,-0.8038,-0.8038,-0.8038,-0.8038,-0.8038,-0.8038,-0.8038,-0.8038,-0.8038,-0.8038,-0.8038,-0.8038,-0.8038,-0.8038,-0.8038,-0.8038,-0.8038,-0.8038,-0.8038,-0.8038,-0.8038,-0.8038,-0.8038,-0.8038,-0.8038,-0.8038,-0.8038,-0.8038,-0.8038,-0.8038,-0.8038,-0.8038,-0.8038,-0.8137,-0.8333,-0.8627,-0.9312,-0.9899,-1.0583,-1.0877,-1.1365,-1.2334,-1.3204,-1.3788,-1.4268,-1.4752,-1.5343,-1.573,-1.573,-1.5534,-1.5825,-1.5825,-1.5825,-1.5825,-1.5825,-1.5825,-1.5825,-1.5825,-1.5825,-0.7139,-0.7139,-0.7139,-0.7139,-0.7139,-0.7139,-0.7139,-0.7139,-0.7139,-0.7139,-0.7139,-0.7139,-0.7139,-0.7139,-0.7139,-0.7139,-0.7139,-0.7139,-0.7139,-0.7139,-0.7143,-0.7146,-0.7261,-0.7404,-0.7577,-0.7695,-0.7845,-0.8011,-0.8038,-0.8038,-0.8038,-0.8038,-0.8038,-0.8038,-0.8038,-0.8038,-0.8038,-0.8038,-0.8038,-0.8038,-0.8038,-0.8038,-0.8038,-0.8038,-0.8038,-0.8038,-0.8038,-0.8038,-0.8038,-0.8038,-0.8038,-0.8038,-0.8038,-0.8038,-0.8038,-0.8038,-0.8038,-0.8038,-0.8038,-0.8038,-0.8041,-0.7949,-0.8045,-0.8041,-0.8045,-0.8045,-0.8038,-0.8038,-0.8038,-0.8038,-0.8038,-0.8038,-0.8038,-0.8038,-0.8038,-0.8038,-0.8038,-0.8038,-0.8038,-0.8038,-0.8038,-0.8038,-0.8038,-0.8038,-0.8038,-0.8038,-0.8038,-0.8038,-0.8038,-0.8038,-0.8137,-0.8038,-0.8333,-0.8726,-0.9217,-0.9509,-1.0194,-1.1263,-1.2042,-1.2721,-1.3301,-1.3782,-1.4364,-1.4949,-1.514,-1.5045,-1.5432,-1.5825,-1.5825,-1.5825,-1.5825,-1.5825,-1.5825,-1.5825,-1.5825,-0.7139,-0.7139,-0.7139,-0.7139,-0.7139,-0.7139,-0.7139,-0.7139,-0.7139,-0.7139,-0.7139,-0.7139,-0.7139,-0.7139,-0.7139,-0.7139,-0.7139,-0.7139,-0.7139,-0.7139,-0.716,-0.7224,-0.7326,-0.7363,-0.7594,-0.7743,-0.7834,-0.7919,-0.8011,-0.8041,-0.8038,-0.8038,-0.8038,-0.8038,-0.8038,-0.8038,-0.8038,-0.8038,-0.8038,-0.8038,-0.8038,-0.8038,-0.8038,-0.8038,-0.8041,-0.8038,-0.8041,-0.8041,-0.8041,-0.8038,-0.8038,-0.8038,-0.8038,-0.8038,-0.8038,-0.8038,-0.8038,-0.8038,-0.8038,-0.8038,-0.8045,-0.7955,-0.7952,-0.7955,-0.7955,-0.7949,-0.8038,-0.8038,-0.8038,-0.8038,-0.8038,-0.8038,-0.8038,-0.8038,-0.8038,-0.8038,-0.8038,-0.8038,-0.8038,-0.8038,-0.8038,-0.8038,-0.8038,-0.8038,-0.8038,-0.8038,-0.8038,-0.8038,-0.8038,-0.8038,-0.8038,-0.8038,-0.8038,-0.8333,-0.8432,-0.8627,-0.9118,-1.0096,-1.0681,-1.1556,-1.2425,-1.2909,-1.3102,-1.359,-1.3974,-1.4848,-1.5534,-1.5825,-1.5825,-1.5825,-1.5825,-1.5825,-1.5825,-1.5825,-1.5825,-0.7139,-0.7139,-0.7139,-0.7139,-0.7139,-0.7139,-0.7139,-0.7139,-0.7139,-0.7139,-0.7139,-0.7139,-0.7139,-0.7143,-0.7139,-0.7139,-0.7139,-0.7143,-0.7143,-0.7177,-0.7227,-0.7305,-0.74,-0.755,-0.7647,-0.7511,-0.7821,-0.8007,-0.7955,-0.7949,-0.8038,-0.8041,-0.8038,-0.8038,-0.8041,-0.8038,-0.8038,-0.8038,-0.8038,-0.8038,-0.8038,-0.8038,-0.8038,-0.8038,-0.7952,-0.7949,-0.7842,-0.7952,-0.7949,-0.8041,-0.8038,-0.8038,-0.8038,-0.8038,-0.8038,-0.8038,-0.8038,-0.8038,-0.8038,-0.8038,-0.7949,-0.7952,-0.7949,-0.7945,-0.7952,-0.7945,-0.8038,-0.8038,-0.8038,-0.8038,-0.8038,-0.8038,-0.8038,-0.8038,-0.8038,-0.8038,-0.8038,-0.8038,-0.8038,-0.8038,-0.8038,-0.8038,-0.8038,-0.8038,-0.8038,-0.8038,-0.8038,-0.8038,-0.8038,-0.8038,-0.8038,-0.8038,-0.8038,-0.8038,-0.8137,-0.8233,-0.8333,-0.892,-0.9019,-0.9993,-1.1458,-1.2042,-1.2134,-1.3006,-1.4076,-1.4854,-1.5534,-1.5825,-1.5825,-1.5825,-1.5825,-1.5825,-1.5825,-1.5825,-1.5825,-0.7139,-0.7139,-0.7139,-0.7139,-0.7139,-0.7139,-0.7139,-0.7139,-0.7139,-0.7143,-0.7149,-0.7153,-0.7153,-0.7156,-0.7156,-0.7071,-0.7156,-0.7153,-0.7094,-0.7151,-0.7232,-0.7332,-0.7466,-0.7657,-0.7262,-0.6801,-0.649,-0.6639,-0.6742,-0.6942,-0.7033,-0.7952,-0.7959,-0.7955,-0.7952,-0.7955,-0.7959,-0.7959,-0.7955,-0.7955,-0.7955,-0.7952,-0.7952,-0.7959,-0.7965,-0.7662,-0.7138,-0.7862,-0.7965,-0.7959,-0.7955,-0.7959,-0.7955,-0.7955,-0.7955,-0.7959,-0.7959,-0.7955,-0.7955,-0.7955,-0.7952,-0.7952,-0.7949,-0.7952,-0.8041,-0.8038,-0.8045,-0.7949,-0.7952,-0.7952,-0.7949,-0.7949,-0.7945,-0.8045,-0.8038,-0.8038,-0.8038,-0.8038,-0.8038,-0.8038,-0.8038,-0.8038,-0.8038,-0.8038,-0.8038,-0.8038,-0.8038,-0.8038,-0.8038,-0.8038,-0.8038,-0.8038,-0.8038,-0.8038,-0.8038,-0.8038,-0.8038,-0.8038,-0.8137,-0.8627,-1.0092,-1.0779,-1.097,-1.2134,-1.3494,-1.3686,-1.3692,-1.4758,-1.5825,-1.5825,-1.5825,-1.5825,-1.5825,-1.5825,-1.5825,-0.7139,-0.7139,-0.7139,-0.7143,-0.7139,-0.7139,-0.7139,-0.7143,-0.7143,-0.6976,-0.6716,-0.7091,-0.7091,-0.6821,-0.6453,-0.6456,-0.7005,-0.7098,-0.6805,-0.6794,-0.706,-0.6913,-0.7053,-0.7058,-0.6738,-0.5096,-0.4524,-0.4321,-0.4522,-0.5031,-0.6042,-0.7575,-0.726,-0.7675,-0.7672,-0.726,-0.7363,-0.7363,-0.7363,-0.7466,-0.7569,-0.7569,-0.7672,-0.7775,-0.7679,-0.6959,-0.472,-0.6142,-0.7369,-0.7363,-0.7363,-0.7363,-0.7256,-0.7359,-0.726,-0.726,-0.7359,-0.7466,-0.7775,-0.7563,-0.7872,-0.7975,-0.7975,-0.7962,-0.7952,-0.8045,-0.7952,-0.7862,-0.7556,-0.7556,-0.7659,-0.7969,-0.7955,-0.7945,-0.8038,-0.8038,-0.8038,-0.8038,-0.8038,-0.8038,-0.8038,-0.8038,-0.8038,-0.8038,-0.8038,-0.8038,-0.8038,-0.8038,-0.8038,-0.8038,-0.8038,-0.8038,-0.8038,-0.8038,-0.8038,-0.8038,-0.8038,-0.8233,-0.8432,-0.8432,-0.8821,-0.9312,-0.9801,-1.0485,-1.1551,-1.1653,-1.2145,-1.3499,-1.4663,-1.5439,-1.5825,-1.5825,-1.5825,-1.5825,-1.5825,-0.7149,-0.7071,-0.7071,-0.7153,-0.7139,-0.7139,-0.7149,-0.7071,-0.7071,-0.6169,-0.5186,-0.6278,-0.6281,-0.4921,-0.3301,-0.3659,-0.475,-0.4901,-0.4945,-0.4926,-0.5011,-0.5017,-0.5601,-0.6566,-0.7347,-0.5546,-0.3525,-0.272,-0.4038,-0.3731,-0.4342,-0.5354,-0.5543,-0.5534,-0.5534,-0.5539,-0.5536,-0.5536,-0.5534,-0.5534,-0.5534,-0.5534,-0.5534,-0.5534,-0.7594,-0.6461,-0.4422,-0.3215,-0.4123,-0.5131,-0.5436,-0.5536,-0.5539,-0.5536,-0.5536,-0.5639,-0.5639,-0.6561,-0.7284,-0.6762,-0.6245,-0.7882,-0.7985,-0.7975,-0.7865,-0.7972,-0.7975,-0.7569,-0.6337,-0.5729,-0.6437,-0.7344,-0.8045,-0.8041,-0.8038,-0.8041,-0.8041,-0.8041,-0.8038,-0.8038,-0.8038,-0.8038,-0.8038,-0.8038,-0.8038,-0.8038,-0.8038,-0.8038,-0.8038,-0.8038,-0.8038,-0.8038,-0.8038,-0.8038,-0.8038,-0.8038,-0.8038,-0.8233,-0.8528,-0.8528,-0.8428,-0.8333,-0.8825,-0.9316,-0.9899,-1.0681,-1.1556,-1.2624,-1.3788,-1.4949,-1.5534,-1.5825,-1.5825,-1.5825,-1.5825,-0.7074,-0.7091,-0.7088,-0.7081,-0.7068,-0.7068,-0.7074,-0.6996,-0.6269,-0.573,-0.4654,-0.5112,-0.421,-0.2323,-0.1072,-0.0893,-0.2242,-0.2537,-0.2482,-0.2525,-0.2481,-0.2535,-0.3264,-0.4,-0.4642,-0.0,-0.0,-0.1212,-0.2425,-0.273,-0.2729,-0.2725,-0.282,-0.2816,-0.2815,-0.0,-0.0,-0.2815,-0.2815,-0.2814,-0.2815,-0.2815,-0.2815,-0.2917,-0.434,-0.4239,-0.2618,-0.151,-0.1409,-0.2314,-0.2816,-0.2816,-0.2815,-0.2815,-0.0,-0.0,-0.3823,-0.5148,-0.6377,-0.5044,-0.382,-0.463,-0.625,-0.6859,-0.7682,-0.7785,-0.7578,-0.4933,-0.3714,-0.361,-0.5227,-0.7366,-0.7969,-0.7969,-0.7955,-0.7955,-0.7952,-0.7949,-0.8041,-0.8038,-0.8038,-0.8038,-0.8038,-0.8038,-0.8038,-0.8038,-0.8038,-0.8038,-0.8038,-0.8038,-0.8038,-0.8038,-0.8038,-0.8038,-0.8038,-0.8038,-0.8038,-0.8038,-0.8333,-0.8528,-0.8432,-0.8137,-0.8137,-0.8726,-0.941,-1.0096,-1.0779,-1.1458,-1.3011,-1.4663,-1.5146,-1.5629,-1.5825,-1.5825,-1.5825,-0.7009,-0.7101,-0.7101,-0.7012,-0.6643,-0.7009,-0.6917,-0.6739,-0.4652,-0.4567,-0.5307,-0.2515,-0.0,-0.0,-0.0,-0.0,-0.0,-0.0,-0.0,-0.0,-0.0,-0.0,-0.0,-0.0,-0.0,-0.0,-0.0,-0.0,-0.0,-0.0,-0.0,-0.0,-0.0,-0.0,-0.0,-0.0,-0.0,-0.0,-0.0,-0.0,-0.0,-0.0,-0.0,-0.0,-0.0,-0.0,-0.0,-0.0,-0.0,-0.0,-0.0,-0.0,-0.0,-0.0,-0.0,-0.0,-0.0,-0.4863,-0.7018,-0.2723,-0.0,-0.0,-0.332,-0.4732,-0.6865,-0.7175,-0.5648,-0.0,-0.0,-0.0,-0.5354,-0.7607,-0.7481,-0.7369,-0.7256,-0.7662,-0.7656,-0.7959,-0.7952,-0.7945,-0.8041,-0.8038,-0.8038,-0.8038,-0.8038,-0.8038,-0.8038,-0.8038,-0.8038,-0.8038,-0.8038,-0.8038,-0.8038,-0.8038,-0.8038,-0.8038,-0.8038,-0.8038,-0.8038,-0.8233,-0.8333,-0.8137,-0.8137,-0.8432,-0.8726,-0.9114,-0.9604,-1.0096,-1.1648,-1.3199,-1.4854,-1.5439,-1.5635,-1.5825,-1.5825,-0.5738,-0.7121,-0.7125,-0.5305,-0.269,-0.241,-0.4022,-0.6028,-0.323,-0.0,-0.2066,-0.0359,-0.0,-0.0,-0.0,-0.0,-0.0,-0.0,-0.0,-0.0,-0.0,-0.0,-0.0,-0.0,-0.0,-0.0,-0.0,-0.0,-0.0,-0.0,-0.0,-0.0,-0.0,-0.0,-0.0,-0.0,-0.0,-0.0,-0.0,-0.0,-0.0,-0.0,-0.0,-0.0,-0.0,-0.0,-0.0,-0.0,-0.0,-0.0,-0.0,-0.0,-0.0,-0.0,-0.0,-0.0,-0.0,-0.1516,-0.2427,-0.0,-0.0,-0.0,-0.0,-0.0,-0.0,-0.0,-0.1311,-0.0,-0.0,-0.0,-0.2214,-0.4429,-0.4926,-0.5129,-0.5427,-0.6548,-0.7056,-0.7662,-0.7965,-0.7959,-0.7952,-0.8041,-0.8038,-0.8038,-0.8038,-0.8038,-0.8038,-0.8038,-0.8038,-0.8038,-0.8038,-0.8038,-0.8038,-0.8038,-0.8038,-0.8038,-0.8038,-0.8038,-0.8038,-0.8038,-0.8038,-0.8038,-0.8038,-0.8233,-0.8134,-0.8134,-0.8722,-0.941,-1.0092,-1.1453,-1.3102,-1.4657,-1.5146,-1.5439,-1.5825,-0.3226,-0.4768,-0.6415,-0.4322,-0.0,-0.0,-0.1879,-0.3864,-0.0,-0.0,-0.0,-0.0,-0.0,-0.0,-0.0,-0.0,-0.0,-0.0,-0.0,-0.0,-0.0,-0.0,-0.0,-0.0,-0.0,-0.0,-0.0,-0.0,-0.0,-0.0,-0.0,-0.0,-0.0,-0.0,-0.0,-0.0,-0.0,-0.0,-0.0,-0.0,-0.0,-0.0,-0.0,-0.0,-0.0,-0.0,-0.0,-0.0,-0.0,-0.0,-0.0,-0.0,-0.0,-0.0,-0.0,-0.0,-0.0,-0.0,-0.0,-0.0,-0.0,-0.0,-0.0,-0.0,-0.0,-0.0,-0.0,-0.0,-0.0,-0.0,-0.0,-0.0,-0.0,-0.0,-0.0,-0.0,-0.4728,-0.5231,-0.7054,-0.715,-0.7962,-0.7952,-0.8038,-0.8038,-0.8038,-0.8038,-0.8038,-0.8038,-0.8038,-0.8038,-0.8038,-0.8038,-0.8038,-0.8038,-0.8038,-0.8038,-0.8038,-0.8038,-0.8038,-0.8038,-0.8038,-0.8038,-0.8038,-0.8038,-0.8038,-0.8038,-0.8233,-0.8726,-0.941,-1.019,-1.1361,-1.2818,-1.4178,-1.4854,-1.5337,-0.0,-0.0,-0.4968,-0.4148,-0.0,-0.0,-0.0,-0.0,-0.0,-0.0,-0.0,-0.0,-0.0,-0.0,-0.0,-0.0,-0.0,-0.0,-0.0,-0.0,-0.0,-0.0,-0.0,-0.0,-0.0,-0.0,-0.0,-0.0,-0.0,-0.0,-0.0,-0.0,-0.0,-0.0,-0.0,-0.0,-0.0,-0.0,-0.0,-0.0,-0.0,-0.0,-0.0,-0.0,-0.0,-0.0,-0.0,-0.0,-0.0,-0.0,-0.0,-0.0,-0.0,-0.0,-0.0,-0.0,-0.0,-0.0,-0.0,-0.0,-0.0,-0.0,-0.0,-0.0,-0.0,-0.0,-0.0,-0.0,-0.0,-0.0,-0.0,-0.0,-0.0,-0.0,-0.0,-0.0,-0.0,-0.2513,-0.4931,-0.6245,-0.7566,-0.7965,-0.7949,-0.8045,-0.7945,-0.8038,-0.8038,-0.8038,-0.8038,-0.8038,-0.8038,-0.8038,-0.8038,-0.8038,-0.8038,-0.8038,-0.8038,-0.8038,-0.8038,-0.8038,-0.8038,-0.8038,-0.8038,-0.8038,-0.8038,-0.8038,-0.8137,-0.8333,-0.8627,-0.941,-1.0092,-1.1648,-1.3301,-1.398,-1.4459,-0.0,-0.0,-0.1529,-0.1259,-0.0,-0.0,-0.0,-0.0,-0.0,-0.0,-0.0,-0.0,-0.0,-0.0,-0.0,-0.0,-0.0,-0.0,-0.0,-0.0,-0.0,-0.0,-0.0,-0.0,-0.0,-0.0,-0.0,-0.0,-0.0,-0.0,-0.0,-0.0,-0.0,-0.0,-0.0,-0.0,-0.0,-0.0,-0.0,-0.0,-0.0,-0.0,-0.0,-0.0,-0.0,-0.0,-0.0,-0.0,-0.0,-0.0,-0.0,-0.0,-0.0,-0.0,-0.0,-0.0,-0.0,-0.0,-0.0,-0.0,-0.0,-0.0,-0.0,-0.0,-0.0,-0.0,-0.0,-0.0,-0.0,-0.0,-0.0,-0.0,-0.0,-0.0,-0.0,-0.0,-0.0,-0.0,-0.0,-0.4427,-0.5741,-0.6853,-0.7042,-0.7959,-0.7959,-0.7945,-0.8038,-0.8038,-0.8038,-0.8038,-0.8038,-0.8038,-0.8038,-0.8038,-0.8038,-0.8038,-0.8038,-0.8038,-0.8038,-0.8038,-0.8038,-0.8038,-0.8038,-0.8038,-0.8038,-0.8038,-0.8038,-0.8137,-0.8333,-0.8233,-0.8821,-1.0672,-1.2129,-1.2813,-1.3686,-0.0,-0.0,-0.0,-0.0,-0.0,-0.0,-0.0,-0.0,-0.0,-0.0,-0.0,-0.0,-0.0,-0.0,-0.0,-0.0,-0.0,-0.0,-0.0,-0.0,-0.0,-0.0,-0.0,-0.0,-0.0,-0.0,-0.0,-0.0,-0.0,-0.0,-0.0,-0.0,-0.0,-0.0,-0.0,-0.0,-0.0,-0.0,-0.0,-0.0,-0.0,-0.0,-0.0,-0.0,-0.0,-0.0,-0.0,-0.0,-0.0,-0.0,-0.0,-0.0,-0.0,-0.0,-0.0,-0.0,-0.0,-0.0,-0.0,-0.0,-0.0,-0.0,-0.0,-0.0,-0.0,-0.0,-0.0,-0.0,-0.0,-0.0,-0.0,-0.0,-0.0,-0.0,-0.0,-0.0,-0.0,-0.0,-0.0,-0.0,-0.3521,-0.483,-0.5939,-0.7056,-0.7972,-0.7959,-0.7949,-0.8038,-0.8038,-0.8038,-0.8038,-0.8038,-0.8038,-0.8038,-0.8038,-0.8038,-0.8038,-0.8038,-0.8038,-0.8038,-0.8038,-0.8038,-0.8038,-0.8038,-0.8038,-0.8038,-0.8038,-0.8038,-0.8038,-0.8038,-0.8137,-0.9406,-1.0774,-1.1361,-1.2425,-0.0,-0.0,-0.0,-0.0,-0.0,-0.0,-0.0,-0.0,-0.0,-0.0,-0.0,-0.0,-0.0,-0.0,-0.0,-0.0,-0.0,-0.0,-0.0,-0.0,-0.0,-0.0,-0.0,-0.0,-0.0,-0.0,-0.0,-0.0,-0.0,-0.0,-0.0,-0.0,-0.0,-0.0,-0.0,-0.0,-0.0,-0.0,-0.0,-0.0,-0.0,-0.0,-0.0,-0.0,-0.0,-0.0,-0.0,-0.0,-0.0,-0.0,-0.0,-0.0,-0.0,-0.0,-0.0,-0.0,-0.0,-0.0,-0.0,-0.0,-0.0,-0.0,-0.0,-0.0,-0.0,-0.0,-0.0,-0.0,-0.0,-0.0,-0.0,-0.0,-0.0,-0.0,-0.0,-0.0,-0.0,-0.0,-0.0,-0.0,-0.0,-0.0,-0.3718,-0.4824,-0.7156,-0.7559,-0.7955,-0.8041,-0.8038,-0.8038,-0.8038,-0.8038,-0.8038,-0.8038,-0.8038,-0.8038,-0.8038,-0.8038,-0.8038,-0.8038,-0.8038,-0.8038,-0.8038,-0.8038,-0.8038,-0.8038,-0.8038,-0.8038,-0.8038,-0.8038,-0.8233,-0.8627,-0.9312,-0.9998,-1.1165,-0.0,-0.0,-0.0,-0.0,-0.0,-0.0,-0.0,-0.0,-0.0,-0.0,-0.0,-0.0,-0.0,-0.0,-0.0,-0.0,-0.0,-0.0,-0.0,-0.0,-0.0,-0.0,-0.0,-0.0,-0.0,-0.0,-0.0,-0.0,-0.0,-0.0,-0.0,-0.0,-0.0,-0.0,-0.0,-0.0,-0.0,-0.0,-0.0,-0.0,-0.0,-0.0,-0.0,-0.0,-0.0,-0.0,-0.0,-0.0,-0.0,-0.0,-0.0,-0.0,-0.0,-0.0,-0.0,-0.0,-0.0,-0.0,-0.0,-0.0,-0.0,-0.0,-0.0,-0.0,-0.0,-0.0,-0.0,-0.0,-0.0,-0.0,-0.0,-0.0,-0.0,-0.0,-0.0,-0.0,-0.0,-0.0,-0.0,-0.0,-0.0,-0.0,-0.0,-0.3214,-0.5632,-0.6942,-0.7743,-0.8038,-0.8041,-0.8041,-0.8038,-0.8038,-0.8038,-0.8038,-0.8038,-0.8038,-0.8038,-0.8038,-0.8038,-0.8038,-0.8038,-0.8038,-0.8038,-0.8038,-0.8038,-0.8038,-0.8038,-0.8038,-0.8038,-0.8038,-0.8038,-0.8333,-0.8333,-0.8821,-1.0096,-0.0,-0.0,-0.0,-0.0,-0.0,-0.0,-0.0,-0.0,-0.0,-0.0,-0.0,-0.0,-0.0,-0.0,-0.0,-0.0,-0.0,-0.0,-0.0,-0.0,0.2047,-0.0,0.1739,0.1779,-0.0,-0.0,-0.0,-0.0,-0.0,-0.0,-0.0,-0.0,-0.0,-0.0,-0.0,-0.0,-0.0,-0.0,-0.0,-0.0,-0.0,-0.0,-0.0,-0.0,-0.0,-0.0,-0.0,-0.0,-0.0,-0.0,-0.0,-0.0,-0.0,-0.0,-0.0,-0.0,-0.0,-0.0,-0.0,-0.0,-0.0,-0.0,-0.0,-0.0,-0.0,-0.0,-0.0,-0.0,-0.0,-0.0,-0.0,-0.0,-0.0,-0.0,-0.0,-0.0,-0.0,-0.0,-0.0,-0.0,-0.0,-0.0,-0.0,-0.1006,-0.3621,-0.7275,-0.7872,-0.7952,-0.7952,-0.7949,-0.8041,-0.8038,-0.8038,-0.8038,-0.8038,-0.8038,-0.8038,-0.8038,-0.8038,-0.8038,-0.8038,-0.8038,-0.8038,-0.8038,-0.8038,-0.8038,-0.8038,-0.8038,-0.8038,-0.8038,-0.8038,-0.8038,-0.8038,-0.8038,-0.892,-0.0,-0.0,-0.0,-0.0,-0.0,-0.0,-0.0,-0.0,-0.0,-0.0,-0.0,-0.0,0.0539,-0.0,-0.0,-0.0,0.1345,0.3497,0.5484,0.6096,0.505,0.4641,0.4436,0.4536,0.4497,0.4526,0.4425,0.3318,-0.0,-0.0,-0.0,-0.0,0.0504,-0.0,0.0404,-0.0,-0.0,-0.0,-0.0,-0.0,-0.0,-0.0,-0.0,-0.0,-0.0,-0.0,-0.0,-0.0,-0.0,-0.0,-0.0,-0.0,-0.0,-0.0,-0.0,-0.0,-0.0,-0.0,-0.0,-0.0,-0.0,-0.0,-0.0,-0.0,-0.0,-0.0,-0.0,-0.0,-0.0,-0.0,-0.0,-0.0,-0.0,-0.0,-0.0,-0.0,-0.0,-0.0,-0.0,-0.0,-0.0,-0.0,-0.0,-0.0,-0.0,-0.0,-0.7488,-0.7779,-0.7865,-0.7959,-0.7952,-0.8045,-0.8038,-0.8038,-0.8038,-0.8038,-0.8038,-0.8038,-0.8038,-0.8038,-0.8038,-0.8038,-0.8038,-0.8038,-0.8038,-0.8038,-0.8038,-0.8038,-0.8038,-0.8038,-0.8038,-0.8038,-0.8038,-0.8038,-0.8038,-0.0,-0.0,-0.0,-0.0,-0.0,0.403,0.5746,0.5382,0.3666,0.2948,0.2949,0.3129,0.376,0.5584,-0.0,0.2949,0.3132,0.4837,0.5741,0.6511,0.6464,0.6838,0.6852,0.6426,0.7036,0.6959,0.6753,0.6759,0.483,0.3718,0.3214,0.3217,0.3217,0.3116,0.2914,-0.0,-0.0,0.1107,0.3025,0.3937,0.1009,-0.0,-0.0,-0.0,-0.0,-0.0,-0.0,-0.0,-0.0,-0.0,-0.0,-0.0,-0.0,-0.0,-0.0,-0.0,-0.0,-0.0,-0.0,-0.0,-0.0,-0.0,-0.0,-0.0,-0.0,-0.0,-0.0,-0.0,-0.0,-0.0,-0.0,-0.0,-0.0,-0.0,-0.0,-0.0,-0.0,-0.0,-0.0,-0.0,-0.0,-0.0,-0.0,-0.0,-0.0,-0.0,-0.0,-0.4824,-0.6548,-0.715,-0.7856,-0.7952,-0.8041,-0.8038,-0.8038,-0.8038,-0.8038,-0.8038,-0.8038,-0.8038,-0.8038,-0.8038,-0.8038,-0.8038,-0.8038,-0.8038,-0.8038,-0.8038,-0.8038,-0.8038,-0.8038,-0.8038,-0.8038,-0.8038,-0.8038]},{"header":{"parameterUnit":"m.s-1","parameterCategory":1,"la1":31.0,"la2":29.5877,"lo1":-88.7671,"lo2":-86.6584,"dy":0.0162,"dx":0.0185,"nx":115,"ny":88,"refTime":"2024-09-10T06:00:00:Z","depth":0,"parameterNumber":3,"parameterNumberName":"V-component_of_WINDS"},"data":[0.0,0.0,0.0,0.0,0.0,0.0,0.0,0.0,0.0,0.0,0.0,0.0,0.0,0.0,0.0,0.0,0.0,0.0,0.0,0.0,0.0,0.0,0.0,0.0,0.0,0.0,0.0,0.0,0.0,0.0,0.0,0.0,0.0,0.0,0.0,0.0,0.0,0.0,0.0,0.0,0.0,0.0,0.0,0.0,0.0,0.0,0.0,0.0,0.0,0.0,0.0,0.0,0.0,0.0,0.0,0.0,0.0,0.0,0.0,0.0,0.0,0.0,0.0,0.0,0.0,0.0,0.0,0.0,0.0,0.0,0.0,0.0,0.0,0.0,0.0,0.0,0.0,0.0,0.0,0.0,0.0,0.0,0.0,0.0,0.0,0.0,0.0,0.0,0.0,0.0,0.0,0.0,0.0,0.0,0.0,0.0,0.0,0.0,0.0,0.0,0.0,0.0,0.0,0.0,0.0,0.0,0.0,0.0,0.0,0.0,0.0,0.0,0.0,0.0,0.0,0.0,0.0,0.0,0.0,0.0,0.0,0.0,0.0,0.0,0.0,0.0,0.0,0.0,0.0,0.0,0.0,0.0,0.0,0.0,0.0,0.0,0.0,0.0,0.0,0.0,0.0,0.0,0.0,0.0,0.0,0.0,0.0,0.0,0.0,0.0,0.0,0.0,0.0,0.0,0.0,0.0,0.0,0.0,0.0,0.0,0.0,0.0,0.0,0.0,0.0,0.0,0.0,0.0,0.0,0.0,0.0,0.0,0.0,0.0,0.0,0.0,0.0,0.0,0.0,0.0,0.0,0.0,0.0,0.0,0.0,0.0,0.0,0.0,0.0,0.0,0.0,0.0,0.0,0.0,0.0,0.0,0.0,0.0,0.0,0.0,0.0,0.0,0.0,0.0,0.0,0.0,0.0,0.0,0.0,0.0,0.0,0.0,0.0,0.0,0.0,0.0,0.0,0.0,0.0,0.0,0.0,0.0,0.0,0.0,0.0,0.0,0.0,0.0,0.0,0.0,0.0,0.0,0.0,0.0,0.0,0.0,0.0,0.0,0.0,0.0,0.0,0.0,0.0,0.0,0.0,0.0,0.0,0.0,0.0,0.0,0.0,0.0,0.0,0.0,0.0,0.0,0.0,0.0,0.0,0.0,0.0,0.0,0.0,0.0,0.0,0.0,0.0,0.0,0.0,0.0,0.0,0.0,0.0,0.0,0.0,0.0,0.0,0.0,0.0,0.0,0.0,0.0,0.0,0.0,0.0,0.0,0.0,0.0,0.0,0.0,0.0,0.0,0.0,0.0,0.0,0.0,0.0,0.0,0.0,0.0,0.0,0.0,0.0,0.0,0.0,0.0,0.0,0.0,0.0,0.0,0.0,0.0,0.0,0.0,0.0,0.0,0.0,0.0,0.0,0.0,0.0,0.0,0.0,0.0,0.0,0.0,0.0,0.0,0.0,0.0,0.0,0.0,0.0,0.0,0.0,0.0,0.0,0.0,0.0,0.0,0.0,0.0,0.0,0.0,0.0,0.0,0.0,0.0,0.0,0.0,0.0,0.0,0.0,0.0,0.0,0.0,0.0,0.0,0.0,0.0,0.0,0.0,0.0,0.0,0.0,0.0,0.0,0.0,0.0,0.0,0.0,0.0,0.0,0.0,0.0,0.0,0.0,0.0,0.0,0.0,0.0,0.0,0.0,0.0,0.0,0.0,0.0,0.0,0.0,0.0,0.0,0.0,0.0,0.0,0.0,0.0,0.0,0.0,0.0,0.0,0.0,0.0,0.0,0.0,0.0,0.0,0.0,0.0,0.0,0.0,0.0,0.0,0.0,0.0,0.0,0.0,0.0,0.0,0.0,0.0,0.0,0.0,0.0,0.0,0.0,0.0,0.0,0.0,0.0,0.0,0.0,0.0,0.0,0.0,0.0,0.0,0.0,0.0,0.0,0.0,0.0,0.0,0.0,0.0,0.0,0.0,0.0,0.0,0.0,0.0,0.0,0.0,0.0,0.0,0.0,0.0,0.0,0.0,0.0,0.0,0.0,0.0,0.0,0.0,0.0,0.0,0.0,0.0,0.0,0.0,0.0,0.0,0.0,0.0,0.0,0.0,0.0,0.0,0.0,0.0,0.0,0.0,0.0,0.0,0.0,0.0,0.0,0.0,0.0,0.0,0.0,0.0,0.0,0.0,0.0,0.0,0.0,0.0,0.0,0.0,0.0,0.0,0.0,0.0,0.0,0.0,0.0,0.0,0.0,0.0,0.0,0.0,0.0,0.0,0.0,0.0,0.0,0.0,0.0,0.0,0.0,0.0,0.0,0.0,0.0,0.0,0.0,0.0,0.0,0.0,0.0,0.0,0.0,0.0,0.0,0.0,0.0,0.0,0.0,0.0,0.0,0.0,0.0,0.0,0.0,0.0,0.0,0.0,0.0,0.0,0.0,0.0,0.0,0.0,0.0,0.0,0.0,0.0,0.0,0.0,0.0,0.0,0.0,0.0,0.0,0.0,0.0,0.0,0.0,0.0,0.0,0.0,0.0,0.0,0.0,0.0,0.0,0.0,0.0,0.0,0.0,0.0,0.0,0.0,0.0,0.0,0.0,0.0,0.0,0.0,0.0,0.0,0.0,0.0,0.0,0.0,0.0,0.0,0.0,0.0,0.0,0.0,0.0,0.0,0.0,0.0,0.0,0.0,0.0,0.0,0.0,0.0,0.0,0.0,0.0,0.0,0.0,0.0,0.0,0.0,0.0,0.0,0.0,0.0,0.0,0.0,0.0,0.0,0.0,0.0,0.0,0.0,0.0,0.0,0.0,0.0,0.0,0.0,0.0,0.0,0.0,0.0,0.0,0.0,0.0,0.0,0.0,0.0,0.0,0.0,0.0,0.0,0.0,0.0,0.0,0.0,0.0,0.0,0.0,0.0,0.0,0.0,0.0,0.0,0.0,0.0,0.0,0.0,0.0,0.0,0.0,0.0,0.0,0.0,0.0,0.0,0.0,0.0,0.0,0.0,0.0,0.0,0.0,0.0,0.0,0.0,0.0,0.0,0.0,0.0,0.0,0.0,0.0,0.0,0.0,0.0,0.0,0.0,0.0,0.0,0.0,0.0,0.0,0.0,0.0,0.0,0.0,0.0,0.0,0.0,0.0,0.0,0.0,0.0,0.0,0.0,0.0,0.0,0.0,0.0,0.0,0.0,0.0,0.0,0.0,0.0,0.0,0.0,0.0,0.0,0.0,0.0,0.0,0.0,0.0,0.0,0.0,0.0,0.0,0.0,0.0,0.0,0.0,0.0,0.0,0.0,0.0,0.0,0.0,0.0,0.0,0.0,0.0,0.0,0.0,0.0,0.0,0.0,0.0,0.0,0.0,0.0,0.0,0.0,0.0,0.0,0.0,0.0,0.0,0.0,0.0,0.0,0.0,0.0,0.0,0.0,0.0,0.0,0.0,0.0,0.0,0.0,0.0,0.0,0.0,0.0,0.0,0.0,0.0,0.0,0.0,0.0,0.0,0.0,0.0,0.0,0.0,0.0,0.0,0.0,0.0,0.0,0.0,0.0,0.0,0.0,0.0,0.0,0.0,0.0,0.0,0.0,0.0,0.0,0.0,0.0,0.0,0.0,0.0,0.0,0.0,0.0,0.0,0.0,0.0,0.0,0.0,0.0,0.0,0.0,0.0,0.0,0.0,0.0,0.0,0.0,0.0,0.0,0.0,0.0,0.0,0.0,0.0,0.0,0.0,0.0,0.0,0.0,0.0,0.0,0.0,0.0,0.0,0.0,0.0,0.0,0.0,0.0,0.0,0.0,0.0,0.0,0.0,0.0,0.0,0.0,0.0,0.0,0.0,0.0,0.0,0.0,0.0,0.0,0.0,0.0,0.0,0.0,0.0,0.0,0.0,0.0,0.0,0.0,0.0,0.0,0.0,0.0,0.0,0.0,0.0,0.0,0.0,0.0,0.0,0.0,0.0,0.0,0.0,0.0,0.0,0.0,0.0,0.0,0.0,0.0,0.0,0.0,0.0,0.0,0.0,0.0,0.0,0.0,0.0,0.0,0.0,0.0,0.0,0.0,0.0,0.0,0.0,0.0,0.0,0.0,0.0,0.0,0.0,0.0,0.0,0.0,0.0,0.0,0.0,0.0,0.0,0.0,0.0,0.0,0.0,0.0,0.0,0.0,0.0,0.0,0.0,0.0,0.0,0.0,0.0,0.0,0.0,0.0,0.0,0.0,0.0,0.0,0.0,0.0,0.0,0.0,0.0,0.0,0.0,0.0,-2.9639,0.0,0.0,0.0,0.0,0.0,0.0,0.0,0.0,0.0,0.0,0.0,0.0,0.0,0.0,0.0,0.0,0.0,0.0,0.0,0.0,0.0,0.0,0.0,0.0,0.0,0.0,0.0,0.0,0.0,0.0,0.0,0.0,0.0,0.0,0.0,0.0,0.0,0.0,0.0,0.0,0.0,0.0,0.0,0.0,0.0,0.0,0.0,0.0,0.0,0.0,0.0,0.0,0.0,0.0,0.0,0.0,0.0,0.0,0.0,0.0,0.0,0.0,0.0,0.0,0.0,0.0,0.0,0.0,0.0,0.0,0.0,0.0,0.0,0.0,0.0,0.0,0.0,0.0,0.0,0.0,0.0,0.0,0.0,0.0,0.0,0.0,0.0,0.0,0.0,0.0,0.0,0.0,0.0,0.0,0.0,0.0,0.0,0.0,0.0,0.0,0.0,0.0,0.0,0.0,0.0,0.0,0.0,0.0,0.0,0.0,-3.2053,-3.2023,-3.2043,-3.13,-2.9654,0.0,0.0,0.0,0.0,0.0,0.0,0.0,0.0,0.0,0.0,0.0,0.0,0.0,0.0,0.0,0.0,0.0,0.0,0.0,0.0,0.0,0.0,0.0,0.0,0.0,0.0,0.0,0.0,0.0,0.0,0.0,0.0,0.0,0.0,0.0,0.0,0.0,0.0,0.0,0.0,0.0,0.0,0.0,0.0,0.0,0.0,0.0,0.0,0.0,0.0,0.0,0.0,0.0,0.0,0.0,0.0,0.0,0.0,0.0,0.0,0.0,0.0,0.0,0.0,0.0,0.0,0.0,0.0,0.0,0.0,0.0,0.0,0.0,0.0,0.0,0.0,0.0,0.0,0.0,0.0,0.0,0.0,0.0,0.0,0.0,0.0,0.0,0.0,0.0,0.0,0.0,0.0,0.0,0.0,0.0,0.0,0.0,0.0,0.0,0.0,0.0,0.0,0.0,0.0,0.0,0.0,0.0,0.0,0.0,0.0,0.0,0.0,-3.2482,-3.1884,-3.0088,0.0,0.0,0.0,0.0,0.0,0.0,0.0,0.0,0.0,0.0,0.0,0.0,0.0,0.0,0.0,0.0,0.0,0.0,0.0,0.0,0.0,0.0,0.0,0.0,0.0,0.0,0.0,0.0,0.0,0.0,0.0,0.0,0.0,0.0,0.0,0.0,0.0,0.0,0.0,0.0,0.0,0.0,0.0,0.0,0.0,0.0,0.0,0.0,0.0,0.0,0.0,0.0,0.0,0.0,0.0,0.0,0.0,0.0,0.0,0.0,0.0,0.0,0.0,0.0,0.0,0.0,0.0,0.0,0.0,0.0,0.0,0.0,0.0,0.0,0.0,0.0,0.0,0.0,0.0,0.0,0.0,0.0,0.0,0.0,0.0,0.0,0.0,0.0,0.0,0.0,0.0,0.0,0.0,0.0,0.0,0.0,0.0,0.0,0.0,0.0,0.0,0.0,0.0,0.0,0.0,0.0,0.0,0.0,0.0,0.0,-3.1549,-3.326,-3.3365,0.0,-3.1435,0.0,0.0,0.0,0.0,0.0,0.0,0.0,0.0,0.0,0.0,0.0,0.0,0.0,0.0,0.0,0.0,0.0,0.0,0.0,0.0,0.0,0.0,0.0,0.0,0.0,0.0,0.0,0.0,0.0,0.0,0.0,0.0,0.0,0.0,0.0,0.0,0.0,0.0,0.0,0.0,0.0,0.0,0.0,0.0,0.0,0.0,0.0,0.0,0.0,0.0,0.0,0.0,0.0,0.0,0.0,0.0,0.0,0.0,0.0,0.0,0.0,0.0,0.0,0.0,0.0,0.0,0.0,0.0,0.0,0.0,0.0,0.0,0.0,0.0,0.0,0.0,0.0,0.0,0.0,0.0,0.0,0.0,0.0,0.0,0.0,0.0,0.0,0.0,0.0,0.0,0.0,0.0,0.0,0.0,0.0,0.0,0.0,0.0,0.0,0.0,0.0,0.0,0.0,0.0,0.0,0.0,0.0,0.0,0.0,0.0,-3.3059,-3.3469,-3.2736,-3.1898,0.0,0.0,0.0,0.0,0.0,0.0,0.0,0.0,0.0,0.0,0.0,0.0,0.0,0.0,0.0,0.0,0.0,0.0,0.0,0.0,0.0,0.0,0.0,0.0,0.0,0.0,0.0,0.0,0.0,0.0,0.0,0.0,0.0,0.0,0.0,0.0,0.0,0.0,0.0,0.0,0.0,0.0,0.0,0.0,0.0,0.0,0.0,0.0,0.0,0.0,0.0,0.0,0.0,0.0,0.0,0.0,0.0,0.0,0.0,0.0,0.0,0.0,0.0,0.0,0.0,0.0,0.0,0.0,0.0,0.0,0.0,0.0,0.0,0.0,0.0,0.0,0.0,0.0,0.0,0.0,0.0,0.0,0.0,0.0,0.0,0.0,0.0,0.0,0.0,0.0,0.0,0.0,0.0,0.0,0.0,0.0,0.0,0.0,0.0,0.0,0.0,0.0,0.0,0.0,0.0,0.0,0.0,0.0,0.0,0.0,-3.3434,-3.3969,-3.404,-3.314,-3.1958,-3.0552,0.0,0.0,0.0,0.0,0.0,0.0,0.0,0.0,0.0,0.0,0.0,0.0,0.0,0.0,0.0,0.0,0.0,0.0,0.0,0.0,0.0,0.0,0.0,0.0,0.0,0.0,0.0,0.0,0.0,0.0,0.0,0.0,0.0,0.0,0.0,0.0,0.0,0.0,0.0,0.0,0.0,0.0,0.0,0.0,0.0,0.0,0.0,0.0,0.0,0.0,0.0,0.0,0.0,0.0,0.0,0.0,0.0,0.0,0.0,0.0,0.0,0.0,0.0,0.0,0.0,0.0,0.0,0.0,0.0,0.0,0.0,0.0,0.0,0.0,0.0,0.0,0.0,0.0,0.0,0.0,0.0,0.0,0.0,0.0,0.0,0.0,0.0,0.0,0.0,0.0,0.0,0.0,0.0,0.0,0.0,0.0,0.0,0.0,0.0,0.0,0.0,0.0,0.0,0.0,0.0,0.0,0.0,0.0,0.0,-3.3459,-3.3484,-3.5325,-3.5355,-3.3799,0.0,0.0,0.0,0.0,0.0,0.0,0.0,0.0,0.0,0.0,0.0,0.0,0.0,0.0,0.0,0.0,0.0,0.0,0.0,0.0,0.0,0.0,0.0,0.0,0.0,0.0,0.0,0.0,0.0,0.0,0.0,0.0,0.0,0.0,0.0,0.0,0.0,0.0,0.0,0.0,0.0,0.0,0.0,0.0,0.0,0.0,0.0,0.0,0.0,0.0,0.0,0.0,0.0,0.0,0.0,0.0,0.0,0.0,0.0,0.0,0.0,0.0,0.0,0.0,0.0,0.0,0.0,0.0,0.0,0.0,0.0,0.0,0.0,0.0,0.0,0.0,0.0,0.0,0.0,0.0,0.0,0.0,0.0,0.0,0.0,0.0,0.0,0.0,0.0,0.0,0.0,0.0,0.0,0.0,0.0,0.0,0.0,0.0,0.0,0.0,0.0,0.0,0.0,0.0,0.0,0.0,0.0,0.0,0.0,-3.2217,-3.2816,-3.4098,-3.5968,-3.4083,-3.2183,0.0,0.0,0.0,0.0,0.0,0.0,0.0,0.0,0.0,0.0,0.0,0.0,0.0,0.0,0.0,0.0,0.0,0.0,0.0,0.0,0.0,0.0,0.0,0.0,0.0,0.0,0.0,0.0,0.0,0.0,0.0,0.0,0.0,0.0,0.0,0.0,0.0,0.0,0.0,0.0,0.0,0.0,0.0,0.0,0.0,0.0,0.0,0.0,0.0,0.0,0.0,0.0,0.0,0.0,0.0,0.0,0.0,0.0,0.0,0.0,0.0,0.0,0.0,0.0,0.0,0.0,0.0,0.0,0.0,0.0,0.0,0.0,0.0,0.0,0.0,0.0,0.0,0.0,0.0,0.0,0.0,0.0,0.0,0.0,0.0,0.0,0.0,0.0,0.0,0.0,0.0,0.0,0.0,0.0,0.0,0.0,0.0,0.0,0.0,0.0,0.0,0.0,0.0,0.0,0.0,0.0,0.0,0.0,0.0,-3.1496,0.0,-3.4696,0.0,-3.3455,-3.1345,0.0,0.0,0.0,0.0,0.0,0.0,0.0,0.0,0.0,0.0,0.0,0.0,0.0,0.0,0.0,0.0,0.0,0.0,0.0,0.0,0.0,0.0,0.0,0.0,0.0,0.0,0.0,0.0,0.0,0.0,0.0,0.0,0.0,0.0,0.0,0.0,0.0,0.0,0.0,0.0,0.0,0.0,0.0,0.0,0.0,0.0,0.0,0.0,0.0,0.0,0.0,0.0,0.0,0.0,0.0,0.0,0.0,0.0,0.0,0.0,0.0,0.0,0.0,0.0,0.0,0.0,0.0,0.0,0.0,0.0,0.0,0.0,0.0,0.0,0.0,0.0,0.0,0.0,0.0,0.0,0.0,0.0,0.0,0.0,0.0,0.0,0.0,0.0,0.0,0.0,0.0,0.0,0.0,0.0,0.0,0.0,0.0,0.0,0.0,0.0,0.0,0.0,0.0,0.0,0.0,0.0,0.0,0.0,-3.1353,-3.3321,-3.4681,-3.51,-3.4502,-3.3784,-3.1614,0.0,0.0,0.0,0.0,0.0,0.0,0.0,0.0,0.0,0.0,0.0,0.0,0.0,0.0,0.0,0.0,0.0,0.0,0.0,0.0,0.0,0.0,0.0,0.0,0.0,0.0,0.0,0.0,0.0,0.0,0.0,0.0,0.0,0.0,0.0,0.0,0.0,0.0,0.0,0.0,0.0,0.0,0.0,0.0,0.0,0.0,0.0,0.0,0.0,0.0,0.0,0.0,0.0,0.0,0.0,0.0,0.0,0.0,0.0,0.0,0.0,0.0,0.0,0.0,0.0,0.0,0.0,0.0,0.0,0.0,0.0,0.0,0.0,0.0,0.0,0.0,0.0,0.0,0.0,0.0,0.0,0.0,0.0,0.0,0.0,0.0,0.0,0.0,0.0,0.0,0.0,0.0,0.0,0.0,0.0,0.0,0.0,0.0,0.0,0.0,0.0,0.0,0.0,0.0,0.0,0.0,0.0,0.0,0.0,-3.1435,-3.3185,-3.4457,-3.5085,-3.3215,-3.1569,0.0,0.0,0.0,0.0,0.0,0.0,0.0,0.0,0.0,0.0,0.0,0.0,0.0,0.0,0.0,0.0,0.0,0.0,0.0,0.0,0.0,0.0,0.0,0.0,0.0,0.0,0.0,0.0,0.0,0.0,0.0,0.0,0.0,0.0,0.0,0.0,0.0,0.0,0.0,0.0,0.0,0.0,0.0,0.0,0.0,0.0,0.0,0.0,0.0,0.0,0.0,0.0,0.0,0.0,0.0,0.0,0.0,0.0,0.0,0.0,0.0,0.0,0.0,0.0,0.0,0.0,0.0,0.0,0.0,0.0,0.0,0.0,0.0,0.0,0.0,0.0,0.0,0.0,0.0,0.0,0.0,0.0,0.0,0.0,0.0,0.0,0.0,0.0,0.0,0.0,0.0,0.0,0.0,0.0,0.0,0.0,0.0,0.0,0.0,0.0,0.0,0.0,0.0,0.0,0.0,0.0,0.0,0.0,0.0,-3.1674,-3.3335,-3.4517,-3.51,-3.3021,-3.1554,-3.0791,0.0,0.0,0.0,0.0,0.0,0.0,0.0,0.0,0.0,0.0,0.0,0.0,0.0,0.0,0.0,0.0,0.0,0.0,0.0,0.0,0.0,0.0,0.0,0.0,0.0,0.0,0.0,0.0,0.0,0.0,0.0,0.0,0.0,0.0,0.0,0.0,0.0,0.0,0.0,0.0,0.0,0.0,0.0,0.0,0.0,0.0,0.0,0.0,0.0,0.0,0.0,0.0,0.0,0.0,0.0,0.0,0.0,0.0,0.0,0.0,0.0,0.0,0.0,0.0,0.0,0.0,0.0,0.0,0.0,0.0,0.0,0.0,0.0,0.0,0.0,0.0,0.0,0.0,0.0,0.0,0.0,0.0,0.0,0.0,0.0,0.0,0.0,0.0,0.0,0.0,0.0,0.0,0.0,0.0,0.0,0.0,0.0,0.0,0.0,0.0,0.0,0.0,0.0,0.0,0.0,0.0,0.0,0.0,-3.3425,-3.4786,-3.522,-3.4622,-3.329,-3.1689,0.0,0.0,0.0,0.0,0.0,0.0,0.0,0.0,0.0,0.0,0.0,0.0,0.0,0.0,0.0,0.0,0.0,0.0,0.0,0.0,0.0,0.0,0.0,0.0,0.0,0.0,0.0,0.0,0.0,0.0,0.0,0.0,0.0,0.0,0.0,0.0,0.0,0.0,0.0,0.0,0.0,0.0,0.0,0.0,0.0,0.0,0.0,0.0,0.0,0.0,0.0,0.0,0.0,0.0,0.0,0.0,0.0,0.0,0.0,0.0,0.0,0.0,0.0,0.0,0.0,0.0,0.0,0.0,0.0,0.0,0.0,0.0,0.0,0.0,0.0,0.0,0.0,0.0,0.0,0.0,0.0,0.0,0.0,0.0,0.0,0.0,0.0,0.0,0.0,0.0,0.0,0.0,0.0,0.0,0.0,0.0,0.0,0.0,0.0,0.0,0.0,0.0,0.0,0.0,0.0,0.0,0.0,0.0,0.0,-3.2811,-3.4562,-3.5639,-3.5908,-3.4188,-3.2781,0.0,0.0,0.0,0.0,0.0,0.0,0.0,0.0,0.0,0.0,0.0,0.0,0.0,0.0,0.0,0.0,0.0,0.0,0.0,0.0,0.0,0.0,0.0,0.0,0.0,0.0,0.0,0.0,0.0,0.0,0.0,0.0,0.0,0.0,0.0,0.0,0.0,0.0,0.0,0.0,0.0,0.0,0.0,0.0,0.0,0.0,0.0,0.0,0.0,0.0,0.0,0.0,0.0,0.0,0.0,0.0,0.0,0.0,0.0,0.0,0.0,0.0,0.0,0.0,0.0,0.0,0.0,0.0,0.0,0.0,0.0,0.0,0.0,0.0,0.0,0.0,0.0,0.0,0.0,0.0,0.0,0.0,0.0,0.0,0.0,0.0,0.0,0.0,0.0,0.0,0.0,0.0,0.0,0.0,0.0,0.0,0.0,0.0,0.0,0.0,0.0,0.0,0.0,0.0,0.0,0.0,0.0,0.0,-3.2916,-3.3769,-3.4891,-3.5684,-3.6073,-3.4666,-3.3335,0.0,0.0,0.0,0.0,0.0,0.0,0.0,0.0,0.0,0.0,0.0,0.0,0.0,0.0,0.0,0.0,0.0,0.0,0.0,0.0,0.0,0.0,0.0,0.0,0.0,0.0,0.0,0.0,0.0,0.0,0.0,0.0,0.0,0.0,0.0,0.0,0.0,0.0,0.0,0.0,0.0,0.0,0.0,0.0,0.0,0.0,0.0,0.0,0.0,0.0,0.0,0.0,0.0,0.0,0.0,0.0,0.0,0.0,0.0,0.0,0.0,0.0,0.0,0.0,0.0,0.0,0.0,0.0,0.0,0.0,0.0,0.0,0.0,0.0,0.0,0.0,0.0,0.0,0.0,0.0,0.0,0.0,0.0,0.0,0.0,0.0,0.0,0.0,0.0,0.0,0.0,0.0,0.0,0.0,0.0,0.0,0.0,0.0,0.0,0.0,0.0,0.0,0.0,0.0,0.0,0.0,0.0,0.0,-3.3544,-3.522,-3.5429,-3.5489,-3.5474,-3.4831,-3.3589,0.0,0.0,0.0,0.0,0.0,0.0,0.0,0.0,0.0,0.0,0.0,0.0,0.0,0.0,0.0,0.0,0.0,0.0,0.0,0.0,0.0,0.0,0.0,0.0,0.0,0.0,0.0,0.0,0.0,0.0,0.0,0.0,0.0,0.0,0.0,0.0,0.0,0.0,0.0,0.0,0.0,0.0,0.0,0.0,0.0,0.0,0.0,0.0,0.0,0.0,0.0,0.0,0.0,0.0,0.0,0.0,0.0,0.0,0.0,0.0,0.0,0.0,0.0,0.0,0.0,0.0,0.0,0.0,0.0,0.0,0.0,0.0,0.0,0.0,0.0,0.0,0.0,0.0,0.0,0.0,0.0,0.0,0.0,0.0,0.0,0.0,0.0,0.0,0.0,0.0,0.0,0.0,0.0,0.0,0.0,0.0,0.0,0.0,0.0,0.0,0.0,0.0,0.0,0.0,0.0,0.0,0.0,0.0,-3.401,-3.3923,-3.4955,-3.5489,-3.5489,-3.4831,-3.3799,0.0,0.0,0.0,0.0,0.0,0.0,0.0,0.0,0.0,0.0,0.0,0.0,0.0,0.0,0.0,0.0,0.0,0.0,0.0,0.0,0.0,0.0,0.0,0.0,0.0,0.0,0.0,0.0,0.0,0.0,0.0,0.0,0.0,0.0,0.0,0.0,0.0,0.0,0.0,0.0,0.0,0.0,0.0,0.0,0.0,0.0,0.0,0.0,-3.323,0.0,0.0,0.0,0.0,0.0,0.0,0.0,0.0,0.0,0.0,0.0,0.0,0.0,0.0,0.0,0.0,0.0,0.0,0.0,0.0,0.0,0.0,0.0,0.0,0.0,0.0,0.0,0.0,0.0,0.0,0.0,0.0,0.0,0.0,0.0,0.0,0.0,0.0,0.0,0.0,0.0,0.0,0.0,0.0,0.0,0.0,0.0,0.0,0.0,0.0,0.0,0.0,0.0,0.0,0.0,0.0,0.0,0.0,0.0,-3.4475,-3.4463,-3.5164,-3.5489,-3.5489,-3.516,-3.4038,0.0,0.0,0.0,0.0,0.0,0.0,0.0,0.0,0.0,0.0,0.0,0.0,0.0,0.0,0.0,0.0,0.0,0.0,0.0,0.0,0.0,0.0,0.0,0.0,0.0,0.0,0.0,0.0,0.0,0.0,0.0,0.0,0.0,0.0,0.0,0.0,0.0,0.0,0.0,0.0,0.0,0.0,0.0,0.0,0.0,0.0,0.0,0.0,0.0,0.0,0.0,0.0,0.0,0.0,0.0,0.0,0.0,0.0,0.0,0.0,0.0,0.0,0.0,0.0,0.0,0.0,0.0,0.0,0.0,0.0,0.0,0.0,0.0,0.0,0.0,0.0,0.0,0.0,0.0,0.0,0.0,0.0,0.0,0.0,0.0,0.0,0.0,0.0,0.0,0.0,0.0,0.0,0.0,0.0,0.0,0.0,0.0,0.0,0.0,0.0,0.0,0.0,0.0,0.0,0.0,0.0,0.0,-3.3468,-3.4711,-3.5459,-3.5489,-3.5489,-3.5489,-3.5489,-3.4247,-3.1586,0.0,0.0,0.0,0.0,0.0,0.0,0.0,0.0,0.0,0.0,0.0,0.0,0.0,0.0,0.0,0.0,0.0,0.0,0.0,0.0,0.0,0.0,0.0,0.0,0.0,0.0,0.0,0.0,0.0,0.0,0.0,0.0,0.0,0.0,0.0,0.0,0.0,0.0,-3.2819,-3.3368,0.0,0.0,0.0,0.0,0.0,0.0,0.0,0.0,-3.2672,0.0,0.0,0.0,0.0,0.0,0.0,0.0,0.0,0.0,0.0,0.0,0.0,0.0,0.0,0.0,0.0,0.0,0.0,0.0,0.0,0.0,0.0,0.0,0.0,0.0,0.0,0.0,0.0,0.0,0.0,0.0,0.0,0.0,0.0,0.0,0.0,0.0,0.0,0.0,0.0,0.0,0.0,0.0,0.0,0.0,0.0,0.0,0.0,0.0,0.0,0.0,0.0,0.0,0.0,0.0,0.0,-3.3123,-3.349,-3.4247,-3.5459,-3.5489,-3.5489,-3.5489,-3.5489,-3.4262,-3.1631,0.0,0.0,0.0,0.0,0.0,0.0,0.0,0.0,0.0,0.0,0.0,0.0,0.0,0.0,0.0,0.0,0.0,0.0,0.0,0.0,0.0,0.0,0.0,0.0,0.0,0.0,0.0,0.0,0.0,0.0,0.0,0.0,0.0,0.0,0.0,0.0,0.0,0.0,0.0,-3.4775,-3.525,0.0,0.0,0.0,0.0,0.0,0.0,0.0,0.0,-3.289,0.0,0.0,0.0,0.0,0.0,0.0,0.0,0.0,0.0,0.0,0.0,0.0,0.0,0.0,0.0,0.0,0.0,0.0,0.0,0.0,0.0,0.0,0.0,0.0,0.0,0.0,0.0,0.0,0.0,0.0,0.0,0.0,0.0,0.0,0.0,0.0,0.0,0.0,0.0,0.0,0.0,0.0,0.0,0.0,0.0,0.0,0.0,0.0,0.0,0.0,0.0,0.0,0.0,0.0,0.0,-3.2379,-3.3802,-3.4846,-3.5474,-3.5489,-3.5489,-3.5474,-3.4502,-3.3185,0.0,0.0,0.0,0.0,0.0,0.0,0.0,0.0,0.0,0.0,0.0,0.0,0.0,0.0,0.0,0.0,0.0,0.0,0.0,0.0,0.0,0.0,0.0,0.0,0.0,0.0,0.0,0.0,0.0,0.0,0.0,0.0,0.0,0.0,0.0,0.0,0.0,0.0,0.0,0.0,-3.4874,-3.5624,-3.5968,0.0,0.0,0.0,0.0,0.0,0.0,-3.2375,-3.2122,0.0,0.0,0.0,0.0,0.0,0.0,0.0,0.0,0.0,0.0,0.0,0.0,0.0,0.0,0.0,0.0,0.0,0.0,0.0,0.0,0.0,0.0,0.0,0.0,0.0,0.0,0.0,0.0,0.0,0.0,0.0,0.0,0.0,0.0,0.0,0.0,0.0,0.0,0.0,0.0,0.0,0.0,0.0,0.0,0.0,0.0,0.0,0.0,0.0,0.0,0.0,0.0,0.0,0.0,0.0,-3.1498,-3.3864,-3.525,-3.5474,-3.5489,-3.5489,-3.5459,-3.3829,-3.2407,0.0,0.0,0.0,0.0,0.0,0.0,0.0,0.0,0.0,0.0,0.0,0.0,0.0,0.0,0.0,0.0,0.0,0.0,0.0,0.0,0.0,0.0,0.0,0.0,0.0,0.0,0.0,0.0,0.0,0.0,0.0,0.0,0.0,0.0,0.0,0.0,0.0,0.0,0.0,0.0,0.0,-3.6193,-3.6447,-3.7135,0.0,0.0,0.0,0.0,-3.2443,-3.1856,0.0,0.0,0.0,0.0,0.0,0.0,0.0,0.0,0.0,0.0,0.0,0.0,0.0,0.0,0.0,0.0,0.0,0.0,0.0,0.0,0.0,0.0,0.0,0.0,0.0,0.0,0.0,0.0,0.0,0.0,0.0,0.0,0.0,0.0,0.0,0.0,0.0,0.0,0.0,0.0,0.0,0.0,0.0,0.0,0.0,0.0,0.0,0.0,0.0,0.0,0.0,0.0,0.0,0.0,0.0,0.0,-3.1399,-3.2976,-3.4307,-3.5429,-3.5489,-3.5489,-3.5489,-3.4696,-3.3095,0.0,0.0,0.0,0.0,0.0,0.0,0.0,0.0,0.0,0.0,0.0,0.0,0.0,0.0,0.0,0.0,0.0,0.0,0.0,0.0,0.0,0.0,0.0,0.0,0.0,0.0,0.0,0.0,0.0,0.0,0.0,0.0,0.0,0.0,0.0,0.0,0.0,0.0,0.0,0.0,0.0,-3.7674,-3.6626,-3.7509,-3.8018,0.0,0.0,-3.4711,-3.4178,-3.3248,0.0,0.0,0.0,0.0,0.0,0.0,0.0,0.0,0.0,0.0,0.0,0.0,0.0,0.0,0.0,0.0,0.0,0.0,0.0,0.0,0.0,0.0,0.0,0.0,0.0,0.0,0.0,0.0,0.0,0.0,0.0,0.0,0.0,0.0,0.0,0.0,0.0,0.0,0.0,0.0,0.0,0.0,0.0,0.0,0.0,0.0,0.0,0.0,0.0,0.0,0.0,0.0,0.0,0.0,0.0,-2.948,-3.0981,-3.3347,-3.4921,-3.5474,-3.5489,-3.531,-3.4921,-3.3544,-3.1913,0.0,0.0,0.0,0.0,0.0,0.0,0.0,0.0,0.0,0.0,0.0,0.0,0.0,0.0,0.0,0.0,0.0,0.0,0.0,0.0,0.0,0.0,0.0,0.0,0.0,0.0,0.0,0.0,0.0,0.0,0.0,0.0,0.0,0.0,0.0,0.0,0.0,0.0,0.0,0.0,0.0,0.0,-3.7644,-3.7923,0.0,0.0,0.0,-3.4187,-3.2856,0.0,0.0,0.0,0.0,0.0,0.0,0.0,0.0,0.0,0.0,0.0,0.0,0.0,0.0,0.0,0.0,0.0,0.0,0.0,0.0,0.0,0.0,0.0,0.0,0.0,0.0,0.0,0.0,0.0,0.0,0.0,0.0,0.0,0.0,0.0,0.0,0.0,0.0,0.0,0.0,0.0,0.0,0.0,0.0,0.0,0.0,0.0,0.0,0.0,0.0,0.0,0.0,0.0,0.0,0.0,0.0,0.0,-3.0513,-3.366,-3.534,-3.5489,-3.5489,-3.5175,-3.4472,-3.2886,0.0,0.0,0.0,0.0,0.0,0.0,0.0,0.0,0.0,0.0,0.0,0.0,0.0,0.0,0.0,0.0,0.0,0.0,0.0,0.0,0.0,0.0,0.0,0.0,0.0,0.0,0.0,-2.9364,0.0,0.0,0.0,0.0,0.0,0.0,0.0,0.0,0.0,0.0,0.0,0.0,0.0,0.0,-3.8586,-3.8407,-3.8487,-3.8084,0.0,0.0,-3.3887,-3.2462,-3.2395,-3.2044,0.0,0.0,0.0,0.0,0.0,0.0,0.0,0.0,0.0,0.0,0.0,0.0,0.0,0.0,0.0,0.0,0.0,0.0,0.0,0.0,0.0,0.0,0.0,0.0,0.0,0.0,0.0,0.0,0.0,0.0,0.0,0.0,0.0,0.0,0.0,0.0,0.0,0.0,0.0,0.0,0.0,0.0,0.0,0.0,0.0,0.0,0.0,0.0,0.0,0.0,0.0,0.0,0.0,0.0,0.0,-3.057,-3.3198,-3.4846,-3.5459,-3.5489,-3.5175,-3.4487,-3.3754,-3.1869,0.0,0.0,0.0,0.0,0.0,0.0,0.0,0.0,0.0,0.0,0.0,0.0,0.0,0.0,0.0,0.0,0.0,0.0,0.0,0.0,0.0,0.0,0.0,0.0,0.0,0.0,0.0,0.0,0.0,0.0,0.0,0.0,0.0,0.0,0.0,0.0,0.0,0.0,0.0,0.0,0.0,-3.9125,-3.8482,-3.9427,-3.995,0.0,0.0,-3.4416,-3.4369,-3.2778,-3.0939,-2.9302,0.0,0.0,0.0,0.0,0.0,0.0,0.0,0.0,0.0,0.0,0.0,0.0,0.0,0.0,0.0,0.0,0.0,0.0,0.0,0.0,0.0,0.0,0.0,0.0,0.0,0.0,0.0,0.0,0.0,0.0,0.0,0.0,0.0,0.0,0.0,0.0,0.0,0.0,0.0,0.0,0.0,0.0,0.0,0.0,0.0,0.0,0.0,0.0,0.0,0.0,0.0,0.0,0.0,-2.9027,-2.9947,-3.2541,-3.419,-3.4844,-3.446,-3.3948,-3.329,-3.3036,-3.1554,0.0,0.0,0.0,0.0,0.0,0.0,0.0,0.0,0.0,0.0,0.0,0.0,0.0,0.0,0.0,0.0,0.0,0.0,0.0,0.0,0.0,0.0,0.0,0.0,0.0,0.0,0.0,0.0,-3.3643,-3.4235,-3.5098,0.0,0.0,0.0,0.0,0.0,0.0,0.0,0.0,0.0,0.0,-3.9884,-3.9122,-3.8988,0.0,0.0,-3.6453,-3.4753,-3.4211,-3.3159,-3.1834,-3.0196,-2.9566,0.0,0.0,0.0,0.0,0.0,0.0,0.0,0.0,0.0,0.0,0.0,0.0,0.0,0.0,0.0,0.0,0.0,0.0,0.0,0.0,0.0,0.0,0.0,0.0,0.0,0.0,0.0,0.0,0.0,0.0,0.0,0.0,0.0,0.0,0.0,0.0,0.0,0.0,0.0,0.0,0.0,0.0,0.0,0.0,0.0,0.0,0.0,0.0,0.0,0.0,0.0,0.0,-2.8716,-2.9597,-3.1977,-3.3532,-3.4167,-3.3743,-3.3185,-3.2542,-3.2527,-3.1375,0.0,0.0,0.0,0.0,0.0,0.0,0.0,0.0,0.0,0.0,0.0,0.0,0.0,0.0,0.0,0.0,0.0,0.0,0.0,0.0,0.0,0.0,0.0,0.0,0.0,0.0,0.0,0.0,-3.5301,-3.5639,-3.5639,0.0,0.0,0.0,0.0,0.0,0.0,0.0,0.0,0.0,0.0,-4.0655,-3.9622,-3.8868,-3.8251,-3.7784,-3.6336,-3.494,-3.3931,-3.3156,-3.2254,-3.0957,0.0,0.0,0.0,0.0,0.0,0.0,0.0,0.0,0.0,0.0,0.0,0.0,0.0,0.0,0.0,0.0,0.0,0.0,0.0,0.0,0.0,0.0,0.0,0.0,0.0,0.0,0.0,0.0,0.0,0.0,-2.603,0.0,0.0,0.0,0.0,0.0,0.0,0.0,0.0,0.0,0.0,0.0,0.0,0.0,0.0,0.0,0.0,0.0,0.0,0.0,0.0,0.0,0.0,-2.8283,-2.9597,-3.1539,-3.2854,-3.3475,-3.3472,-3.3155,-3.2527,-3.2512,-3.1569,-2.9609,0.0,0.0,0.0,0.0,0.0,0.0,0.0,0.0,0.0,0.0,0.0,0.0,0.0,0.0,0.0,0.0,0.0,0.0,0.0,0.0,0.0,0.0,0.0,0.0,0.0,0.0,-3.5537,-3.5622,-3.5639,0.0,0.0,0.0,0.0,0.0,0.0,0.0,0.0,0.0,0.0,-4.1031,-4.127,-3.99,-3.951,-3.8904,-3.7635,-3.6087,-3.4754,-3.3848,-3.2772,-3.1853,0.0,0.0,0.0,0.0,0.0,0.0,0.0,0.0,0.0,0.0,0.0,0.0,0.0,0.0,0.0,0.0,0.0,0.0,0.0,0.0,0.0,0.0,0.0,0.0,0.0,0.0,0.0,-2.8633,-2.7035,0.0,0.0,0.0,0.0,0.0,0.0,0.0,0.0,0.0,0.0,0.0,-3.4928,-3.5943,0.0,0.0,0.0,0.0,0.0,0.0,0.0,0.0,0.0,0.0,0.0,0.0,-2.8268,-2.9592,-3.1086,-3.212,-3.2786,-3.2404,-3.2078,-3.1869,-3.1854,-3.115,-2.9624,0.0,0.0,0.0,0.0,0.0,0.0,0.0,0.0,0.0,0.0,0.0,0.0,0.0,0.0,0.0,0.0,0.0,0.0,0.0,0.0,0.0,0.0,0.0,0.0,0.0,-3.649,0.0,0.0,0.0,0.0,0.0,0.0,0.0,0.0,0.0,0.0,0.0,-4.2096,-4.153,-4.2189,-4.1933,-3.9951,-3.951,-3.926,0.0,0.0,0.0,0.0,0.0,0.0,0.0,0.0,0.0,0.0,0.0,0.0,0.0,0.0,-3.6649,-3.4012,-3.3437,-3.3554,-3.3996,0.0,0.0,0.0,0.0,0.0,0.0,0.0,0.0,0.0,0.0,0.0,0.0,0.0,0.0,-3.1385,0.0,-3.0936,0.0,0.0,0.0,0.0,0.0,0.0,0.0,0.0,-3.6464,-3.7178,-3.7212,-3.8193,-3.7932,0.0,-3.6324,-3.4595,0.0,0.0,0.0,0.0,0.0,0.0,0.0,0.0,-2.8589,-2.987,-3.096,-3.1702,-3.2116,-3.1717,-3.1467,-3.1467,-3.1467,-3.1016,-2.9939,-2.9743,-2.9388,0.0,0.0,0.0,0.0,0.0,0.0,0.0,0.0,0.0,0.0,0.0,0.0,0.0,0.0,0.0,0.0,0.0,0.0,0.0,0.0,0.0,0.0,0.0,-3.781,0.0,0.0,0.0,0.0,0.0,0.0,0.0,0.0,0.0,-4.1899,-4.3042,-4.3722,-4.3456,-4.3506,-4.2719,-4.0381,0.0,0.0,0.0,0.0,0.0,0.0,0.0,-3.5278,-3.5142,-3.4547,-3.4389,-3.526,-3.6718,-3.7697,-3.7098,0.0,0.0,-3.623,-3.5679,-3.5805,-3.623,-3.6219,-3.6336,-3.676,-3.6505,-3.6239,0.0,0.0,0.0,0.0,0.0,0.0,0.0,0.0,-3.361,-3.3811,0.0,-3.3647,0.0,0.0,0.0,0.0,0.0,0.0,0.0,0.0,-3.9292,-4.0037,-4.0037,-4.002,-4.0054,-4.007,-3.9232,-3.8223,-3.6836,-3.2958,0.0,0.0,0.0,0.0,0.0,0.0,-2.9259,-3.0468,-3.115,-3.1467,-3.1539,-3.1467,-3.1467,-3.1467,-3.1524,-3.121,-3.0638,-3.1275,-3.1078,-2.9808,-2.9639,0.0,0.0,0.0,0.0,0.0,0.0,0.0,0.0,0.0,0.0,0.0,0.0,0.0,0.0,0.0,0.0,0.0,0.0,0.0,0.0,-3.9022,0.0,0.0,0.0,0.0,0.0,0.0,0.0,0.0,0.0,0.0,-4.3478,-4.4162,-4.4926,-4.5578,0.0,0.0,0.0,0.0,-3.9231,-3.7736,-3.7479,-3.7218,-3.6301,-3.6475,-3.6633,-3.623,0.0,0.0,-3.7184,-3.8354,-3.8896,-3.736,-3.8384,-3.9424,-3.9307,-3.871,-3.8377,-3.8377,-3.8307,-3.8407,-3.8452,-3.8728,-3.8967,-3.3403,0.0,0.0,0.0,0.0,-3.3017,-3.4077,-3.5668,-3.6462,-3.5918,-3.4542,-3.5488,0.0,0.0,0.0,0.0,0.0,0.0,-3.7252,-3.8684,-3.9123,-3.9563,-4.007,-4.0087,-4.0087,-4.0087,-3.9885,-3.9564,-3.911,-3.6964,-3.3963,-3.0136,0.0,0.0,0.0,0.0,-2.9708,-3.0458,-3.115,-3.1467,-3.1467,-3.1467,-3.1467,-3.1467,-3.2007,-3.218,-3.2035,-3.2704,-3.2828,-3.2416,-3.1841,0.0,0.0,0.0,0.0,0.0,0.0,0.0,0.0,0.0,0.0,0.0,0.0,0.0,0.0,0.0,0.0,0.0,0.0,0.0,-3.9099,-3.9231,-3.95,0.0,0.0,0.0,0.0,0.0,0.0,0.0,0.0,0.0,-4.4981,-4.573,-4.606,0.0,0.0,-4.3588,-4.1228,-4.0601,-4.0009,-3.8998,0.0,0.0,0.0,-3.7594,-3.7273,-3.8235,-3.8707,-3.8884,-3.8707,-3.913,-3.9277,-3.8765,-3.9058,-3.9424,-3.9409,-3.926,-3.9125,-3.9125,-3.9125,-3.9125,-3.914,-3.9305,-3.9364,-3.5921,-3.3983,-3.3427,-3.3861,-3.493,-3.53,-3.6275,-3.7686,-3.8487,-3.8133,-3.6981,-3.775,-3.6874,-3.4722,-3.5193,0.0,0.0,0.0,-3.8288,-3.9411,-3.9428,-3.9665,-4.0054,-4.0087,-4.0087,-4.007,-3.9765,-3.9765,-4.007,-3.8636,-3.6161,-3.2814,0.0,0.0,-2.9385,-2.9759,-3.0253,-3.0893,-3.13,-3.1467,-3.1524,-3.1796,-3.2064,-3.2312,-3.2772,-3.2986,-3.2986,-3.3633,-3.3991,-3.395,-3.352,-3.2887,0.0,0.0,0.0,0.0,0.0,0.0,0.0,0.0,0.0,0.0,0.0,-3.4765,-3.3441,0.0,0.0,0.0,-3.788,-3.959,-4.0724,-4.1101,0.0,0.0,0.0,0.0,0.0,0.0,0.0,-4.5078,-4.5383,-4.5665,-4.6099,-4.6252,-4.6225,-4.5754,-4.4976,-4.3817,-4.208,0.0,-4.0894,-4.006,-3.961,-3.9424,-3.9424,-3.8603,-3.8251,-3.8904,-3.9005,-3.902,-3.9005,-3.9215,-3.9409,-3.9424,-3.9424,-3.9424,-3.9424,-3.9424,-3.9424,-3.9424,-3.9424,-3.9424,-3.9424,-3.9424,-3.9424,-3.7982,-3.7879,-3.6662,-3.6444,-3.7042,-3.774,-3.8439,-3.9043,-3.9783,-4.0087,-4.0087,-4.0087,-3.9357,-3.8027,-3.7359,0.0,0.0,-3.8806,-3.9446,-4.007,-4.002,-4.002,-4.0087,-4.002,-3.9986,-3.9986,-3.9285,-3.9251,-3.9834,-3.8472,-3.7134,-3.5861,-3.391,-3.2168,-3.0633,-3.0608,-3.0896,-3.1567,-3.1582,-3.1582,-3.1682,-3.2327,-3.2986,-3.3582,-3.3633,-3.37,-3.3684,-3.4333,-3.4671,-3.4671,-3.46,-3.4269,-3.3465,0.0,0.0,0.0,0.0,0.0,0.0,0.0,0.0,0.0,0.0,0.0,0.0,0.0,0.0,0.0,-4.0262,0.0,-4.3479,-4.3852,0.0,0.0,0.0,-4.3561,-4.4528,-4.515,-4.5822,-4.6673,0.0,0.0,0.0,0.0,-4.5677,-4.5585,-4.5026,-4.4253,-4.3443,-4.2583,-4.1788,-4.0852,-3.9954,-3.9448,-3.9283,-3.9095,-3.8829,-3.8407,-3.8317,-3.8317,-3.8347,-3.8766,-3.92,-3.929,-3.929,-3.926,-3.9305,-3.9245,-3.9245,-3.92,-3.932,-3.9394,-3.9305,-3.9364,-3.9364,-3.9547,-3.9523,-3.9189,-3.8802,-3.8434,-3.8573,-3.9143,-3.9817,-4.002,-4.0087,-4.0087,-4.0087,-3.9901,-3.9545,-3.9408,-3.9393,-3.9563,-3.9733,-3.9952,-4.0037,-3.9512,-3.9546,-4.0054,-3.9512,-3.9259,-3.9242,-3.9076,-3.8789,-3.843,-3.8053,-3.7153,-3.5778,-3.5249,-3.3758,-3.1428,-3.1298,-3.163,-3.2327,-3.2327,-3.2571,-3.3077,-3.3287,-3.3443,-3.3582,-3.4103,-3.4382,-3.4382,-3.5005,-3.5362,-3.5362,-3.5346,-3.4992,-3.4269,-3.2664,0.0,0.0,0.0,0.0,0.0,0.0,0.0,0.0,0.0,-3.8133,-3.5275,0.0,-4.0292,0.0,-4.1772,-4.3396,-4.4306,-4.4123,0.0,0.0,-4.491,-4.4836,-4.7052,-4.6185,-4.5887,-4.7231,-4.6969,-4.6456,-4.6017,-4.5841,-4.5507,-4.4965,-4.4688,-4.427,-4.3443,-4.3169,-4.2467,-4.1087,-4.0197,-3.9425,-3.8861,-3.8266,-3.7838,-3.7674,-3.7644,-3.7644,-3.7644,-3.7778,-3.8048,-3.8482,-3.8212,-3.8123,-3.8542,-3.8257,-3.7928,-3.7958,-3.8691,-3.926,-3.8766,-3.9035,-3.9125,-4.0087,-4.0087,-4.0087,-3.9847,-3.9445,-3.9444,-3.9665,-4.007,-4.0087,-4.0087,-4.0087,-4.0087,-4.0087,-4.0087,-4.0087,-4.0087,-4.0087,-4.0087,-3.9901,-3.958,-3.9191,-3.9039,-3.9106,-3.87,-3.8497,-3.8514,-3.8514,-3.8294,-3.7922,-3.7922,-3.7292,-3.6185,-3.5844,-3.4757,-3.3019,-3.2569,-3.2625,-3.3055,-3.3039,-3.3391,-3.4037,-3.4037,-3.4039,-3.4019,-3.4681,-3.4885,-3.4568,-3.5222,-3.547,-3.5131,-3.5115,-3.5104,-3.4953,-3.3836,-3.3499,0.0,0.0,0.0,0.0,0.0,0.0,0.0,0.0,0.0,0.0,0.0,-4.2192,-4.2305,-4.367,-4.4875,-4.57,-4.5843,-4.6332,-4.7497,-4.6644,-4.678,-4.8689,-4.7615,-4.7112,-4.8006,-4.7251,-4.6372,-4.5797,-4.5422,-4.5038,-4.466,-4.4282,-4.4013,-4.3848,-4.3313,-4.2485,-4.1594,-4.0498,-3.9484,-3.8722,-3.7673,-3.7,-3.7,-3.7,-3.7015,-3.7015,-3.724,-3.7539,-3.7838,-3.7644,-3.7509,-3.7853,-3.7689,-3.7419,-3.7494,-3.7988,-3.8317,-3.8033,-3.8257,-3.8242,-4.0087,-4.0087,-4.0087,-4.0087,-4.0087,-4.0087,-4.0087,-4.0087,-4.0087,-4.0087,-4.0087,-4.0087,-4.0087,-4.0087,-4.0087,-4.002,-3.9935,-3.9952,-3.9563,-3.887,-3.8751,-3.8413,-3.7922,-3.7804,-3.777,-3.777,-3.777,-3.7702,-3.7618,-3.7618,-3.728,-3.6654,-3.6019,-3.5381,-3.4704,-3.4137,-3.3836,-3.3735,-3.3802,-3.4137,-3.4688,-3.4736,-3.4688,-3.4648,-3.5267,-3.5318,-3.4692,-3.5267,-3.5368,-3.4827,-3.4776,-3.5148,-3.5921,-3.5191,-3.531,0.0,-3.5862,0.0,0.0,0.0,0.0,0.0,0.0,0.0,0.0,-4.2892,-4.4235,-4.4962,-4.5749,-4.6503,-4.7186,-4.7902,-4.8324,-4.8324,-4.8324,-4.86,-4.9315,-4.887,-4.8488,-4.859,-4.74,-4.6316,-4.5754,-4.506,-4.457,-4.4389,-4.3859,-4.3601,-4.399,-4.3063,-4.2196,-4.2088,-4.0713,-3.9336,-3.856,-3.7453,-3.6773,-3.6708,-3.6773,-3.6658,-3.6708,-3.6999,-3.7338,-3.7444,-3.7233,-3.715,-3.727,-3.7225,-3.712,-3.7075,-3.712,-3.7195,-3.7285,-3.7434,-3.736,-4.0087,-4.0087,-4.0087,-4.0087,-4.0087,-4.0087,-4.0087,-4.0087,-4.0087,-4.0087,-4.0087,-4.0087,-4.0087,-4.0087,-4.0087,-3.9749,-3.9208,-3.9191,-3.8802,-3.8091,-3.7483,-3.7466,-3.7855,-3.728,-3.6992,-3.6992,-3.6975,-3.6671,-3.6062,-3.6062,-3.5977,-3.5842,-3.5689,-3.5559,-3.5424,0.0,0.0,0.0,-3.4958,-3.527,-3.5407,-3.5424,-3.5402,-3.5402,-3.5537,0.0,-3.5419,-3.5537,-3.5842,-3.6315,-3.6349,0.0,0.0,0.0,0.0,0.0,0.0,0.0,0.0,0.0,0.0,0.0,-4.1794,-4.2105,-4.2161,-4.4743,-4.6489,-4.6649,-4.7384,-4.7901,-4.8067,-4.8196,-4.8324,-4.8324,-4.8324,-4.8379,-4.8526,-4.8428,-4.8188,-4.7713,-4.6968,-4.6203,-4.5584,-4.5021,-4.4321,-4.3719,-4.3512,-4.3217,-4.2777,-4.25,-4.2055,-4.1429,-4.0078,-3.8869,-3.8089,-3.7729,-3.7503,-3.7543,-3.7543,-3.7515,-3.7487,-3.7048,-3.7015,-3.743,-3.6622,-3.6154,-3.6618,-3.6237,-3.6069,-3.5878,-3.5893,-3.6028,-3.6552,-3.706,-3.7105,-4.0087,0.0,-4.0087,-4.0087,0.0,-4.0087,-4.0087,-4.0087,-4.0087,-4.0087,-4.0087,-4.0087,-4.0087,-4.0087,-4.0087,-3.9682,-3.9024,-3.8989,-3.8413,-3.7351,-3.6975,-3.6789,-3.6772,-3.6383,-3.6197,-3.6197,-3.6214,-3.5994,-3.5639,-3.5639,-3.5639,-3.5639,-3.5639,-3.5639,-3.5639,-3.5639,-3.5407,-3.5098,-3.5424,-3.5639,-3.5639,-3.5639,-3.5436,-3.5098,0.0,0.0,0.0,0.0,0.0,0.0,0.0,0.0,0.0,0.0,0.0,-4.051,-4.0418,-4.0528,-4.0944,-4.0981,-4.1415,-4.2431,-4.3251,-4.3999,-4.4597,-4.6176,-4.7261,-4.7661,-4.8066,-4.8324,-4.8324,-4.8324,-4.8324,-4.8324,-4.8324,-4.8324,-4.8324,-4.8324,-4.8075,-4.7452,-4.6793,-4.6038,-4.509,-4.4389,-4.3711,-4.2952,-4.2526,-4.2202,-4.1847,-4.1762,-4.1491,-4.0781,-3.9721,-3.8816,-3.8414,-3.7978,-3.7822,-3.7822,-3.7822,-3.7822,-3.7822,-3.7456,-3.7345,-3.7584,-3.7108,-3.6816,-3.6987,-3.6817,-3.6662,-3.6662,-3.6677,-3.6569,-3.6575,-3.6552,-3.6312,-4.0087,-4.0087,-4.0087,-4.0087,-4.0087,-4.0087,-4.0053,-3.9884,0.0,0.0,0.0,-4.0087,-4.0087,-4.0087,-3.9952,-3.9513,-3.8824,-3.8685,-3.7905,-3.6624,-3.6603,-3.6231,-3.5639,-3.5639,-3.5639,-3.5639,-3.5639,-3.5639,-3.5639,-3.5639,-3.5639,-3.5639,-3.5639,-3.5639,-3.5639,-3.5639,-3.5639,-3.5639,-3.5639,-3.5639,-3.5639,-3.5639,-3.5318,-3.4692,-3.5436,-3.5853,-3.5987,-3.6718,-3.7223,-3.7479,-3.7915,-3.853,-3.9381,-4.0295,-4.1395,-4.2729,-4.3233,-4.3479,-4.3479,-4.3479,-4.3552,-4.3699,-4.4342,-4.5332,-4.6783,-4.704,-4.7445,-4.8233,-4.8324,-4.8324,-4.8324,-4.8324,-4.8324,-4.8324,-4.8324,-4.8324,-4.8324,-4.8324,-4.8059,-4.7415,-4.6765,-4.5886,-4.4747,-4.3972,-4.3183,-4.2394,-4.1886,-4.1222,-4.1035,-4.1001,-4.0815,-4.0206,-3.9644,-3.9139,-3.9032,-3.8707,-3.8206,-3.8334,-3.8278,-3.8206,-3.8206,-3.8092,-3.7978,-3.8026,-3.7937,-3.778,-3.7764,-3.7722,-3.7822,-3.7822,-3.7822,-3.7632,-3.698,-3.6352,-3.594,-4.0087,-4.0087,-4.0087,-4.0087,-4.0087,-4.0087,-3.9715,-3.9208,-3.985,-4.007,-4.0087,-4.0087,-4.0087,-4.0104,-3.9428,-3.8768,-3.801,-3.7398,-3.662,0.0,-3.5791,-3.5723,-3.5639,-3.5639,-3.5639,-3.5639,-3.5639,-3.5639,-3.5639,-3.5639,-3.5639,-3.5639,-3.5639,-3.5639,-3.5639,-3.5639,-3.5639,-3.5639,-3.5639,-3.5639,-3.5639,-3.5639,-3.5526,-3.5504,-3.6197,-3.6842,-3.7301,-3.807,-3.8964,-4.0105,-4.0223,-4.0831,-4.2033,-4.2235,-4.2666,-4.3339,-4.3463,-4.3479,-4.3479,-4.3479,-4.3791,-4.447,-4.4635,-4.5094,-4.5975,-4.6727,-4.7441,-4.8194,-4.8288,-4.8324,-4.8324,-4.8324,-4.8324,-4.8324,-4.8324,-4.8324,-4.8324,-4.8269,-4.7974,-4.7236,-4.6608,-4.5882,-4.4971,-4.4254,-4.3384,-4.2423,-4.1911,-4.1521,-4.0595,-4.024,-4.0206,-4.0104,-4.002,-3.9952,-3.9833,-3.985,-3.9627,-3.9799,-3.9679,-3.9558,-3.9575,-3.9156,-3.8799,-3.8745,-3.8302,-3.7978,-3.7937,-3.7822,-3.7937,-3.7994,-3.7978,-3.7863,-3.7674,-3.7456,-3.7011,-4.0087,-4.0087,-4.0087,-3.9868,-3.9463,-3.9341,-3.9105,-3.8842,-3.9472,-3.9392,-3.8886,-3.8903,-3.8903,-3.887,-3.8565,-3.8024,-3.7283,-3.6941,-3.6349,-3.5656,-3.5639,-3.5639,-3.5639,-3.5639,-3.5639,-3.5639,-3.5639,-3.5639,-3.5639,-3.5639,-3.5639,-3.5639,-3.5639,-3.5639,-3.5622,-3.5915,-3.6011,-3.6028,-3.5739,-3.5639,-3.5639,-3.5639,-3.5739,-3.6011,-3.6791,-3.7664,-3.8596,-3.9357,-4.0257,-4.1286,-4.1609,-4.206,-4.2637,-4.2985,-4.325,-4.3479,-4.3479,-4.3479,-4.3479,-4.3479,-4.3644,-4.4011,-4.4048,-4.4395,-4.5184,-4.5993,-4.6777,-4.7531,-4.7642,-4.7826,-4.8251,-4.8324,-4.8324,-4.8324,-4.8324,-4.8324,-4.8269,-4.7902,-4.7517,-4.7094,-4.6166,-4.5269,-4.4497,-4.3804,-4.3041,-4.2119,-4.1719,-4.1112,-4.0255,-4.007,-4.0087,-4.0087,-4.0087,-4.007,-4.0087,-4.0087,-4.0087,-4.0087,-4.0087,-4.0087,-4.007,-3.9714,-3.9594,-3.9542,-3.9209,-3.9049,-3.9011,-3.9065,-3.9049,-3.9049,-3.9049,-3.8941,-3.8541,-3.8092,-3.7531,-4.0087,-4.0087,-3.9901,-3.9412,-3.8771,-3.8581,-3.8478,-3.8409,-3.873,-3.8465,-3.7826,-3.806,-3.823,-3.8213,-3.806,-3.7667,-3.7171,-3.6994,-3.6549,-3.6019,-3.5968,-3.5985,-3.5968,-3.5985,-3.5968,-3.5985,-3.5968,-3.5968,-3.5968,-3.5985,-3.5968,-3.5968,-3.5968,-3.5968,-3.5968,-3.6357,-3.6563,-3.6563,-3.6165,-3.5968,-3.5985,-3.5968,-3.6165,-3.6591,-3.7509,-3.855,-3.9651,-4.0655,-4.1479,-4.2132,-4.2637,-4.2856,-4.2884,-4.3287,-4.3479,-4.3479,-4.3479,-4.3479,-4.3479,-4.3479,-4.3479,-4.3479,-4.3479,-4.3752,-4.441,-4.4985,-4.5772,-4.6653,-4.7018,-4.7384,-4.7882,-4.8233,-4.8324,-4.8324,-4.8324,-4.8324,-4.8251,-4.7609,-4.7021,-4.6782,-4.569,-4.4665,-4.3943,-4.3379,-4.2799,-4.2172,-4.1374,-4.0745,-4.0368,-4.0204,-4.007,-4.0087,-4.0087,-4.0087,-4.0087,-4.0087,-4.0087,-4.0087,-4.0087,-4.0087,-4.007,-4.007,-4.007,-4.002,-4.007,-3.9952,-4.007,-4.002,-4.002,-3.9952,-3.9901,-3.9833,-3.9279,-3.8816,-3.8262,-4.0121,-3.9969,-3.946,-3.8702,-3.8139,-3.8281,-3.8031,-3.7676,-3.7476,-3.7365,-3.7482,-3.8654,-3.9212,-3.9142,-3.8526,-3.8156,-3.8051,-3.7461,-3.7108,-3.6999,-3.7076,-3.7058,-3.6981,-3.702,-3.7076,-3.702,-3.6999,-3.6978,-3.6943,-3.6981,-3.702,-3.7058,-3.7058,-3.7038,-3.702,-3.7097,-3.7097,-3.7114,-3.7076,-3.7058,-3.7058,-3.7076,-3.7058,-3.7132,-3.8567,-3.9601,-4.0274,-4.1735,-4.2774,-4.3267,-4.3356,-4.3428,-4.3429,-4.3463,-4.3479,-4.3479,-4.3479,-4.3479,-4.3479,-4.3479,-4.3479,-4.3479,-4.3479,-4.3516,-4.366,-4.3718,-4.4393,-4.5678,-4.6636,-4.7038,-4.7241,-4.7847,-4.8214,-4.8196,-4.8288,-4.8324,-4.8214,-4.7609,-4.6838,-4.6067,-4.5242,-4.4436,-4.3703,-4.345,-4.3178,-4.2609,-4.1718,-4.1041,-4.0827,-4.0546,-4.0303,-4.0204,-4.0121,-4.0121,-4.0121,-4.0087,-4.0087,-4.0087,-4.0087,-4.0087,-4.0087,-4.0087,-4.0087,-4.0087,-4.0087,-4.0087,-4.0087,-4.0087,-4.0087,-4.0087,-4.0087,-4.007,-3.9969,-3.9799,-3.9506,-4.0571,-4.0577,-4.0637,-3.9946,-3.8894,-3.8298,-3.7954,-3.776,-3.8011,-3.8101,-3.8174,-3.8755,-3.8672,-3.8093,-3.7792,-3.7651,-3.7633,-3.7314,-3.719,-3.719,-3.719,-3.719,-3.719,-3.719,-3.719,-3.7208,-3.7196,-3.7196,-3.7208,-3.719,-3.719,-3.719,-3.719,-3.719,-3.7228,-3.747,-3.7596,-3.7613,-3.7949,-3.8101,-3.8016,-3.747,-3.7554,-3.8348,-3.9424,-4.0473,-4.1466,-4.2576,-4.3304,-4.3479,-4.3479,-4.3479,-4.3479,-4.3479,-4.3479,-4.3479,-4.3479,-4.3479,-4.3479,-4.3479,-4.3479,-4.3479,-4.3479,-4.3479,-4.3479,-4.3479,-4.3807,-4.4428,-4.522,-4.5865,-4.6361,-4.7131,-4.7609,-4.7664,-4.8012,-4.8306,-4.8306,-4.715,-4.6232,-4.5865,-4.4782,-4.3901,-4.3571,-4.3479,-4.325,-4.2808,-4.2203,-4.1853,-4.149,-4.1241,-4.1122,-4.1059,-4.0797,-4.0449,-4.0204,-4.0087,-4.0087,-4.0087,-4.0087,-4.0087,-4.0087,-4.0087,-4.0087,-4.0087,-4.0087,-4.0087,-4.0087,-4.0087,-4.0087,-4.0087,-4.0087,-4.0087,-4.0087,-4.0087,-3.9901,-4.114,-4.1173,-4.1319,-4.0526,-3.9142,-3.8454,-3.8034,-3.7979,-3.8475,-3.8707,-3.8707,-3.8707,-3.8336,-3.7667,-3.7596,-3.7596,-3.7614,-3.7596,-3.7596,-3.7596,-3.7596,-3.7596,-3.7596,-3.7596,-3.7596,-3.7596,-3.7647,-3.761,-3.7614,-3.7596,-3.7596,-3.7614,-3.7596,-3.7596,-3.7632,-3.7964,-3.8101,-3.8158,-3.8501,-3.8817,-3.8907,-3.8307,-3.8366,-3.9313,-4.0309,-4.132,-4.2252,-4.3075,-4.3479,-4.3479,-4.3479,-4.3479,-4.3479,-4.3479,-4.3479,-4.3479,-4.3479,-4.3479,-4.3479,-4.3479,-4.3479,-4.3479,-4.3479,-4.3479,-4.3479,-4.3479,-4.3479,-4.3552,-4.4026,-4.4724,-4.548,-4.6305,-4.6764,-4.6838,-4.7333,-4.7645,-4.7517,-4.6361,-4.5571,-4.5443,-4.436,-4.3479,-4.3479,-4.3479,-4.3321,-4.3014,-4.2788,-4.2598,-4.2121,-4.1895,-4.1768,-4.181,-4.1402,-4.0949,-4.0417,-4.0154,-4.0121,-4.0087,-4.0087,-4.0087,-4.0087,-4.0087,-4.0087,-4.0087,-4.0087,-4.0087,-4.0087,-4.0087,-4.0087,-4.0087,-4.0087,-4.0087,-4.0087,-4.0087,-4.0087,-4.1768,-4.1623,-4.0688,-3.9716,-3.8467,-3.8634,-3.8394,-3.7992,-3.8475,-3.8707,-3.8707,-3.8707,-3.8676,-3.8578,-3.8546,-3.8596,-3.8596,-3.8546,-3.8546,-3.8546,-3.8546,-3.8627,-3.8645,-3.8627,-3.8596,-3.8515,-3.8469,-3.8519,-3.8564,-3.8596,-3.8627,-3.8596,-3.8546,-3.8596,-3.8619,-3.8669,-3.8695,-3.8792,-3.886,-3.9098,-3.9777,-3.98,-3.9804,-4.0075,-4.1372,-4.2197,-4.2433,-4.3075,-4.3479,-4.3479,-4.3479,-4.3479,-4.3479,-4.3479,-4.3479,-4.3479,-4.3479,-4.3479,-4.3479,-4.3513,-4.3513,-4.3513,-4.3563,-4.3532,-4.3624,-4.3624,-4.3603,-4.3532,-4.364,-4.4009,-4.4689,-4.5497,-4.5938,-4.5975,-4.6012,-4.6122,-4.6085,-4.5461,-4.4856,-4.4709,-4.4048,-4.3534,-4.3479,-4.3479,-4.3479,-4.3339,-4.3014,-4.2693,-4.2637,-4.2203,-4.1979,-4.1937,-4.1793,-4.1578,-4.0949,-4.0655,-4.0336,-4.0204,-4.0286,-4.0121,-4.0121,-4.0087,-4.0121,-4.0087,-4.0087,-4.0087,-4.0087,-4.0087,-4.0087,-4.0087,-4.0087,-4.0087,-4.0087,-4.0087,-4.0087,-4.258,-4.2794,-4.1903,-4.0992,-4.0104,-3.9685,-3.9068,-3.8438,-3.8634,-3.8707,-3.8707,-3.8707,-3.8707,-3.8707,-3.8707,-3.8707,-3.8707,-3.8707,-3.8707,-3.8707,-3.8707,-3.8707,-3.8707,-3.8707,-3.8707,-3.8707,-3.8707,-3.8707,-3.8707,-3.8707,-3.8707,-3.8707,-3.8707,-3.8927,-3.9368,-3.946,-3.9706,-4.0185,-4.0239,-4.0396,-4.0675,-4.1185,-4.1423,-4.1442,-4.1992,-4.2543,-4.3057,-4.3351,-4.3479,-4.3479,-4.3479,-4.3479,-4.3479,-4.3479,-4.3479,-4.3479,-4.3479,-4.3479,-4.3513,-4.3712,-4.3818,-4.3836,-4.4065,-4.416,-4.4199,-4.4207,-4.4225,-4.4165,-4.3962,-4.4036,-4.4243,-4.4791,-4.5131,-4.5186,-4.5571,-4.5828,-4.5755,-4.5204,-4.4709,-4.4599,-4.3993,-4.3497,-4.3479,-4.3479,-4.3479,-4.3497,-4.3339,-4.3214,-4.3178,-4.2995,-4.281,-4.2828,-4.258,-4.2302,-4.2121,-4.1534,-4.1105,-4.0797,-4.0625,-4.0417,-4.0286,-4.0204,-4.0154,-4.0121,-4.0087,-4.0087,-4.0087,-4.0087,-4.0087,-4.0087,-4.0087,-4.0087,-4.0087,-4.0087,-4.0087,-4.3178,-4.3298,-4.2351,-4.162,-4.0994,-3.995,-3.9209,-3.8726,-3.8707,-3.8707,-3.8707,-3.8707,-3.8707,-3.8707,-3.8707,-3.8707,-3.8707,-3.8707,-3.8707,-3.8707,-3.8707,-3.8707,-3.8707,-3.8707,-3.8707,-3.8707,-3.8707,-3.8707,-3.8707,-3.8707,-3.8836,-3.9093,-3.9093,-3.9496,-4.0157,-4.0286,-4.0588,-4.102,-4.1121,-4.1189,-4.1519,-4.2029,-4.2433,-4.2635,-4.269,-4.2928,-4.3461,-4.3479,-4.3479,-4.3479,-4.3479,-4.3548,-4.3646,-4.3647,-4.3725,-4.3818,-4.3886,-4.3855,-4.3868,-4.4076,-4.4175,-4.4204,-4.4419,-4.459,-4.4594,-4.4568,-4.4589,-4.453,-4.4403,-4.4205,-4.4248,-4.4476,-4.4558,-4.4446,-4.48,-4.5112,-4.5094,-4.4654,-4.4342,-4.4213,-4.3828,-4.3534,-4.3479,-4.3479,-4.3479,-4.3479,-4.3479,-4.3479,-4.3479,-4.3479,-4.3479,-4.3479,-4.3178,-4.2976,-4.2846,-4.2523,-4.1877,-4.149,-4.1196,-4.0891,-4.0577,-4.04,-4.0286,-4.0154,-4.0121,-4.0121,-4.0121,-4.0121,-4.0087,-4.0087,-4.0087,-4.0087,-4.0087,-4.0087,-4.0087,-4.3497,-4.3261,-4.1789,-4.1225,-4.0894,-3.9575,-3.8762,-3.8726,-3.8707,-3.8707,-3.8707,-3.8707,-3.8707,-3.8707,-3.8707,-3.8707,-3.8707,-3.8707,-3.8707,-3.8707,-3.8707,-3.8707,-3.8707,-3.8707,-3.8707,-3.8707,-3.8707,-3.8707,-3.8707,-3.8799,-3.9166,-3.9735,-3.9863,-4.0322,-4.1111,-4.1111,-4.1148,-4.1328,-4.1401,-4.1662,-4.2221,-4.2415,-4.2776,-4.3382,-4.3456,-4.3508,-4.3529,-4.3513,-4.3479,-4.3497,-4.3513,-4.3679,-4.396,-4.4026,-4.4158,-4.4425,-4.4553,-4.4553,-4.4572,-4.4553,-4.4606,-4.4606,-4.4631,-4.472,-4.4726,-4.47,-4.4697,-4.4709,-4.4652,-4.4592,-4.46,-4.4584,-4.4383,-4.3716,-4.3889,-4.3907,-4.3731,-4.3552,-4.3497,-4.3552,-4.3497,-4.3479,-4.3479,-4.3479,-4.3479,-4.3479,-4.3479,-4.3479,-4.3479,-4.3479,-4.3479,-4.3479,-4.341,-4.3286,-4.341,-4.3391,-4.2734,-4.2185,-4.1937,-4.1639,-4.1178,-4.092,-4.0797,-4.0689,-4.0417,-4.0368,-4.0336,-4.0286,-4.0121,-4.0087,-4.0087,-4.0121,-4.0087,-4.0087,-4.0087,-4.3479,-4.3387,-4.237,-4.1601,-4.1027,-3.9968,-3.9246,-3.8726,-3.8707,-3.8707,-3.8707,-3.8707,-3.8707,-3.8707,-3.8707,-3.8707,-3.8707,-3.8707,-3.8707,-3.8719,-3.8707,-3.8707,-3.8707,-3.8707,-3.8707,-3.8707,-3.8707,-3.8707,-3.8848,-3.9289,-3.968,-3.9937,-4.0469,-4.1148,-4.1915,-4.1956,-4.2158,-4.2724,-4.2987,-4.3135,-4.3164,-4.3356,-4.3627,-4.3812,-4.3849,-4.3955,-4.4194,-4.3758,-4.3513,-4.3513,-4.3726,-4.4016,-4.4353,-4.441,-4.4459,-4.4562,-4.458,-4.458,-4.4631,-4.4825,-4.4943,-4.4988,-4.514,-4.5263,-4.5283,-4.5263,-4.5246,-4.5241,-4.5087,-4.492,-4.4919,-4.4716,-4.4508,-4.4299,-4.4252,-4.4125,-4.3868,-4.3664,-4.3513,-4.3479,-4.3479,-4.3479,-4.3479,-4.3479,-4.3479,-4.3479,-4.3479,-4.3479,-4.3479,-4.3479,-4.3479,-4.3479,-4.3479,-4.3479,-4.3479,-4.3479,-4.3142,-4.2734,-4.2541,-4.2203,-4.175,-4.1473,-4.1375,-4.115,-4.0844,-4.0672,-4.0625,-4.0497,-4.0434,-4.0204,-4.0254,-4.0204,-4.0121,-4.0171,-4.0254,-4.3041,-4.2947,-4.186,-4.1129,-4.0569,-3.9785,-3.9191,-3.8726,-3.8707,-3.8707,-3.8707,-3.8707,-3.8762,-3.8844,-3.8844,-3.8913,-3.9027,-3.9036,-3.9036,-3.897,-3.878,-3.8707,-3.8719,-3.8815,-3.9143,-3.946,-3.9509,-3.9668,-3.9993,-4.0448,-4.0884,-4.1237,-4.1672,-4.2352,-4.3064,-4.3175,-4.3452,-4.3904,-4.4067,-4.4121,-4.3999,-4.4121,-4.4233,-4.4204,-4.4233,-4.4346,-4.4553,-4.4154,-4.3899,-4.3931,-4.4087,-4.4401,-4.4743,-4.4784,-4.4844,-4.4944,-4.4966,-4.4988,-4.4988,-4.5182,-4.5283,-4.5303,-4.5495,-4.5586,-4.5586,-4.5586,-4.5586,-4.5547,-4.5393,-4.5278,-4.5263,-4.5129,-4.4969,-4.4966,-4.4707,-4.4527,-4.4204,-4.3912,-4.3726,-4.3679,-4.3597,-4.3513,-4.3479,-4.3479,-4.3479,-4.3479,-4.3479,-4.3479,-4.3479,-4.3479,-4.3479,-4.3479,-4.3479,-4.3479,-4.3479,-4.3479,-4.3479,-4.3321,-4.3124,-4.2714,-4.2266,-4.2144,-4.2038,-4.1682,-4.1331,-4.1268,-4.1241,-4.1076,-4.0955,-4.0737,-4.0642,-4.0814,-4.0955,-4.0594,-4.0546,-4.2221,-4.2051,-4.0571,-4.0005,-3.9863,-3.9135,-3.8762,-3.8707,-3.8707,-3.8707,-3.8707,-3.8707,-3.8844,-3.9063,-3.9063,-3.9205,-3.9552,-3.9529,-3.9505,-3.9377,-3.9091,-3.8833,-3.8873,-3.9184,-3.9821,-4.0596,-4.0841,-4.1255,-4.1703,-4.1938,-4.2529,-4.2982,-4.3163,-4.3712,-4.421,-4.4535,-4.4439,-4.4443,-4.4571,-4.4611,-4.4538,-4.4615,-4.4631,-4.4624,-4.4606,-4.4657,-4.4732,-4.4682,-4.4631,-4.4606,-4.4606,-4.4776,-4.5058,-4.5132,-4.526,-4.5494,-4.5568,-4.5531,-4.5568,-4.5513,-4.5549,-4.5531,-4.5568,-4.5586,-4.5586,-4.5586,-4.5586,-4.5586,-4.5547,-4.5566,-4.5547,-4.5512,-4.5513,-4.5495,-4.503,-4.4682,-4.4624,-4.4261,-4.4076,-4.4004,-4.3758,-4.355,-4.3584,-4.3566,-4.3534,-4.3479,-4.3479,-4.3479,-4.3479,-4.3479,-4.3479,-4.3479,-4.3479,-4.3479,-4.3479,-4.3479,-4.3479,-4.3444,-4.3375,-4.3124,-4.2828,-4.2752,-4.2675,-4.2324,-4.1937,-4.1895,-4.1768,-4.1639,-4.1508,-4.142,-4.1464,-4.1768,-4.1595,-4.1196,-4.1013,-4.1437,-4.1313,-4.0322,-3.9891,-3.979,-3.9061,-3.8689,-3.8689,-3.8707,-3.875,-3.8689,-3.8707,-3.8902,-3.9117,-3.9125,-3.9289,-3.9576,-3.9622,-3.9599,-3.9576,-3.9476,-3.9396,-3.9527,-4.0096,-4.058,-4.0999,-4.1604,-4.1907,-4.2139,-4.2787,-4.3145,-4.3303,-4.3995,-4.4348,-4.458,-4.4631,-4.4602,-4.4645,-4.4865,-4.4853,-4.4671,-4.4876,-4.4966,-4.4985,-4.4966,-4.5096,-4.5302,-4.5342,-4.5203,-4.4985,-4.4972,-4.5109,-4.5419,-4.5454,-4.549,-4.5566,-4.5586,-4.5586,-4.5586,-4.5586,-4.5586,-4.5586,-4.5586,-4.5586,-4.5586,-4.5586,-4.5586,-4.5586,-4.5586,-4.5586,-4.5586,-4.5586,-4.5586,-4.5549,-4.5222,-4.4966,-4.4919,-4.4682,-4.4447,-4.443,-4.4321,-4.4147,-4.3939,-4.3874,-4.38,-4.3618,-4.3548,-4.3548,-4.3563,-4.3479,-4.3479,-4.3479,-4.3479,-4.3479,-4.3479,-4.3479,-4.3479,-4.3479,-4.3444,-4.3444,-4.3267,-4.3232,-4.325,-4.3124,-4.2619,-4.2444,-4.2284,-4.208,-4.2038,-4.2062,-4.2021,-4.2085,-4.1877,-4.1578,-4.1595,-4.0595,-4.0524,-3.9743,-3.9473,-3.9515,-3.9071,-3.8934,-3.9073,-3.9091,-3.9091,-3.9091,-3.9091,-3.9242,-3.9505,-3.9529,-3.9671,-3.9945,-3.9984,-3.9984,-3.9984,-3.9984,-3.9924,-4.003,-4.0672,-4.1314,-4.1915,-4.2637,-4.3229,-4.3634,-4.4067,-4.4214,-4.4388,-4.4763,-4.4992,-4.5055,-4.503,-4.5011,-4.5074,-4.5222,-4.5208,-4.5051,-4.5208,-4.5285,-4.5322,-4.5322,-4.5419,-4.5586,-4.5586,-4.5495,-4.5361,-4.532,-4.54,-4.5587,-4.5586,-4.5586,-4.5586,-4.5586,-4.5586,-4.5586,-4.5586,-4.5586,-4.5586,-4.5586,-4.5586,-4.5586,-4.5586,-4.5586,-4.5586,-4.5586,-4.5586,-4.5586,-4.5586,-4.5586,-4.5568,-4.5419,-4.5322,-4.5302,-4.5011,-4.483,-4.4796,-4.4693,-4.455,-4.4289,-4.4263,-4.4153,-4.3999,-4.3836,-4.3772,-4.3726,-4.3597,-4.3513,-4.3529,-4.3513,-4.3513,-4.3513,-4.3479,-4.3479,-4.3479,-4.3479,-4.3479,-4.3479,-4.3479,-4.3479,-4.3375,-4.3178,-4.2976,-4.279,-4.2714,-4.2772,-4.2716,-4.2505,-4.2465,-4.2426,-4.2185,-4.2203,-3.985,-3.9823,-3.9087,-3.894,-3.9165,-3.9152,-3.929,-3.9558,-3.9557,-3.9552,-3.9571,-3.9576,-3.9709,-4.0101,-3.9982,-4.0213,-4.0473,-4.0406,-4.0438,-4.0422,-4.0406,-4.0339,-4.0253,-4.1227,-4.2049,-4.2921,-4.3932,-4.4685,-4.5071,-4.5396,-4.551,-4.5398,-4.5475,-4.5549,-4.5495,-4.555,-4.5586,-4.5513,-4.5513,-4.5512,-4.547,-4.553,-4.5531,-4.5531,-4.5531,-4.555,-4.5586,-4.5586,-4.5586,-4.5586,-4.5586,-4.5568,-4.5586,-4.5586,-4.5586,-4.5586,-4.5586,-4.5586,-4.5586,-4.5586,-4.5586,-4.5586,-4.5586,-4.5586,-4.5586,-4.5586,-4.5586,-4.5586,-4.5586,-4.5586,-4.5586,-4.5586,-4.5586,-4.5586,-4.5586,-4.5586,-4.5531,-4.5322,-4.514,-4.514,-4.4872,-4.4751,-4.4657,-4.4638,-4.4619,-4.4346,-4.4194,-4.4136,-4.4065,-4.3974,-4.3823,-4.3646,-4.3631,-4.3582,-4.3548,-4.3479,-4.3479,-4.3479,-4.3479,-4.3479,-4.3479,-4.3479,-4.3479,-4.341,-4.3286,-4.3286,-4.3286,-4.3321,-4.3321,-4.3303,-4.3014,-4.3178,-4.3356,-4.294,-4.2752,-3.9666,-3.9658,-3.9468,-3.9442,-3.9486,-3.9499,-3.9538,-3.9618,-3.9629,-3.9668,-3.9622,-3.9622,-3.9819,-4.0101,-4.0139,-4.0232,-4.0473,-4.0489,-4.0489,-4.0489,-4.0489,-4.0473,-4.0735,-4.1867,-4.2766,-4.3412,-4.4624,-4.5374,-4.5566,-4.5586,-4.5586,-4.5586,-4.5586,-4.5586,-4.5586,-4.5586,-4.5586,-4.5586,-4.5586,-4.5586,-4.5586,-4.5586,-4.5586,-4.5586,-4.5586,-4.5586,-4.5586,-4.5586,-4.5586,-4.5586,-4.5586,-4.5586,-4.5586,-4.5586,-4.5586,-4.5586,-4.5586,-4.5586,-4.5586,-4.5586,-4.5586,-4.5586,-4.5586,-4.5586,-4.5586,-4.5586,-4.5586,-4.5586,-4.5586,-4.5586,-4.5586,-4.5586,-4.5586,-4.5586,-4.5586,-4.5586,-4.5586,-4.555,-4.5457,-4.5438,-4.5381,-4.5283,-4.5033,-4.5012,-4.4884,-4.4669,-4.4553,-4.4501,-4.4419,-4.4364,-4.4154,-4.3931,-4.3912,-4.3899,-4.3758,-4.3679,-4.3563,-4.3513,-4.3479,-4.3479,-4.3479,-4.3479,-4.3479,-4.3479,-4.3479,-4.3479,-4.3479,-4.3479,-4.3391,-4.3479,-4.3479,-4.3479,-4.3444,-4.3286,-4.3214,-3.9593,-3.9618,-3.9609,-3.9683,-3.9813,-3.9834,-3.9896,-3.9999,-4.0041,-4.0024,-4.0024,-4.0024,-4.012,-4.0267,-4.0285,-4.0372,-4.0473,-4.0489,-4.0489,-4.0489,-4.0489,-4.0489,-4.0873,-4.2124,-4.3124,-4.3355,-4.4778,-4.5509,-4.5586,-4.5586,-4.5586,-4.5586,-4.5586,-4.5586,-4.5586,-4.5586,-4.5586,-4.5586,-4.5586,-4.5586,-4.5586,-4.5586,-4.5586,-4.5586,-4.5586,-4.5586,-4.5586,-4.5586,-4.5586,-4.5586,-4.5586,-4.5586,-4.5586,-4.5586,-4.5586,-4.5586,-4.5586,-4.5586,-4.5586,-4.5586,-4.5586,-4.5586,-4.5586,-4.5586,-4.5586,-4.5586,-4.5586,-4.5586,-4.5586,-4.5586,-4.5586,-4.5586,-4.5586,-4.5586,-4.5586,-4.5586,-4.5586,-4.5586,-4.5586,-4.5586,-4.5568,-4.5495,-4.538,-4.5302,-4.5283,-4.512,-4.4896,-4.4806,-4.4732,-4.4657,-4.4493,-4.4337,-4.4308,-4.4204,-4.4076,-4.3912,-4.3693,-4.3597,-4.3479,-4.3479,-4.3479,-4.3479,-4.3479,-4.3479,-4.3479,-4.3479,-4.3479,-4.3479,-4.3479,-4.3479,-4.3479,-4.3479,-4.3479,-4.3375,-4.3375,-3.975,-3.974,-3.9729,-3.9888,-4.015,-4.0151,-4.0277,-4.045,-4.0489,-4.0422,-4.0489,-4.0489,-4.0422,-4.0489,-4.0473,-4.0489,-4.0489,-4.0489,-4.0489,-4.0489,-4.0489,-4.0489,-4.0873,-4.1931,-4.2931,-4.3278,-4.4797,-4.5528,-4.5586,-4.5586,-4.5586,-4.5586,-4.5586,-4.5586,-4.5586,-4.5586,-4.5586,-4.5586,-4.5586,-4.5586,-4.5586,-4.5586,-4.5586,-4.5586,-4.5586,-4.5586,-4.5586,-4.5586,-4.5586,-4.5586,-4.5586,-4.5586,-4.5586,-4.5586,-4.5586,-4.5586,-4.5586,-4.5586,-4.5586,-4.5586,-4.5586,-4.5586,-4.5586,-4.5586,-4.5586,-4.5586,-4.5586,-4.5586,-4.5586,-4.5586,-4.5586,-4.5586,-4.5586,-4.5586,-4.5586,-4.5586,-4.5586,-4.5586,-4.5586,-4.5586,-4.5586,-4.5531,-4.5531,-4.5509,-4.5566,-4.5549,-4.5322,-4.514,-4.5074,-4.5007,-4.4849,-4.4707,-4.4638,-4.4527,-4.4364,-4.4252,-4.4035,-4.3772,-4.3612,-4.3563,-4.3529,-4.3479,-4.3479,-4.3479,-4.3479,-4.3479,-4.3479,-4.3479,-4.3479,-4.3479,-4.3479,-4.3479,-4.3479,-4.3479,-4.3479,-4.0362,-4.0353,-4.0361,-4.0383,-4.0427,-4.0434,-4.045,-4.0489,-4.0489,-4.0489,-4.0489,-4.0489,-4.0489,-4.0489,-4.0489,-4.0489,-4.0489,-4.0489,-4.0489,-4.0489,-4.0489,-4.0489,-4.0739,-4.1758,-4.2489,-4.3393,-4.4739,-4.5566,-4.5586,-4.5586,-4.5586,-4.5586,-4.5586,-4.5586,-4.5586,-4.5586,-4.5586,-4.5586,-4.5586,-4.5586,-4.5586,-4.5586,-4.5586,-4.5586,-4.5586,-4.5586,-4.5586,-4.5586,-4.5586,-4.5586,-4.5586,-4.5586,-4.5586,-4.5586,-4.5586,-4.5586,-4.5586,-4.5586,-4.5586,-4.5586,-4.5586,-4.5586,-4.5586,-4.5586,-4.5586,-4.5586,-4.5586,-4.5586,-4.5586,-4.5586,-4.5586,-4.5586,-4.5586,-4.5586,-4.5586,-4.5586,-4.5586,-4.5586,-4.5586,-4.5586,-4.5586,-4.5586,-4.5586,-4.5586,-4.5586,-4.5586,-4.5495,-4.5381,-4.5362,-4.5342,-4.5283,-4.514,-4.5011,-4.4806,-4.4624,-4.4546,-4.4392,-4.4106,-4.3912,-4.3758,-4.3712,-4.3548,-4.3479,-4.3479,-4.3479,-4.3479,-4.3479,-4.3479,-4.3479,-4.3479,-4.3479,-4.3479,-4.3479,-4.3479,-4.3479,-4.0489,-4.0489,-4.0489,-4.0489,-4.0489,-4.0489,-4.0489,-4.0489,-4.0489,-4.0489,-4.0489,-4.0489,-4.0489,-4.0489,-4.0489,-4.0489,-4.0489,-4.0489,-4.0489,-4.0489,-4.0489,-4.0489,-4.0719,-4.1816,-4.2585,-4.347,-4.472,-4.5566,-4.5586,-4.5586,-4.5586,-4.5586,-4.5586,-4.5586,-4.5586,-4.5586,-4.5586,-4.5586,-4.5586,-4.5586,-4.5586,-4.5586,-4.5586,-4.5586,-4.5586,-4.5586,-4.5586,-4.5586,-4.5586,-4.5586,-4.5586,-4.5586,-4.5586,-4.5586,-4.5586,-4.5586,-4.5586,-4.5586,-4.5586,-4.5586,-4.5586,-4.5586,-4.5586,-4.5586,-4.5586,-4.5586,-4.5586,-4.5586,-4.5586,-4.5586,-4.5586,-4.5586,-4.5586,-4.5586,-4.5586,-4.5586,-4.5586,-4.5586,-4.5586,-4.5586,-4.5586,-4.5586,-4.5586,-4.5586,-4.5586,-4.5586,-4.5586,-4.5586,-4.5586,-4.5568,-4.5513,-4.5438,-4.5263,-4.5118,-4.4943,-4.4872,-4.4751,-4.4474,-4.4223,-4.4065,-4.3912,-4.3772,-4.3631,-4.3513,-4.3513,-4.3563,-4.3479,-4.3479,-4.3479,-4.3479,-4.3479,-4.3479,-4.3479,-4.3479,-4.3479,-4.0489,-4.0489,-4.0489,-4.0489,-4.0489,-4.0489,-4.0489,-4.0489,-4.0489,-4.0489,-4.0489,-4.0489,-4.0489,-4.0489,-4.0489,-4.0489,-4.0489,-4.0489,-4.0489,-4.0489,-4.0508,-4.0527,-4.1181,-4.1989,-4.297,-4.3643,-4.4489,-4.5432,-4.5586,-4.5586,-4.5586,-4.5586,-4.5586,-4.5586,-4.5586,-4.5586,-4.5586,-4.5586,-4.5586,-4.5586,-4.5586,-4.5586,-4.5586,-4.5586,-4.5586,-4.5586,-4.5586,-4.5586,-4.5586,-4.5586,-4.5586,-4.5586,-4.5586,-4.5586,-4.5586,-4.5586,-4.5586,-4.5586,-4.5586,-4.5586,-4.5605,-4.5661,-4.5624,-4.5605,-4.5624,-4.5624,-4.5586,-4.5586,-4.5586,-4.5586,-4.5586,-4.5586,-4.5586,-4.5586,-4.5586,-4.5586,-4.5586,-4.5586,-4.5586,-4.5586,-4.5586,-4.5586,-4.5586,-4.5586,-4.5586,-4.5586,-4.5586,-4.5586,-4.5586,-4.5586,-4.5568,-4.5586,-4.5513,-4.5419,-4.5302,-4.5222,-4.5052,-4.4757,-4.4553,-4.4364,-4.4194,-4.4046,-4.3881,-4.3726,-4.366,-4.3693,-4.3579,-4.3479,-4.3479,-4.3479,-4.3479,-4.3479,-4.3479,-4.3479,-4.3479,-4.0489,-4.0489,-4.0489,-4.0489,-4.0489,-4.0489,-4.0489,-4.0489,-4.0489,-4.0489,-4.0489,-4.0489,-4.0489,-4.0489,-4.0489,-4.0489,-4.0489,-4.0489,-4.0489,-4.0489,-4.0604,-4.0969,-4.1546,-4.1758,-4.3066,-4.3912,-4.4432,-4.4913,-4.5432,-4.5605,-4.5586,-4.5586,-4.5586,-4.5586,-4.5586,-4.5586,-4.5586,-4.5586,-4.5586,-4.5586,-4.5586,-4.5586,-4.5586,-4.5586,-4.5605,-4.5586,-4.5605,-4.5605,-4.5605,-4.5586,-4.5586,-4.5586,-4.5586,-4.5586,-4.5586,-4.5586,-4.5586,-4.5586,-4.5586,-4.5586,-4.5624,-4.5699,-4.568,-4.5699,-4.5699,-4.5661,-4.5586,-4.5586,-4.5586,-4.5586,-4.5586,-4.5586,-4.5586,-4.5586,-4.5586,-4.5586,-4.5586,-4.5586,-4.5586,-4.5586,-4.5586,-4.5586,-4.5586,-4.5586,-4.5586,-4.5586,-4.5586,-4.5586,-4.5586,-4.5586,-4.5586,-4.5586,-4.5586,-4.5513,-4.5495,-4.5438,-4.5322,-4.5074,-4.4919,-4.4682,-4.4428,-4.429,-4.4233,-4.4106,-4.3986,-4.374,-4.3563,-4.3479,-4.3479,-4.3479,-4.3479,-4.3479,-4.3479,-4.3479,-4.3479,-4.0489,-4.0489,-4.0489,-4.0489,-4.0489,-4.0489,-4.0489,-4.0489,-4.0489,-4.0489,-4.0489,-4.0489,-4.0489,-4.0508,-4.0489,-4.0489,-4.0489,-4.0508,-4.0508,-4.07,-4.0989,-4.1431,-4.197,-4.2816,-4.3929,-4.4289,-4.493,-4.5413,-4.5699,-4.5661,-4.5586,-4.5605,-4.5586,-4.5586,-4.5605,-4.5586,-4.5586,-4.5586,-4.5586,-4.5586,-4.5586,-4.5586,-4.5586,-4.5586,-4.568,-4.5661,-4.564,-4.568,-4.5661,-4.5605,-4.5586,-4.5586,-4.5586,-4.5586,-4.5586,-4.5586,-4.5586,-4.5586,-4.5586,-4.5586,-4.5661,-4.568,-4.5661,-4.5642,-4.568,-4.5642,-4.5586,-4.5586,-4.5586,-4.5586,-4.5586,-4.5586,-4.5586,-4.5586,-4.5586,-4.5586,-4.5586,-4.5586,-4.5586,-4.5586,-4.5586,-4.5586,-4.5586,-4.5586,-4.5586,-4.5586,-4.5586,-4.5586,-4.5586,-4.5586,-4.5586,-4.5586,-4.5586,-4.5586,-4.5568,-4.5531,-4.5513,-4.5362,-4.5342,-4.5077,-4.4707,-4.4553,-4.4508,-4.4261,-4.3974,-4.3758,-4.3563,-4.3479,-4.3479,-4.3479,-4.3479,-4.3479,-4.3479,-4.3479,-4.3479,-4.0489,-4.0489,-4.0489,-4.0489,-4.0489,-4.0489,-4.0489,-4.0489,-4.0489,-4.0508,-4.0546,-4.0566,-4.0566,-4.0585,-4.0585,-4.062,-4.0585,-4.0566,-4.0754,-4.1081,-4.1543,-4.212,-4.289,-4.3987,-4.4588,-4.4839,-4.5457,-4.5791,-4.5795,-4.5765,-4.5692,-4.568,-4.5719,-4.5699,-4.568,-4.5699,-4.5719,-4.5719,-4.5699,-4.5699,-4.5699,-4.568,-4.568,-4.5719,-4.5757,-4.5789,-4.5715,-4.5755,-4.5757,-4.5719,-4.5699,-4.5719,-4.5699,-4.5699,-4.5699,-4.5719,-4.5719,-4.5699,-4.5699,-4.5699,-4.568,-4.568,-4.5661,-4.568,-4.5605,-4.5586,-4.5624,-4.5661,-4.568,-4.568,-4.5661,-4.5661,-4.5642,-4.5624,-4.5586,-4.5586,-4.5586,-4.5586,-4.5586,-4.5586,-4.5586,-4.5586,-4.5586,-4.5586,-4.5586,-4.5586,-4.5586,-4.5586,-4.5586,-4.5586,-4.5586,-4.5586,-4.5586,-4.5586,-4.5586,-4.5586,-4.5586,-4.5586,-4.5568,-4.5438,-4.5055,-4.4896,-4.483,-4.4508,-4.4136,-4.4076,-4.4095,-4.3791,-4.3479,-4.3479,-4.3479,-4.3479,-4.3479,-4.3479,-4.3479,-4.0489,-4.0489,-4.0489,-4.0508,-4.0489,-4.0489,-4.0489,-4.0508,-4.0508,-4.0596,-4.068,-4.0735,-4.0735,-4.0761,-4.0742,-4.0761,-4.077,-4.0773,-4.1219,-4.1716,-4.2187,-4.3042,-4.391,-4.4562,-4.5085,-4.5615,-4.593,-4.593,-4.5911,-4.5936,-4.5893,-4.5883,-4.5835,-4.5866,-4.5847,-4.5835,-4.5838,-4.5838,-4.5838,-4.5841,-4.5844,-4.5844,-4.5847,-4.5849,-4.5885,-4.5881,-4.5871,-4.588,-4.5877,-4.5838,-4.5838,-4.5838,-4.5816,-4.5819,-4.5835,-4.5835,-4.5819,-4.5841,-4.5849,-4.5806,-4.5813,-4.5815,-4.5815,-4.5738,-4.568,-4.5624,-4.568,-4.5755,-4.5767,-4.5767,-4.577,-4.5776,-4.5699,-4.5642,-4.5586,-4.5586,-4.5586,-4.5586,-4.5586,-4.5586,-4.5586,-4.5586,-4.5586,-4.5586,-4.5586,-4.5586,-4.5586,-4.5586,-4.5586,-4.5586,-4.5586,-4.5586,-4.5586,-4.5586,-4.5586,-4.5586,-4.5586,-4.5531,-4.5495,-4.5495,-4.5381,-4.5263,-4.514,-4.4966,-4.4663,-4.4657,-4.4546,-4.4154,-4.3823,-4.3597,-4.3479,-4.3479,-4.3479,-4.3479,-4.3479,-4.0546,-4.062,-4.062,-4.0566,-4.0489,-4.0489,-4.0546,-4.062,-4.062,-4.0668,-4.0765,-4.0789,-4.0808,-4.0818,-4.0804,-4.0793,-4.0897,-4.141,-4.1779,-4.241,-4.3147,-4.4031,-4.4807,-4.5288,-4.5742,-4.5995,-4.6076,-4.6131,-4.6152,-4.6119,-4.6144,-4.6096,-4.5976,-4.5898,-4.5898,-4.5937,-4.5917,-4.5917,-4.5898,-4.5898,-4.5898,-4.5898,-4.5898,-4.5898,-4.5998,-4.5974,-4.592,-4.5981,-4.5968,-4.5925,-4.5929,-4.5917,-4.5937,-4.5917,-4.5917,-4.5925,-4.5925,-4.596,-4.5989,-4.5931,-4.5886,-4.5871,-4.5873,-4.5815,-4.5774,-4.5796,-4.5815,-4.5844,-4.5814,-4.5835,-4.58,-4.5722,-4.5624,-4.5605,-4.5586,-4.5605,-4.5605,-4.5605,-4.5586,-4.5586,-4.5586,-4.5586,-4.5586,-4.5586,-4.5586,-4.5586,-4.5586,-4.5586,-4.5586,-4.5586,-4.5586,-4.5586,-4.5586,-4.5586,-4.5586,-4.5586,-4.5586,-4.5531,-4.5457,-4.5457,-4.5475,-4.5513,-4.54,-4.5282,-4.5118,-4.4919,-4.4682,-4.4392,-4.4065,-4.3726,-4.3563,-4.3479,-4.3479,-4.3479,-4.3479,-4.0639,-4.0735,-4.0716,-4.0677,-4.06,-4.06,-4.0639,-4.0712,-4.0731,-4.0771,-4.0849,-4.0893,-4.0917,-4.0911,-4.0923,-4.0928,-4.1072,-4.1485,-4.2095,-4.2816,-4.3699,-4.4635,-4.5253,-4.5724,-4.6095,-4.6191,-4.623,-4.6273,-4.6265,-4.6287,-4.6267,-4.6209,-4.6105,-4.6047,-4.6027,-4.6016,-4.6035,-4.6027,-4.6027,-4.6008,-4.6027,-4.6027,-4.6027,-4.604,-4.6124,-4.6134,-4.6098,-4.6128,-4.6111,-4.6075,-4.6047,-4.6047,-4.6027,-4.6027,-4.6016,-4.6016,-4.6013,-4.608,-4.6104,-4.6053,-4.5974,-4.5978,-4.5924,-4.5896,-4.5905,-4.5907,-4.5902,-4.5966,-4.5905,-4.5874,-4.5875,-4.5857,-4.5776,-4.5776,-4.5699,-4.5699,-4.568,-4.5661,-4.5605,-4.5586,-4.5586,-4.5586,-4.5586,-4.5586,-4.5586,-4.5586,-4.5586,-4.5586,-4.5586,-4.5586,-4.5586,-4.5586,-4.5586,-4.5586,-4.5586,-4.5586,-4.5586,-4.5586,-4.5513,-4.5457,-4.5495,-4.5568,-4.5568,-4.5419,-4.5243,-4.5074,-4.4896,-4.4707,-4.428,-4.3823,-4.3679,-4.3529,-4.3479,-4.3479,-4.3479,-4.0789,-4.0793,-4.0793,-4.0808,-4.0791,-4.0789,-4.0785,-4.0815,-4.0829,-4.0878,-4.1006,-4.1114,-4.1152,-4.1152,-4.1113,-4.1113,-4.1191,-4.1387,-4.2109,-4.334,-4.3926,-4.4805,-4.5644,-4.623,-4.625,-4.6289,-4.6289,-4.6289,-4.6289,-4.6289,-4.6289,-4.6289,-4.623,-4.623,-4.6269,-4.6269,-4.6289,-4.6289,-4.6269,-4.625,-4.625,-4.623,-4.623,-4.623,-4.623,-4.623,-4.623,-4.623,-4.623,-4.6211,-4.6211,-4.623,-4.623,-4.623,-4.623,-4.623,-4.625,-4.6268,-4.6268,-4.617,-4.6113,-4.6094,-4.6033,-4.5988,-4.5935,-4.5947,-4.6002,-4.6094,-4.6055,-4.6074,-4.6096,-4.6075,-4.5938,-4.5877,-4.5816,-4.5789,-4.575,-4.5719,-4.568,-4.5642,-4.5605,-4.5586,-4.5586,-4.5586,-4.5586,-4.5586,-4.5586,-4.5586,-4.5586,-4.5586,-4.5586,-4.5586,-4.5586,-4.5586,-4.5586,-4.5586,-4.5586,-4.5586,-4.5586,-4.5531,-4.5513,-4.5568,-4.5568,-4.5495,-4.5419,-4.5303,-4.5182,-4.5074,-4.4638,-4.4204,-4.3758,-4.3597,-4.3548,-4.3479,-4.3479,-4.0829,-4.0908,-4.0927,-4.0986,-4.1045,-4.0866,-4.0837,-4.0945,-4.1045,-4.1094,-4.1139,-4.119,-4.1191,-4.1191,-4.1191,-4.1211,-4.1269,-4.1914,-4.2773,-4.3594,-4.4121,-4.5195,-4.6016,-4.6269,-4.6289,-4.6289,-4.6289,-4.6289,-4.6289,-4.6289,-4.6289,-4.6289,-4.6289,-4.6289,-4.6289,-4.6289,-4.6289,-4.6289,-4.6289,-4.6289,-4.6289,-4.6289,-4.6289,-4.6289,-4.6289,-4.6289,-4.6289,-4.6289,-4.6289,-4.6289,-4.6289,-4.6289,-4.6289,-4.6289,-4.6289,-4.6289,-4.6289,-4.6303,-4.6304,-4.625,-4.625,-4.6211,-4.6172,-4.6133,-4.6172,-4.6172,-4.6212,-4.6191,-4.6152,-4.6133,-4.6099,-4.5998,-4.5908,-4.5906,-4.5852,-4.5863,-4.5847,-4.5789,-4.5757,-4.5719,-4.568,-4.5605,-4.5586,-4.5586,-4.5586,-4.5586,-4.5586,-4.5586,-4.5586,-4.5586,-4.5586,-4.5586,-4.5586,-4.5586,-4.5586,-4.5586,-4.5586,-4.5586,-4.5586,-4.5586,-4.5586,-4.5586,-4.5586,-4.5531,-4.5549,-4.5549,-4.54,-4.5243,-4.5055,-4.4688,-4.4233,-4.3804,-4.3679,-4.3597,-4.3479,-4.0986,-4.1052,-4.1084,-4.1121,-4.1152,-4.0996,-4.0992,-4.1069,-4.1152,-4.1191,-4.1191,-4.1191,-4.1191,-4.1191,-4.1191,-4.1191,-4.1269,-4.1699,-4.2402,-4.3301,-4.4121,-4.4922,-4.5586,-4.6172,-4.6289,-4.6289,-4.6289,-4.6289,-4.6289,-4.6289,-4.6289,-4.6289,-4.6289,-4.6289,-4.6289,-4.6289,-4.6289,-4.6289,-4.6289,-4.6289,-4.6289,-4.6289,-4.6289,-4.6289,-4.6289,-4.6289,-4.6289,-4.6289,-4.6289,-4.6289,-4.6289,-4.6289,-4.6289,-4.6289,-4.6289,-4.6289,-4.6289,-4.6289,-4.6289,-4.6289,-4.6289,-4.6289,-4.6289,-4.6289,-4.6289,-4.6269,-4.6269,-4.625,-4.6191,-4.6191,-4.6152,-4.6035,-4.6035,-4.6016,-4.5976,-4.5996,-4.5949,-4.5914,-4.5827,-4.5793,-4.5738,-4.568,-4.5586,-4.5586,-4.5586,-4.5586,-4.5586,-4.5586,-4.5586,-4.5586,-4.5586,-4.5586,-4.5586,-4.5586,-4.5586,-4.5586,-4.5586,-4.5586,-4.5586,-4.5586,-4.5586,-4.5586,-4.5586,-4.5586,-4.5586,-4.5586,-4.5531,-4.5419,-4.5243,-4.5033,-4.4732,-4.4337,-4.3962,-4.3758,-4.3612,-4.1191,-4.1191,-4.1205,-4.1198,-4.1191,-4.1172,-4.1172,-4.1191,-4.1191,-4.1191,-4.1191,-4.1191,-4.1191,-4.1191,-4.1191,-4.1191,-4.1211,-4.1289,-4.1855,-4.2578,-4.3535,-4.4336,-4.5195,-4.5918,-4.6211,-4.6289,-4.6289,-4.6289,-4.6289,-4.6289,-4.6289,-4.6289,-4.6289,-4.6289,-4.6289,-4.6289,-4.6289,-4.6289,-4.6289,-4.6289,-4.6289,-4.6289,-4.6289,-4.6289,-4.6289,-4.6289,-4.6289,-4.6289,-4.6289,-4.6289,-4.6289,-4.6289,-4.6289,-4.6289,-4.6289,-4.6289,-4.6289,-4.6289,-4.6289,-4.6289,-4.6289,-4.6289,-4.6289,-4.6289,-4.6289,-4.6289,-4.6289,-4.6289,-4.6269,-4.6269,-4.6269,-4.625,-4.625,-4.6191,-4.6152,-4.6113,-4.6094,-4.6025,-4.5947,-4.5886,-4.5825,-4.5757,-4.5661,-4.5624,-4.5642,-4.5586,-4.5586,-4.5586,-4.5586,-4.5586,-4.5586,-4.5586,-4.5586,-4.5586,-4.5586,-4.5586,-4.5586,-4.5586,-4.5586,-4.5586,-4.5586,-4.5586,-4.5586,-4.5586,-4.5586,-4.5586,-4.5568,-4.5513,-4.5438,-4.5243,-4.5055,-4.4638,-4.4194,-4.4004,-4.3849,-4.1191,-4.1191,-4.1202,-4.1192,-4.1191,-4.1191,-4.1191,-4.1191,-4.1191,-4.1191,-4.1191,-4.1191,-4.1191,-4.1191,-4.1191,-4.1191,-4.1191,-4.1308,-4.1758,-4.2441,-4.3262,-4.4141,-4.5,-4.5801,-4.6172,-4.6289,-4.6289,-4.6289,-4.6289,-4.6289,-4.6289,-4.6289,-4.6289,-4.6289,-4.6289,-4.6289,-4.6289,-4.6289,-4.6289,-4.6289,-4.6289,-4.6289,-4.6289,-4.6289,-4.6289,-4.6289,-4.6289,-4.6289,-4.6289,-4.6289,-4.6289,-4.6289,-4.6289,-4.6289,-4.6289,-4.6289,-4.6289,-4.6289,-4.6289,-4.6289,-4.6289,-4.6289,-4.6289,-4.6289,-4.6289,-4.6289,-4.6289,-4.6289,-4.6289,-4.6289,-4.6289,-4.6289,-4.6289,-4.6269,-4.623,-4.6211,-4.6191,-4.6133,-4.6035,-4.5979,-4.5932,-4.5858,-4.575,-4.5719,-4.5719,-4.5642,-4.5586,-4.5586,-4.5586,-4.5586,-4.5586,-4.5586,-4.5586,-4.5586,-4.5586,-4.5586,-4.5586,-4.5586,-4.5586,-4.5586,-4.5586,-4.5586,-4.5586,-4.5586,-4.5586,-4.5586,-4.5586,-4.5568,-4.5513,-4.5531,-4.5381,-4.4881,-4.4489,-4.4318,-4.4076,-4.1191,-4.1191,-4.1191,-4.1191,-4.1191,-4.1191,-4.1191,-4.1191,-4.1191,-4.1191,-4.1191,-4.1191,-4.1191,-4.1191,-4.1191,-4.1191,-4.1191,-4.1211,-4.1484,-4.1933,-4.3183,-4.3828,-4.4687,-4.5664,-4.6191,-4.6289,-4.6289,-4.6289,-4.6289,-4.6289,-4.6289,-4.6289,-4.6289,-4.6289,-4.6289,-4.6289,-4.6289,-4.6289,-4.6289,-4.6289,-4.6289,-4.6289,-4.6289,-4.6289,-4.6289,-4.6289,-4.6289,-4.6289,-4.6289,-4.6289,-4.6289,-4.6289,-4.6289,-4.6289,-4.6289,-4.6289,-4.6289,-4.6289,-4.6289,-4.6289,-4.6289,-4.6289,-4.6289,-4.6289,-4.6289,-4.6289,-4.6289,-4.6289,-4.6289,-4.6289,-4.6289,-4.6289,-4.6289,-4.6289,-4.6289,-4.6289,-4.625,-4.6211,-4.6152,-4.6094,-4.6018,-4.5958,-4.5887,-4.5847,-4.5796,-4.5719,-4.5661,-4.5586,-4.5586,-4.5586,-4.5586,-4.5586,-4.5586,-4.5586,-4.5586,-4.5586,-4.5586,-4.5586,-4.5586,-4.5586,-4.5586,-4.5586,-4.5586,-4.5586,-4.5586,-4.5586,-4.5586,-4.5586,-4.5586,-4.5586,-4.5568,-4.5223,-4.4877,-4.4732,-4.4428,-4.1191,-4.1191,-4.1191,-4.1191,-4.1191,-4.1191,-4.1191,-4.1191,-4.1191,-4.1191,-4.1191,-4.1191,-4.1191,-4.1191,-4.1191,-4.1191,-4.1191,-4.1211,-4.123,-4.1328,-4.2988,-4.3808,-4.4316,-4.5351,-4.6152,-4.6289,-4.6289,-4.6289,-4.6289,-4.6289,-4.6289,-4.6289,-4.6289,-4.6289,-4.6289,-4.6289,-4.6289,-4.6289,-4.6289,-4.6289,-4.6289,-4.6289,-4.6289,-4.6289,-4.6289,-4.6289,-4.6289,-4.6289,-4.6289,-4.6289,-4.6289,-4.6289,-4.6289,-4.6289,-4.6289,-4.6289,-4.6289,-4.6289,-4.6289,-4.6289,-4.6289,-4.6289,-4.6289,-4.6289,-4.6289,-4.6289,-4.6289,-4.6289,-4.6289,-4.6289,-4.6289,-4.6289,-4.6289,-4.6289,-4.6289,-4.6289,-4.6269,-4.625,-4.6211,-4.6172,-4.6152,-4.6055,-4.5963,-4.5899,-4.5831,-4.5786,-4.5699,-4.5605,-4.5586,-4.5586,-4.5586,-4.5586,-4.5586,-4.5586,-4.5586,-4.5586,-4.5586,-4.5586,-4.5586,-4.5586,-4.5586,-4.5586,-4.5586,-4.5586,-4.5586,-4.5586,-4.5586,-4.5586,-4.5586,-4.5586,-4.5531,-4.5438,-4.5263,-4.5096,-4.4781,-4.1191,-4.1191,-4.1191,-4.1191,-4.1191,-4.1191,-4.1191,-4.1191,-4.1191,-4.1191,-4.1191,-4.1191,-4.1191,-4.1191,-4.1191,-4.1191,-4.1191,-4.1172,-4.1191,-4.1719,-4.291,-4.3633,-4.4023,-4.5371,-4.6133,-4.6289,-4.6289,-4.6269,-4.6289,-4.6289,-4.6289,-4.6289,-4.6289,-4.6289,-4.6289,-4.6289,-4.6289,-4.6289,-4.6289,-4.6289,-4.6289,-4.6289,-4.6289,-4.6289,-4.6289,-4.6289,-4.6289,-4.6289,-4.6289,-4.6289,-4.6289,-4.6289,-4.6289,-4.6289,-4.6289,-4.6289,-4.6289,-4.6289,-4.6289,-4.6289,-4.6289,-4.6289,-4.6289,-4.6289,-4.6289,-4.6289,-4.6289,-4.6289,-4.6289,-4.6289,-4.6289,-4.6289,-4.6289,-4.6289,-4.6289,-4.6289,-4.6289,-4.6289,-4.6269,-4.625,-4.625,-4.6152,-4.6055,-4.5962,-4.5866,-4.5765,-4.5657,-4.5586,-4.5605,-4.5605,-4.5586,-4.5586,-4.5586,-4.5586,-4.5586,-4.5586,-4.5586,-4.5586,-4.5586,-4.5586,-4.5586,-4.5586,-4.5586,-4.5586,-4.5586,-4.5586,-4.5586,-4.5586,-4.5586,-4.5586,-4.5586,-4.5513,-4.5513,-4.5381,-4.5074,-4.1191,-4.1191,-4.1191,-4.1191,-4.1191,-4.1191,-4.1191,-4.1191,-4.1191,-4.1191,-4.1191,-4.1191,-4.1191,-4.1191,-4.1191,-4.1191,-4.1172,-4.1113,-4.1094,-4.1601,-4.2627,-4.334,-4.4263,-4.5277,-4.582,-4.6113,-4.6113,-4.6113,-4.6211,-4.623,-4.6211,-4.6269,-4.6289,-4.6289,-4.6289,-4.6289,-4.6289,-4.6289,-4.6289,-4.6289,-4.6289,-4.6289,-4.6289,-4.6289,-4.6289,-4.6289,-4.6289,-4.6289,-4.6289,-4.6289,-4.6289,-4.6289,-4.6289,-4.6289,-4.6289,-4.6289,-4.6289,-4.6289,-4.6289,-4.6289,-4.6289,-4.6289,-4.6289,-4.6289,-4.6289,-4.6289,-4.6289,-4.6289,-4.6289,-4.6289,-4.6289,-4.6289,-4.6289,-4.6289,-4.6289,-4.6289,-4.6289,-4.6289,-4.6289,-4.6289,-4.6269,-4.625,-4.6152,-4.6083,-4.601,-4.5931,-4.5813,-4.568,-4.568,-4.5661,-4.5605,-4.5586,-4.5586,-4.5586,-4.5586,-4.5586,-4.5586,-4.5586,-4.5586,-4.5586,-4.5586,-4.5586,-4.5586,-4.5586,-4.5586,-4.5586,-4.5586,-4.5586,-4.5586,-4.5586,-4.5586,-4.5586,-4.5586,-4.5586,-4.5362,-4.1094,-4.1191,-4.1172,-4.1152,-4.1172,-4.1152,-4.1133,-4.1133,-4.1133,-4.1133,-4.1133,-4.1133,-4.1168,-4.1172,-4.1152,-4.1152,-4.1091,-4.1003,-4.0963,-4.1409,-4.2671,-4.3248,-4.4054,-4.5046,-4.5658,-4.5949,-4.5959,-4.6013,-4.6094,-4.6094,-4.6133,-4.623,-4.6247,-4.623,-4.6248,-4.625,-4.625,-4.625,-4.625,-4.6269,-4.6289,-4.6289,-4.6289,-4.6289,-4.6289,-4.6289,-4.6289,-4.6289,-4.6289,-4.6289,-4.6289,-4.6289,-4.6289,-4.6289,-4.6289,-4.6289,-4.6289,-4.6289,-4.6289,-4.6289,-4.6289,-4.6289,-4.6289,-4.6289,-4.6289,-4.6289,-4.6289,-4.6289,-4.6289,-4.6289,-4.6289,-4.6289,-4.6289,-4.6289,-4.6289,-4.6289,-4.6289,-4.6289,-4.6289,-4.6289,-4.6289,-4.6289,-4.625,-4.6172,-4.6113,-4.6055,-4.5976,-4.5868,-4.5774,-4.5719,-4.568,-4.5624,-4.5586,-4.5586,-4.5586,-4.5586,-4.5586,-4.5586,-4.5586,-4.5586,-4.5586,-4.5586,-4.5586,-4.5586,-4.5586,-4.5586,-4.5586,-4.5586,-4.5586,-4.5586,-4.5586,-4.5586,-4.5586,-4.5586,-4.5586,-4.0566,-4.1191,-4.1074,-4.1035,-4.1035,-4.0915,-4.0887,-4.0878,-4.0871,-4.087,-4.089,-4.0896,-4.0921,-4.1028,-4.0918,-4.089,-4.0935,-4.0867,-4.0848,-4.1109,-4.2618,-4.3173,-4.3882,-4.5012,-4.5712,-4.5881,-4.5873,-4.5911,-4.5958,-4.5963,-4.5962,-4.6001,-4.6001,-4.6008,-4.6001,-4.6055,-4.6133,-4.6139,-4.6151,-4.616,-4.6258,-4.6289,-4.6289,-4.6289,-4.6289,-4.6289,-4.6289,-4.6289,-4.6289,-4.6289,-4.6289,-4.6289,-4.6289,-4.6289,-4.6289,-4.6289,-4.6289,-4.6289,-4.6289,-4.6289,-4.6289,-4.6289,-4.6289,-4.6289,-4.6289,-4.6289,-4.6289,-4.6289,-4.6289,-4.6289,-4.6289,-4.6289,-4.6289,-4.6289,-4.6289,-4.6289,-4.6289,-4.6289,-4.6289,-4.6289,-4.6289,-4.6289,-4.6289,-4.6211,-4.6133,-4.6074,-4.5996,-4.5899,-4.5863,-4.5793,-4.5717,-4.568,-4.5605,-4.5586,-4.5586,-4.5586,-4.5586,-4.5586,-4.5586,-4.5586,-4.5586,-4.5586,-4.5586,-4.5586,-4.5586,-4.5586,-4.5586,-4.5586,-4.5586,-4.5586,-4.5586,-4.5586,-4.5586,-4.5586,-4.5586]}]]